[[{"header":{"parameterUnit":"m.s-1","parameterCategory":1,"la1":31.0,"la2":29.5877,"lo1":-88.7671,"lo2":-86.6584,"dy":0.0162,"dx":0.0185,"nx":115,"ny":88,"refTime":"2026-04-05T12:00:00:Z","depth":0,"parameterNumber":2,"parameterNumberName":"U-component_of_WINDS"},"data":[0.0,0.0,0.0,0.0,0.0,0.0,0.0,0.0,0.0,0.0,0.0,0.0,0.0,0.0,0.0,0.0,0.0,0.0,0.0,0.0,0.0,0.0,0.0,0.0,0.0,0.0,0.0,0.0,0.0,0.0,0.0,0.0,0.0,0.0,0.0,0.0,0.0,0.0,0.0,0.0,0.0,0.0,0.0,0.0,0.0,0.0,0.0,0.0,0.0,0.0,0.0,0.0,0.0,0.0,0.0,0.0,0.0,0.0,0.0,0.0,0.0,0.0,0.0,0.0,0.0,0.0,0.0,0.0,0.0,0.0,0.0,0.0,0.0,0.0,0.0,0.0,0.0,0.0,0.0,0.0,0.0,0.0,0.0,0.0,0.0,0.0,0.0,0.0,0.0,0.0,0.0,0.0,0.0,0.0,0.0,0.0,0.0,0.0,0.0,0.0,0.0,0.0,0.0,0.0,0.0,0.0,0.0,0.0,0.0,0.0,0.0,0.0,0.0,0.0,0.0,0.0,0.0,0.0,0.0,0.0,0.0,0.0,0.0,0.0,0.0,0.0,0.0,0.0,0.0,0.0,0.0,0.0,0.0,0.0,0.0,0.0,0.0,0.0,0.0,0.0,0.0,0.0,0.0,0.0,0.0,0.0,0.0,0.0,0.0,0.0,0.0,0.0,0.0,0.0,0.0,0.0,0.0,0.0,0.0,0.0,0.0,0.0,0.0,0.0,0.0,0.0,0.0,0.0,0.0,0.0,0.0,0.0,0.0,0.0,0.0,0.0,0.0,0.0,0.0,0.0,0.0,0.0,0.0,0.0,0.0,0.0,0.0,0.0,0.0,0.0,0.0,0.0,0.0,0.0,0.0,0.0,0.0,0.0,0.0,0.0,0.0,0.0,0.0,0.0,0.0,0.0,0.0,0.0,0.0,0.0,0.0,0.0,0.0,0.0,0.0,0.0,0.0,0.0,0.0,0.0,0.0,0.0,0.0,0.0,0.0,0.0,0.0,0.0,0.0,0.0,0.0,0.0,0.0,0.0,0.0,0.0,0.0,0.0,0.0,0.0,0.0,0.0,0.0,0.0,0.0,0.0,0.0,0.0,0.0,0.0,0.0,0.0,0.0,0.0,0.0,0.0,0.0,0.0,0.0,0.0,0.0,0.0,0.0,0.0,0.0,0.0,0.0,0.0,0.0,0.0,0.0,0.0,0.0,0.0,0.0,0.0,0.0,0.0,0.0,0.0,0.0,0.0,0.0,0.0,0.0,0.0,0.0,0.0,0.0,0.0,0.0,0.0,0.0,0.0,0.0,0.0,0.0,0.0,0.0,0.0,0.0,0.0,0.0,0.0,0.0,0.0,0.0,0.0,0.0,0.0,0.0,0.0,0.0,0.0,0.0,0.0,0.0,0.0,0.0,0.0,0.0,0.0,0.0,0.0,0.0,0.0,0.0,0.0,0.0,0.0,0.0,0.0,0.0,0.0,0.0,0.0,0.0,0.0,0.0,0.0,0.0,0.0,0.0,0.0,0.0,0.0,0.0,0.0,0.0,0.0,0.0,0.0,0.0,0.0,0.0,0.0,0.0,0.0,0.0,0.0,0.0,0.0,0.0,0.0,0.0,0.0,0.0,0.0,0.0,0.0,0.0,0.0,0.0,0.0,0.0,0.0,0.0,0.0,0.0,0.0,0.0,0.0,0.0,0.0,0.0,0.0,0.0,0.0,0.0,0.0,0.0,0.0,0.0,0.0,0.0,0.0,0.0,0.0,0.0,0.0,0.0,0.0,0.0,0.0,0.0,0.0,0.0,0.0,0.0,0.0,0.0,0.0,0.0,0.0,0.0,0.0,0.0,0.0,0.0,0.0,0.0,0.0,0.0,0.0,0.0,0.0,0.0,0.0,0.0,0.0,0.0,0.0,0.0,0.0,0.0,0.0,0.0,0.0,0.0,0.0,0.0,0.0,0.0,0.0,0.0,0.0,0.0,0.0,0.0,0.0,0.0,0.0,0.0,0.0,0.0,0.0,0.0,0.0,0.0,0.0,0.0,0.0,0.0,0.0,0.0,0.0,0.0,0.0,0.0,0.0,0.0,0.0,0.0,0.0,0.0,0.0,0.0,0.0,0.0,0.0,0.0,0.0,0.0,0.0,0.0,0.0,0.0,0.0,0.0,0.0,0.0,0.0,0.0,0.0,0.0,0.0,0.0,0.0,0.0,0.0,0.0,0.0,0.0,0.0,0.0,0.0,0.0,0.0,0.0,0.0,0.0,0.0,0.0,0.0,0.0,0.0,0.0,0.0,0.0,0.0,0.0,0.0,0.0,0.0,0.0,0.0,0.0,0.0,0.0,0.0,0.0,0.0,0.0,0.0,0.0,0.0,0.0,0.0,0.0,0.0,0.0,0.0,0.0,0.0,0.0,0.0,0.0,0.0,0.0,0.0,0.0,0.0,0.0,0.0,0.0,0.0,0.0,0.0,0.0,0.0,0.0,0.0,0.0,0.0,0.0,0.0,0.0,0.0,0.0,0.0,0.0,0.0,0.0,0.0,0.0,0.0,0.0,0.0,0.0,0.0,0.0,0.0,0.0,0.0,0.0,0.0,0.0,0.0,0.0,0.0,0.0,0.0,0.0,0.0,0.0,0.0,0.0,0.0,0.0,0.0,0.0,0.0,0.0,0.0,0.0,0.0,0.0,0.0,0.0,0.0,0.0,0.0,0.0,0.0,0.0,0.0,0.0,0.0,0.0,0.0,0.0,0.0,0.0,0.0,0.0,0.0,0.0,0.0,0.0,0.0,0.0,0.0,0.0,0.0,0.0,0.0,0.0,0.0,0.0,0.0,0.0,0.0,0.0,0.0,0.0,0.0,0.0,0.0,0.0,0.0,0.0,0.0,0.0,0.0,0.0,0.0,0.0,0.0,0.0,0.0,0.0,0.0,0.0,0.0,0.0,0.0,0.0,0.0,0.0,0.0,0.0,0.0,0.0,0.0,0.0,0.0,0.0,0.0,0.0,0.0,0.0,0.0,0.0,0.0,0.0,0.0,0.0,0.0,0.0,0.0,0.0,0.0,0.0,0.0,0.0,0.0,0.0,0.0,0.0,0.0,0.0,0.0,0.0,0.0,0.0,0.0,0.0,0.0,0.0,0.0,0.0,0.0,0.0,0.0,0.0,0.0,0.0,0.0,0.0,0.0,0.0,0.0,0.0,0.0,0.0,0.0,0.0,0.0,0.0,0.0,0.0,0.0,0.0,0.0,0.0,0.0,0.0,0.0,0.0,0.0,0.0,0.0,0.0,0.0,0.0,0.0,0.0,0.0,0.0,0.0,0.0,0.0,0.0,0.0,0.0,0.0,0.0,0.0,0.0,0.0,0.0,0.0,0.0,0.0,0.0,0.0,0.0,0.0,0.0,0.0,0.0,0.0,0.0,0.0,0.0,0.0,0.0,0.0,0.0,0.0,0.0,0.0,0.0,0.0,0.0,0.0,0.0,0.0,0.0,0.0,0.0,0.0,0.0,0.0,0.0,0.0,0.0,0.0,0.0,0.0,0.0,0.0,0.0,0.0,0.0,0.0,0.0,0.0,0.0,0.0,0.0,0.0,0.0,0.0,0.0,0.0,0.0,0.0,0.0,0.0,0.0,0.0,0.0,0.0,0.0,0.0,0.0,0.0,0.0,0.0,0.0,0.0,0.0,0.0,0.0,0.0,0.0,0.0,0.0,0.0,0.0,0.0,0.0,0.0,0.0,0.0,0.0,0.0,0.0,0.0,0.0,0.0,0.0,0.0,0.0,0.0,0.0,0.0,0.0,0.0,0.0,0.0,0.0,0.0,0.0,0.0,0.0,0.0,0.0,0.0,0.0,0.0,0.0,0.0,0.0,0.0,0.0,0.0,0.0,0.0,0.0,0.0,0.0,0.0,0.0,0.0,0.0,0.0,0.0,0.0,0.0,0.0,0.0,0.0,0.0,0.0,0.0,0.0,0.0,0.0,0.0,0.0,0.0,0.0,0.0,0.0,0.0,0.0,0.0,0.0,0.0,0.0,0.0,0.0,0.0,0.0,0.0,0.0,0.0,0.0,0.0,0.0,0.0,0.0,0.0,0.0,0.0,0.0,0.0,0.0,0.0,0.0,0.0,0.0,0.0,0.0,0.0,0.0,0.0,0.0,0.0,0.0,0.0,0.0,0.0,0.0,0.0,0.0,0.0,0.0,0.0,0.0,0.0,0.0,0.0,0.0,0.0,0.0,0.0,0.0,0.0,0.0,0.0,0.0,0.0,0.0,-0.9045,0.0,0.0,0.0,0.0,0.0,0.0,0.0,0.0,0.0,0.0,0.0,0.0,0.0,0.0,0.0,0.0,0.0,0.0,0.0,0.0,0.0,0.0,0.0,0.0,0.0,0.0,0.0,0.0,0.0,0.0,0.0,0.0,0.0,0.0,0.0,0.0,0.0,0.0,0.0,0.0,0.0,0.0,0.0,0.0,0.0,0.0,0.0,0.0,0.0,0.0,0.0,0.0,0.0,0.0,0.0,0.0,0.0,0.0,0.0,0.0,0.0,0.0,0.0,0.0,0.0,0.0,0.0,0.0,0.0,0.0,0.0,0.0,0.0,0.0,0.0,0.0,0.0,0.0,0.0,0.0,0.0,0.0,0.0,0.0,0.0,0.0,0.0,0.0,0.0,0.0,0.0,0.0,0.0,0.0,0.0,0.0,0.0,0.0,0.0,0.0,0.0,0.0,0.0,0.0,0.0,0.0,0.0,0.0,0.0,0.0,-1.0951,-1.073,-1.073,-1.0383,-0.9715,0.0,0.0,0.0,0.0,0.0,0.0,0.0,0.0,0.0,0.0,0.0,0.0,0.0,0.0,0.0,0.0,0.0,0.0,0.0,0.0,0.0,0.0,0.0,0.0,0.0,0.0,0.0,0.0,0.0,0.0,0.0,0.0,0.0,0.0,0.0,0.0,0.0,0.0,0.0,0.0,0.0,0.0,0.0,0.0,0.0,0.0,0.0,0.0,0.0,0.0,0.0,0.0,0.0,0.0,0.0,0.0,0.0,0.0,0.0,0.0,0.0,0.0,0.0,0.0,0.0,0.0,0.0,0.0,0.0,0.0,0.0,0.0,0.0,0.0,0.0,0.0,0.0,0.0,0.0,0.0,0.0,0.0,0.0,0.0,0.0,0.0,0.0,0.0,0.0,0.0,0.0,0.0,0.0,0.0,0.0,0.0,0.0,0.0,0.0,0.0,0.0,0.0,0.0,0.0,0.0,0.0,0.0,0.0,0.0,0.0,0.0,0.0,-1.1621,-1.1192,-1.0351,0.0,0.0,0.0,0.0,0.0,0.0,0.0,0.0,0.0,0.0,0.0,0.0,0.0,0.0,0.0,0.0,0.0,0.0,0.0,0.0,0.0,0.0,0.0,0.0,0.0,0.0,0.0,0.0,0.0,0.0,0.0,0.0,0.0,0.0,0.0,0.0,0.0,0.0,0.0,0.0,0.0,0.0,0.0,0.0,0.0,0.0,0.0,0.0,0.0,0.0,0.0,0.0,0.0,0.0,0.0,0.0,0.0,0.0,0.0,0.0,0.0,0.0,0.0,0.0,0.0,0.0,0.0,0.0,0.0,0.0,0.0,0.0,0.0,0.0,0.0,0.0,0.0,0.0,0.0,0.0,0.0,0.0,0.0,0.0,0.0,0.0,0.0,0.0,0.0,0.0,0.0,0.0,0.0,0.0,0.0,0.0,0.0,0.0,0.0,0.0,0.0,0.0,0.0,0.0,0.0,0.0,0.0,0.0,0.0,0.0,-1.257,-1.2933,-1.2586,0.0,-1.1009,0.0,0.0,0.0,0.0,0.0,0.0,0.0,0.0,0.0,0.0,0.0,0.0,0.0,0.0,0.0,0.0,0.0,0.0,0.0,0.0,0.0,0.0,0.0,0.0,0.0,0.0,0.0,0.0,0.0,0.0,0.0,0.0,0.0,0.0,0.0,0.0,0.0,0.0,0.0,0.0,0.0,0.0,0.0,0.0,0.0,0.0,0.0,0.0,0.0,0.0,0.0,0.0,0.0,0.0,0.0,0.0,0.0,0.0,0.0,0.0,0.0,0.0,0.0,0.0,0.0,0.0,0.0,0.0,0.0,0.0,0.0,0.0,0.0,0.0,0.0,0.0,0.0,0.0,0.0,0.0,0.0,0.0,0.0,0.0,0.0,0.0,0.0,0.0,0.0,0.0,0.0,0.0,0.0,0.0,0.0,0.0,0.0,0.0,0.0,0.0,0.0,0.0,0.0,0.0,0.0,0.0,0.0,0.0,0.0,0.0,-1.353,-1.368,-1.3114,-1.2464,0.0,0.0,0.0,0.0,0.0,0.0,0.0,0.0,0.0,0.0,0.0,0.0,0.0,0.0,0.0,0.0,0.0,0.0,0.0,0.0,0.0,0.0,0.0,0.0,0.0,0.0,0.0,0.0,0.0,0.0,0.0,0.0,0.0,0.0,0.0,0.0,0.0,0.0,0.0,0.0,0.0,0.0,0.0,0.0,0.0,0.0,0.0,0.0,0.0,0.0,0.0,0.0,0.0,0.0,0.0,0.0,0.0,0.0,0.0,0.0,0.0,0.0,0.0,0.0,0.0,0.0,0.0,0.0,0.0,0.0,0.0,0.0,0.0,0.0,0.0,0.0,0.0,0.0,0.0,0.0,0.0,0.0,0.0,0.0,0.0,0.0,0.0,0.0,0.0,0.0,0.0,0.0,0.0,0.0,0.0,0.0,0.0,0.0,0.0,0.0,0.0,0.0,0.0,0.0,0.0,0.0,0.0,0.0,0.0,0.0,-1.4075,-1.4215,-1.4197,-1.3702,-1.3107,-1.2415,0.0,0.0,0.0,0.0,0.0,0.0,0.0,0.0,0.0,0.0,0.0,0.0,0.0,0.0,0.0,0.0,0.0,0.0,0.0,0.0,0.0,0.0,0.0,0.0,0.0,0.0,0.0,0.0,0.0,0.0,0.0,0.0,0.0,0.0,0.0,0.0,0.0,0.0,0.0,0.0,0.0,0.0,0.0,0.0,0.0,0.0,0.0,0.0,0.0,0.0,0.0,0.0,0.0,0.0,0.0,0.0,0.0,0.0,0.0,0.0,0.0,0.0,0.0,0.0,0.0,0.0,0.0,0.0,0.0,0.0,0.0,0.0,0.0,0.0,0.0,0.0,0.0,0.0,0.0,0.0,0.0,0.0,0.0,0.0,0.0,0.0,0.0,0.0,0.0,0.0,0.0,0.0,0.0,0.0,0.0,0.0,0.0,0.0,0.0,0.0,0.0,0.0,0.0,0.0,0.0,0.0,0.0,0.0,-1.4647,-1.4565,-1.4506,-1.4506,-1.4451,-1.3921,0.0,0.0,0.0,0.0,0.0,0.0,0.0,0.0,0.0,0.0,0.0,0.0,0.0,0.0,0.0,0.0,0.0,0.0,0.0,0.0,0.0,0.0,0.0,0.0,0.0,0.0,0.0,0.0,0.0,0.0,0.0,0.0,0.0,0.0,0.0,0.0,0.0,0.0,0.0,0.0,0.0,0.0,0.0,0.0,0.0,0.0,0.0,0.0,0.0,0.0,0.0,0.0,0.0,0.0,0.0,0.0,0.0,0.0,0.0,0.0,0.0,0.0,0.0,0.0,0.0,0.0,0.0,0.0,0.0,0.0,0.0,0.0,0.0,0.0,0.0,0.0,0.0,0.0,0.0,0.0,0.0,0.0,0.0,0.0,0.0,0.0,0.0,0.0,0.0,0.0,0.0,0.0,0.0,0.0,0.0,0.0,0.0,0.0,0.0,0.0,0.0,0.0,0.0,0.0,0.0,0.0,0.0,0.0,0.0,-1.5342,-1.5446,-1.554,-1.552,-1.4993,-1.4307,0.0,0.0,0.0,0.0,0.0,0.0,0.0,0.0,0.0,0.0,0.0,0.0,0.0,0.0,0.0,0.0,0.0,0.0,0.0,0.0,0.0,0.0,0.0,0.0,0.0,0.0,0.0,0.0,0.0,0.0,0.0,0.0,0.0,0.0,0.0,0.0,0.0,0.0,0.0,0.0,0.0,0.0,0.0,0.0,0.0,0.0,0.0,0.0,0.0,0.0,0.0,0.0,0.0,0.0,0.0,0.0,0.0,0.0,0.0,0.0,0.0,0.0,0.0,0.0,0.0,0.0,0.0,0.0,0.0,0.0,0.0,0.0,0.0,0.0,0.0,0.0,0.0,0.0,0.0,0.0,0.0,0.0,0.0,0.0,0.0,0.0,0.0,0.0,0.0,0.0,0.0,0.0,0.0,0.0,0.0,0.0,0.0,0.0,0.0,0.0,0.0,0.0,0.0,0.0,0.0,0.0,0.0,0.0,0.0,-1.6218,0.0,-1.6623,-1.6464,-1.5772,-1.4998,0.0,0.0,0.0,0.0,0.0,0.0,0.0,0.0,0.0,0.0,0.0,0.0,0.0,0.0,0.0,0.0,0.0,0.0,0.0,0.0,0.0,0.0,0.0,0.0,0.0,0.0,0.0,0.0,0.0,0.0,0.0,0.0,0.0,0.0,0.0,0.0,0.0,0.0,0.0,0.0,0.0,0.0,0.0,0.0,0.0,0.0,0.0,0.0,0.0,0.0,0.0,0.0,0.0,0.0,0.0,0.0,0.0,0.0,0.0,0.0,0.0,0.0,0.0,0.0,0.0,0.0,0.0,0.0,0.0,0.0,0.0,0.0,0.0,0.0,0.0,0.0,0.0,0.0,0.0,0.0,0.0,0.0,0.0,0.0,0.0,0.0,0.0,0.0,0.0,0.0,0.0,0.0,0.0,0.0,0.0,0.0,0.0,0.0,0.0,0.0,0.0,0.0,0.0,0.0,0.0,0.0,0.0,0.0,-1.7133,-1.7326,-1.7688,-1.7708,-1.7315,-1.682,-1.5998,0.0,0.0,0.0,0.0,0.0,0.0,0.0,0.0,0.0,0.0,0.0,0.0,0.0,0.0,0.0,0.0,0.0,0.0,0.0,0.0,0.0,0.0,0.0,0.0,0.0,0.0,0.0,0.0,0.0,0.0,0.0,0.0,0.0,0.0,0.0,0.0,0.0,0.0,0.0,0.0,0.0,0.0,0.0,0.0,0.0,0.0,0.0,0.0,0.0,0.0,0.0,0.0,0.0,0.0,0.0,0.0,0.0,0.0,0.0,0.0,0.0,0.0,0.0,0.0,0.0,0.0,0.0,0.0,0.0,0.0,0.0,0.0,0.0,0.0,0.0,0.0,0.0,0.0,0.0,0.0,0.0,0.0,0.0,0.0,0.0,0.0,0.0,0.0,0.0,0.0,0.0,0.0,0.0,0.0,0.0,0.0,0.0,0.0,0.0,0.0,0.0,0.0,0.0,0.0,0.0,0.0,0.0,0.0,0.0,-1.829,-1.8609,-1.8565,-1.8132,-1.7439,-1.6579,0.0,0.0,0.0,0.0,0.0,0.0,0.0,0.0,0.0,0.0,0.0,0.0,0.0,0.0,0.0,0.0,0.0,0.0,0.0,0.0,0.0,0.0,0.0,0.0,0.0,0.0,0.0,0.0,0.0,0.0,0.0,0.0,0.0,0.0,0.0,0.0,0.0,0.0,0.0,0.0,0.0,0.0,0.0,0.0,0.0,0.0,0.0,0.0,0.0,0.0,0.0,0.0,0.0,0.0,0.0,0.0,0.0,0.0,0.0,0.0,0.0,0.0,0.0,0.0,0.0,0.0,0.0,0.0,0.0,0.0,0.0,0.0,0.0,0.0,0.0,0.0,0.0,0.0,0.0,0.0,0.0,0.0,0.0,0.0,0.0,0.0,0.0,0.0,0.0,0.0,0.0,0.0,0.0,0.0,0.0,0.0,0.0,0.0,0.0,0.0,0.0,0.0,0.0,0.0,0.0,0.0,0.0,0.0,0.0,-2.1059,-2.0793,-2.039,-1.9876,-1.8956,-1.7821,-1.6426,0.0,0.0,0.0,0.0,0.0,0.0,0.0,0.0,0.0,0.0,0.0,0.0,0.0,0.0,0.0,0.0,0.0,0.0,0.0,0.0,0.0,0.0,0.0,0.0,0.0,0.0,0.0,0.0,0.0,0.0,0.0,0.0,0.0,0.0,0.0,0.0,0.0,0.0,0.0,0.0,0.0,0.0,0.0,0.0,0.0,0.0,0.0,0.0,0.0,0.0,0.0,0.0,0.0,0.0,0.0,0.0,0.0,0.0,0.0,0.0,0.0,0.0,0.0,0.0,0.0,0.0,0.0,0.0,0.0,0.0,0.0,0.0,0.0,0.0,0.0,0.0,0.0,0.0,0.0,0.0,0.0,0.0,0.0,0.0,0.0,0.0,0.0,0.0,0.0,0.0,0.0,0.0,0.0,0.0,0.0,0.0,0.0,0.0,0.0,0.0,0.0,0.0,0.0,0.0,0.0,0.0,0.0,0.0,-2.5108,-2.4018,-2.3069,-2.2223,-2.1164,-1.9634,0.0,0.0,0.0,0.0,0.0,0.0,0.0,0.0,0.0,0.0,0.0,0.0,0.0,0.0,0.0,0.0,0.0,0.0,0.0,0.0,0.0,0.0,0.0,0.0,0.0,0.0,0.0,0.0,0.0,0.0,0.0,0.0,0.0,0.0,0.0,0.0,0.0,0.0,0.0,0.0,0.0,0.0,0.0,0.0,0.0,0.0,0.0,0.0,0.0,0.0,0.0,0.0,0.0,0.0,0.0,0.0,0.0,0.0,0.0,0.0,0.0,0.0,0.0,0.0,0.0,0.0,0.0,0.0,0.0,0.0,0.0,0.0,0.0,0.0,0.0,0.0,0.0,0.0,0.0,0.0,0.0,0.0,0.0,0.0,0.0,0.0,0.0,0.0,0.0,0.0,0.0,0.0,0.0,0.0,0.0,0.0,0.0,0.0,0.0,0.0,0.0,0.0,0.0,0.0,0.0,0.0,0.0,0.0,0.0,-2.6519,-2.7325,-2.6485,-2.3966,-2.2678,-2.0982,0.0,0.0,0.0,0.0,0.0,0.0,0.0,0.0,0.0,0.0,0.0,0.0,0.0,0.0,0.0,0.0,0.0,0.0,0.0,0.0,0.0,0.0,0.0,0.0,0.0,0.0,0.0,0.0,0.0,0.0,0.0,0.0,0.0,0.0,0.0,0.0,0.0,0.0,0.0,0.0,0.0,0.0,0.0,0.0,0.0,0.0,0.0,0.0,0.0,0.0,0.0,0.0,0.0,0.0,0.0,0.0,0.0,0.0,0.0,0.0,0.0,0.0,0.0,0.0,0.0,0.0,0.0,0.0,0.0,0.0,0.0,0.0,0.0,0.0,0.0,0.0,0.0,0.0,0.0,0.0,0.0,0.0,0.0,0.0,0.0,0.0,0.0,0.0,0.0,0.0,0.0,0.0,0.0,0.0,0.0,0.0,0.0,0.0,0.0,0.0,0.0,0.0,0.0,0.0,0.0,0.0,0.0,0.0,-2.65,-2.7996,-2.9326,-2.8779,-2.6069,-2.4361,-2.2317,0.0,0.0,0.0,0.0,0.0,0.0,0.0,0.0,0.0,0.0,0.0,0.0,0.0,0.0,0.0,0.0,0.0,0.0,0.0,0.0,0.0,0.0,0.0,0.0,0.0,0.0,0.0,0.0,0.0,0.0,0.0,0.0,0.0,0.0,0.0,0.0,0.0,0.0,0.0,0.0,0.0,0.0,0.0,0.0,0.0,0.0,0.0,0.0,0.0,0.0,0.0,0.0,0.0,0.0,0.0,0.0,0.0,0.0,0.0,0.0,0.0,0.0,0.0,0.0,0.0,0.0,0.0,0.0,0.0,0.0,0.0,0.0,0.0,0.0,0.0,0.0,0.0,0.0,0.0,0.0,0.0,0.0,0.0,0.0,0.0,0.0,0.0,0.0,0.0,0.0,0.0,0.0,0.0,0.0,0.0,0.0,0.0,0.0,0.0,0.0,0.0,0.0,0.0,0.0,0.0,0.0,0.0,0.0,-2.7272,-2.934,-3.0422,-3.0062,-2.8226,-2.5981,-2.3476,0.0,0.0,0.0,0.0,0.0,0.0,0.0,0.0,0.0,0.0,0.0,0.0,0.0,0.0,0.0,0.0,0.0,0.0,0.0,0.0,0.0,0.0,0.0,0.0,0.0,0.0,0.0,0.0,0.0,0.0,0.0,0.0,0.0,0.0,0.0,0.0,0.0,0.0,0.0,0.0,0.0,0.0,0.0,0.0,0.0,0.0,0.0,0.0,0.0,0.0,0.0,0.0,0.0,0.0,0.0,0.0,0.0,0.0,0.0,0.0,0.0,0.0,0.0,0.0,0.0,0.0,0.0,0.0,0.0,0.0,0.0,0.0,0.0,0.0,0.0,0.0,0.0,0.0,0.0,0.0,0.0,0.0,0.0,0.0,0.0,0.0,0.0,0.0,0.0,0.0,0.0,0.0,0.0,0.0,0.0,0.0,0.0,0.0,0.0,0.0,0.0,0.0,0.0,0.0,0.0,0.0,0.0,0.0,-2.821,-2.9869,-3.0995,-3.0608,-2.8671,-2.6498,-2.3994,0.0,0.0,0.0,0.0,0.0,0.0,0.0,0.0,0.0,0.0,0.0,0.0,0.0,0.0,0.0,0.0,0.0,0.0,0.0,0.0,0.0,0.0,0.0,0.0,0.0,0.0,0.0,0.0,0.0,0.0,0.0,0.0,0.0,0.0,0.0,0.0,0.0,0.0,0.0,0.0,0.0,0.0,0.0,0.0,0.0,0.0,0.0,0.0,-0.6579,0.0,0.0,0.0,0.0,0.0,0.0,0.0,0.0,0.0,0.0,0.0,0.0,0.0,0.0,0.0,0.0,0.0,0.0,0.0,0.0,0.0,0.0,0.0,0.0,0.0,0.0,0.0,0.0,0.0,0.0,0.0,0.0,0.0,0.0,0.0,0.0,0.0,0.0,0.0,0.0,0.0,0.0,0.0,0.0,0.0,0.0,0.0,0.0,0.0,0.0,0.0,0.0,0.0,0.0,0.0,0.0,0.0,0.0,0.0,-2.8739,-3.0062,-3.1163,-3.0775,-2.8833,-2.7063,-2.4672,0.0,0.0,0.0,0.0,0.0,0.0,0.0,0.0,0.0,0.0,0.0,0.0,0.0,0.0,0.0,0.0,0.0,0.0,0.0,0.0,0.0,0.0,0.0,0.0,0.0,0.0,0.0,0.0,0.0,0.0,0.0,0.0,0.0,0.0,0.0,0.0,0.0,0.0,0.0,0.0,0.0,0.0,0.0,0.0,0.0,0.0,0.0,0.0,0.0,0.0,0.0,0.0,0.0,0.0,0.0,0.0,0.0,0.0,0.0,0.0,0.0,0.0,0.0,0.0,0.0,0.0,0.0,0.0,0.0,0.0,0.0,0.0,0.0,0.0,0.0,0.0,0.0,0.0,0.0,0.0,0.0,0.0,0.0,0.0,0.0,0.0,0.0,0.0,0.0,0.0,0.0,0.0,0.0,0.0,0.0,0.0,0.0,0.0,0.0,0.0,0.0,0.0,0.0,0.0,0.0,0.0,0.0,-2.7661,-2.9148,-3.0182,-3.1115,-3.068,-2.8833,-2.7357,-2.5109,-2.2012,0.0,0.0,0.0,0.0,0.0,0.0,0.0,0.0,0.0,0.0,0.0,0.0,0.0,0.0,0.0,0.0,0.0,0.0,0.0,0.0,0.0,0.0,0.0,0.0,0.0,0.0,0.0,0.0,0.0,0.0,0.0,0.0,0.0,0.0,0.0,0.0,0.0,0.0,-0.9737,-1.0168,0.0,0.0,0.0,0.0,0.0,0.0,0.0,0.0,-0.7947,0.0,0.0,0.0,0.0,0.0,0.0,0.0,0.0,0.0,0.0,0.0,0.0,0.0,0.0,0.0,0.0,0.0,0.0,0.0,0.0,0.0,0.0,0.0,0.0,0.0,0.0,0.0,0.0,0.0,0.0,0.0,0.0,0.0,0.0,0.0,0.0,0.0,0.0,0.0,0.0,0.0,0.0,0.0,0.0,0.0,0.0,0.0,0.0,0.0,0.0,0.0,0.0,0.0,0.0,0.0,0.0,-2.6919,-2.8424,-2.9677,-3.0711,-3.097,-3.0323,-2.881,-2.6665,-2.4396,-2.1991,0.0,0.0,0.0,0.0,0.0,0.0,0.0,0.0,0.0,0.0,0.0,0.0,0.0,0.0,0.0,0.0,0.0,0.0,0.0,0.0,0.0,0.0,0.0,0.0,0.0,0.0,0.0,0.0,0.0,0.0,0.0,0.0,0.0,0.0,0.0,0.0,0.0,0.0,0.0,-1.1231,-1.1559,0.0,0.0,0.0,0.0,0.0,0.0,0.0,0.0,-0.8723,0.0,0.0,0.0,0.0,0.0,0.0,0.0,0.0,0.0,0.0,0.0,0.0,0.0,0.0,0.0,0.0,0.0,0.0,0.0,0.0,0.0,0.0,0.0,0.0,0.0,0.0,0.0,0.0,0.0,0.0,0.0,0.0,0.0,0.0,0.0,0.0,0.0,0.0,0.0,0.0,0.0,0.0,0.0,0.0,0.0,0.0,0.0,0.0,0.0,0.0,0.0,0.0,0.0,0.0,0.0,-2.7261,-2.8923,-3.0086,-3.0874,-3.0922,-3.011,-2.8484,-2.6416,-2.4136,0.0,0.0,0.0,0.0,0.0,0.0,0.0,0.0,0.0,0.0,0.0,0.0,0.0,0.0,0.0,0.0,0.0,0.0,0.0,0.0,0.0,0.0,0.0,0.0,0.0,0.0,0.0,0.0,0.0,0.0,0.0,0.0,0.0,0.0,0.0,0.0,0.0,0.0,0.0,0.0,-1.2508,-1.2727,-1.337,0.0,0.0,0.0,0.0,0.0,0.0,-1.1188,-1.0564,0.0,0.0,0.0,0.0,0.0,0.0,0.0,0.0,0.0,0.0,0.0,0.0,0.0,0.0,0.0,0.0,0.0,0.0,0.0,0.0,0.0,0.0,0.0,0.0,0.0,0.0,0.0,0.0,0.0,0.0,0.0,0.0,0.0,0.0,0.0,0.0,0.0,0.0,0.0,0.0,0.0,0.0,0.0,0.0,0.0,0.0,0.0,0.0,0.0,0.0,0.0,0.0,0.0,0.0,0.0,-2.7653,-2.9262,-3.0441,-3.1043,-3.0831,-2.9872,-2.8156,-2.6192,-2.3881,0.0,0.0,0.0,0.0,0.0,0.0,0.0,0.0,0.0,0.0,0.0,0.0,0.0,0.0,0.0,0.0,0.0,0.0,0.0,0.0,0.0,0.0,0.0,0.0,0.0,0.0,0.0,0.0,0.0,0.0,0.0,0.0,0.0,0.0,0.0,0.0,0.0,0.0,0.0,0.0,0.0,-1.3843,-1.4691,-1.4182,0.0,0.0,0.0,0.0,-1.3033,-1.2785,0.0,0.0,0.0,0.0,0.0,0.0,0.0,0.0,0.0,0.0,0.0,0.0,0.0,0.0,0.0,0.0,0.0,0.0,0.0,0.0,0.0,0.0,0.0,0.0,0.0,0.0,0.0,0.0,0.0,0.0,0.0,0.0,0.0,0.0,0.0,0.0,0.0,0.0,0.0,0.0,0.0,0.0,0.0,0.0,0.0,0.0,0.0,0.0,0.0,0.0,0.0,0.0,0.0,0.0,0.0,0.0,-2.8557,-2.9608,-3.0609,-3.1524,-3.0706,-2.9516,-2.8133,-2.5838,-2.3518,0.0,0.0,0.0,0.0,0.0,0.0,0.0,0.0,0.0,0.0,0.0,0.0,0.0,0.0,0.0,0.0,0.0,0.0,0.0,0.0,0.0,0.0,0.0,0.0,0.0,0.0,0.0,0.0,0.0,0.0,0.0,0.0,0.0,0.0,0.0,0.0,0.0,0.0,0.0,0.0,0.0,-1.4676,-1.5548,-1.5241,-1.5067,0.0,0.0,-1.4407,-1.4383,-1.4154,0.0,0.0,0.0,0.0,0.0,0.0,0.0,0.0,0.0,0.0,0.0,0.0,0.0,0.0,0.0,0.0,0.0,0.0,0.0,0.0,0.0,0.0,0.0,0.0,0.0,0.0,0.0,0.0,0.0,0.0,0.0,0.0,0.0,0.0,0.0,0.0,0.0,0.0,0.0,0.0,0.0,0.0,0.0,0.0,0.0,0.0,0.0,0.0,0.0,0.0,0.0,0.0,0.0,0.0,0.0,-2.625,-2.829,-2.9511,-3.0633,-3.1621,-3.0681,-2.9445,-2.8133,-2.5542,-2.321,0.0,0.0,0.0,0.0,0.0,0.0,0.0,0.0,0.0,0.0,0.0,0.0,0.0,0.0,0.0,0.0,0.0,0.0,0.0,0.0,0.0,0.0,0.0,0.0,0.0,0.0,0.0,0.0,0.0,0.0,0.0,0.0,0.0,0.0,0.0,0.0,0.0,0.0,0.0,0.0,0.0,0.0,-1.6963,-1.6647,0.0,0.0,0.0,-1.582,-1.6043,0.0,0.0,0.0,0.0,0.0,0.0,0.0,0.0,0.0,0.0,0.0,0.0,0.0,0.0,0.0,0.0,0.0,0.0,0.0,0.0,0.0,0.0,0.0,0.0,0.0,0.0,0.0,0.0,0.0,0.0,0.0,0.0,0.0,0.0,0.0,0.0,0.0,0.0,0.0,0.0,0.0,0.0,0.0,0.0,0.0,0.0,0.0,0.0,0.0,0.0,0.0,0.0,0.0,0.0,0.0,0.0,0.0,-2.7718,-2.9301,-3.047,-3.1172,-3.0367,-2.9206,-2.7759,-2.5338,0.0,0.0,0.0,0.0,0.0,0.0,0.0,0.0,0.0,0.0,0.0,0.0,0.0,0.0,0.0,0.0,0.0,0.0,0.0,0.0,0.0,0.0,0.0,0.0,0.0,0.0,0.0,-1.1004,0.0,0.0,0.0,0.0,0.0,0.0,0.0,0.0,0.0,0.0,0.0,0.0,0.0,0.0,-1.7081,-1.7975,-1.7764,-1.7656,0.0,0.0,-1.7117,-1.7303,-1.6788,-1.6068,0.0,0.0,0.0,0.0,0.0,0.0,0.0,0.0,0.0,0.0,0.0,0.0,0.0,0.0,0.0,0.0,0.0,0.0,0.0,0.0,0.0,0.0,0.0,0.0,0.0,0.0,0.0,0.0,0.0,0.0,0.0,0.0,0.0,0.0,0.0,0.0,0.0,0.0,0.0,0.0,0.0,0.0,0.0,0.0,0.0,0.0,0.0,0.0,0.0,0.0,0.0,0.0,0.0,0.0,-2.5524,-2.6983,-2.9027,-3.0049,-2.9934,-2.9626,-2.8556,-2.6761,-2.5256,-2.3503,0.0,0.0,0.0,0.0,0.0,0.0,0.0,0.0,0.0,0.0,0.0,0.0,0.0,0.0,0.0,0.0,0.0,0.0,0.0,0.0,0.0,0.0,0.0,0.0,0.0,0.0,0.0,0.0,0.0,0.0,0.0,0.0,0.0,0.0,0.0,0.0,0.0,0.0,0.0,0.0,0.0,-1.7388,-1.8026,-1.8203,-1.84,0.0,-1.842,-1.8143,-1.7819,-1.7431,-1.6835,-1.5963,0.0,0.0,0.0,0.0,0.0,0.0,0.0,0.0,0.0,0.0,0.0,0.0,0.0,0.0,0.0,0.0,0.0,0.0,0.0,0.0,0.0,0.0,0.0,0.0,0.0,0.0,0.0,0.0,0.0,0.0,0.0,0.0,0.0,0.0,0.0,0.0,0.0,0.0,0.0,0.0,0.0,0.0,0.0,0.0,0.0,0.0,0.0,0.0,0.0,0.0,0.0,0.0,0.0,-2.5081,-2.6873,-2.8691,-2.9606,-2.9555,-2.8869,-2.795,-2.6703,-2.4954,-2.3224,0.0,0.0,0.0,0.0,0.0,0.0,0.0,0.0,0.0,0.0,0.0,0.0,0.0,0.0,0.0,0.0,0.0,0.0,0.0,0.0,0.0,0.0,0.0,0.0,0.0,0.0,0.0,0.0,-1.2174,-1.2265,-1.2612,0.0,0.0,0.0,0.0,0.0,0.0,0.0,0.0,0.0,0.0,-1.7551,-1.8027,-1.8391,0.0,0.0,-1.8793,-1.8606,-1.8524,-1.7975,-1.7289,-1.6506,-1.5154,0.0,0.0,0.0,0.0,0.0,0.0,0.0,0.0,0.0,0.0,0.0,0.0,0.0,0.0,0.0,0.0,0.0,0.0,0.0,0.0,0.0,0.0,0.0,0.0,0.0,0.0,0.0,0.0,0.0,0.0,0.0,0.0,0.0,0.0,0.0,0.0,0.0,0.0,0.0,0.0,0.0,0.0,0.0,0.0,0.0,0.0,0.0,0.0,0.0,0.0,0.0,0.0,-2.4682,-2.6409,-2.8186,-2.9004,-2.8727,-2.8231,-2.7473,-2.6347,-2.4828,-2.3267,0.0,0.0,0.0,0.0,0.0,0.0,0.0,0.0,0.0,0.0,0.0,0.0,0.0,0.0,0.0,0.0,0.0,0.0,0.0,0.0,0.0,0.0,0.0,0.0,0.0,0.0,0.0,0.0,-1.3102,-1.3074,-1.3867,0.0,0.0,0.0,0.0,0.0,0.0,0.0,0.0,0.0,0.0,-1.7935,-1.81,-1.8521,-1.8907,-1.8944,-1.8907,-1.8866,-1.8913,-1.8201,-1.7422,-1.688,0.0,0.0,0.0,0.0,0.0,0.0,0.0,0.0,0.0,0.0,0.0,0.0,0.0,0.0,0.0,0.0,0.0,0.0,0.0,0.0,0.0,0.0,0.0,0.0,0.0,0.0,0.0,-2.0605,0.0,0.0,-2.0508,0.0,0.0,0.0,0.0,0.0,0.0,0.0,0.0,0.0,0.0,0.0,0.0,0.0,0.0,0.0,0.0,0.0,0.0,0.0,0.0,0.0,0.0,-2.4354,-2.5257,-2.7515,-2.8211,-2.7292,-2.7701,-2.7189,-2.5585,-2.4839,-2.3754,-2.2165,0.0,0.0,0.0,0.0,0.0,0.0,0.0,0.0,0.0,0.0,0.0,0.0,0.0,0.0,0.0,0.0,0.0,0.0,0.0,0.0,0.0,0.0,0.0,0.0,0.0,0.0,-1.4483,-1.3852,-1.3762,0.0,0.0,0.0,0.0,0.0,0.0,0.0,0.0,0.0,-1.6869,-1.7935,-1.854,-1.8155,-1.8779,-1.8999,-1.8246,-1.8797,-1.9146,-1.8759,-1.7878,-1.7153,0.0,0.0,0.0,0.0,0.0,0.0,0.0,0.0,0.0,0.0,0.0,0.0,0.0,0.0,0.0,0.0,0.0,0.0,0.0,0.0,0.0,0.0,0.0,0.0,0.0,0.0,0.0,-2.0838,-2.0843,0.0,0.0,0.0,0.0,0.0,0.0,0.0,0.0,0.0,0.0,0.0,-2.0796,-2.1328,0.0,0.0,0.0,0.0,0.0,0.0,0.0,0.0,0.0,0.0,0.0,0.0,-2.399,-2.5095,-2.649,-2.6952,-2.6282,-2.6443,-2.6118,-2.5243,-2.4466,-2.3126,-2.1174,0.0,0.0,0.0,0.0,0.0,0.0,0.0,0.0,0.0,0.0,0.0,0.0,0.0,0.0,0.0,0.0,0.0,0.0,0.0,0.0,0.0,0.0,0.0,0.0,0.0,-1.5433,0.0,0.0,0.0,0.0,0.0,0.0,0.0,0.0,0.0,0.0,0.0,-1.706,-1.7433,-1.8193,-1.8559,-1.8136,-1.8577,-1.8724,0.0,0.0,0.0,0.0,0.0,0.0,0.0,0.0,0.0,0.0,0.0,0.0,0.0,0.0,-1.1175,-0.9404,-0.9093,-0.894,-0.8466,0.0,0.0,0.0,0.0,0.0,0.0,0.0,0.0,0.0,0.0,0.0,0.0,0.0,0.0,-2.0567,-2.0437,-2.0214,0.0,0.0,0.0,0.0,0.0,0.0,0.0,0.0,-2.0853,-2.1057,-2.1154,-2.199,-2.2422,0.0,-2.2742,-2.227,0.0,0.0,0.0,0.0,0.0,0.0,0.0,0.0,-2.3609,-2.4781,-2.5785,-2.6145,-2.5936,-2.5966,-2.5808,-2.5251,-2.4033,-2.2617,-2.1114,-1.9492,-1.8247,0.0,0.0,0.0,0.0,0.0,0.0,0.0,0.0,0.0,0.0,0.0,0.0,0.0,0.0,0.0,0.0,0.0,0.0,0.0,0.0,0.0,0.0,0.0,-1.5357,0.0,0.0,0.0,0.0,0.0,0.0,0.0,0.0,0.0,-1.6627,-1.703,-1.7489,-1.8045,-1.858,-1.8724,-1.8155,0.0,0.0,0.0,0.0,0.0,0.0,0.0,-1.7479,-1.7241,-1.6546,-1.5843,-1.5291,-1.495,-1.4591,-1.4263,0.0,0.0,-1.0748,-1.0296,-1.008,-0.9588,-0.9589,-0.9645,-0.9524,-0.9512,-0.9455,0.0,0.0,0.0,0.0,0.0,0.0,0.0,0.0,-2.0054,-1.991,0.0,-1.9761,0.0,0.0,0.0,0.0,-2.0334,-1.9904,0.0,0.0,-2.0464,-2.0699,-2.108,-2.2366,-2.31,-2.3341,-2.3913,-2.3787,-2.2926,-2.1762,0.0,0.0,0.0,0.0,0.0,0.0,-2.332,-2.4385,-2.5388,-2.592,-2.6072,-2.6282,-2.6112,-2.5377,-2.357,-2.2363,-2.1894,-2.0605,-1.9494,-1.8676,-1.8242,0.0,0.0,0.0,0.0,0.0,0.0,0.0,0.0,0.0,0.0,0.0,0.0,0.0,0.0,0.0,0.0,0.0,0.0,0.0,0.0,-1.506,0.0,0.0,0.0,0.0,0.0,0.0,0.0,0.0,0.0,0.0,-1.719,-1.7489,-1.7971,-1.8577,0.0,0.0,0.0,0.0,-1.8705,-1.7202,-1.7954,-1.8449,-1.7678,-1.7079,-1.6614,-1.6457,0.0,0.0,-1.5291,-1.507,-1.483,-1.452,-1.4411,-1.3914,-1.2494,-1.1749,-1.1252,-1.102,-1.0805,-1.0728,-1.0934,-1.0776,-1.0584,-2.3142,0.0,0.0,0.0,0.0,-2.1476,-2.127,-2.1294,-2.101,-2.0719,-2.0419,-2.0342,0.0,0.0,0.0,0.0,0.0,0.0,-2.0484,-2.0364,-2.0723,-2.1048,-2.1394,-2.2448,-2.3004,-2.3183,-2.3611,-2.3673,-2.3352,-2.2744,-2.207,-2.1359,0.0,0.0,0.0,0.0,-2.3226,-2.3959,-2.4856,-2.5364,-2.5389,-2.548,-2.5137,-2.4317,-2.3736,-2.3086,-2.2344,-2.1074,-2.0137,-1.9551,-1.8555,0.0,0.0,0.0,0.0,0.0,0.0,0.0,0.0,0.0,0.0,0.0,0.0,0.0,0.0,0.0,0.0,0.0,0.0,0.0,-1.463,-1.4815,-1.5102,0.0,0.0,0.0,0.0,0.0,0.0,0.0,0.0,0.0,-1.8193,-1.834,-1.8376,0.0,0.0,-1.8705,-1.8192,-1.832,-1.8302,-1.7807,-1.8302,0.0,-1.8185,-1.7768,-1.735,-1.7037,-1.6277,-1.579,-1.6012,-1.577,-1.5529,-1.5424,-1.5138,-1.4728,-1.4027,-1.2941,-1.2073,-1.173,-1.1558,-1.1611,-1.185,-1.1704,-1.1439,-2.4232,-2.37,-2.2975,-2.2561,-2.2375,-2.2006,-2.1701,-2.1505,-2.1319,-2.106,-2.0745,-2.0729,-2.0551,-2.0282,-2.023,0.0,0.0,0.0,-2.0257,-1.9959,-2.043,-2.0687,-2.0903,-2.182,-2.2377,-2.2737,-2.2964,-2.3083,-2.3097,-2.2894,-2.2367,-2.1588,0.0,0.0,-2.2228,-2.2554,-2.3099,-2.3907,-2.45,-2.4883,-2.5106,-2.5234,-2.4844,-2.3848,-2.3789,-2.3477,-2.273,-2.1523,-2.0703,-2.043,-1.9375,-1.8266,0.0,0.0,0.0,0.0,0.0,0.0,0.0,0.0,0.0,0.0,0.0,-1.5196,-1.5,0.0,0.0,0.0,-1.3762,-1.3654,-1.4027,-1.4185,0.0,0.0,0.0,0.0,0.0,0.0,0.0,-1.6789,-1.7494,-1.8119,-1.8632,-1.8852,-1.8797,-1.8412,-1.8559,-1.8577,-1.8136,0.0,-1.8302,-1.8118,-1.8449,-1.8592,-1.8237,-1.7907,-1.7541,-1.7165,-1.6375,-1.5891,-1.6115,-1.5942,-1.5754,-1.5582,-1.5352,-1.5062,-1.4669,-1.3782,-1.3021,-1.2613,-1.2519,-1.2575,-1.2755,-1.2644,-1.2394,-2.508,-2.4776,-2.3861,-2.2964,-2.2272,-2.2069,-2.1751,-2.1243,-2.1256,-2.1069,-2.0824,-2.1019,-2.0774,-2.0258,-2.0016,0.0,-1.9829,-1.9888,-1.975,-1.9417,-1.9712,-1.9852,-1.9891,-2.0744,-2.1474,-2.1998,-2.2033,-2.2156,-2.2428,-2.2464,-2.2368,-2.2208,-2.2375,-2.2665,-2.3008,-2.2649,-2.2983,-2.4038,-2.4291,-2.459,-2.4961,-2.543,-2.5059,-2.3769,-2.3809,-2.3613,-2.3081,-2.1912,-2.1249,-2.121,-2.041,-1.9375,-1.8203,0.0,0.0,0.0,0.0,0.0,0.0,0.0,0.0,0.0,0.0,0.0,0.0,0.0,0.0,0.0,-1.2664,0.0,-1.3179,-1.3403,0.0,0.0,0.0,-1.5072,-1.5839,-1.5818,-1.6172,-1.7382,0.0,0.0,-1.8592,-1.8976,-1.9125,-1.8722,-1.8724,-1.8577,-1.8229,-1.8485,-1.8595,-1.8302,-1.854,-1.8556,-1.8073,-1.7685,-1.7316,-1.6908,-1.6251,-1.5754,-1.5737,-1.5703,-1.5548,-1.5292,-1.5184,-1.5029,-1.4669,-1.4294,-1.3985,-1.3513,-1.3441,-1.3441,-1.3419,-1.3404,-1.32,-2.5778,-2.5275,-2.4842,-2.419,-2.3472,-2.3156,-2.2862,-2.2445,-2.2445,-2.2151,-2.1722,-2.1747,-2.1416,-2.0901,-2.0739,-2.0723,-2.0787,-2.1008,-2.0865,-2.0374,-2.0436,-2.051,-2.0516,-2.0763,-2.1017,-2.136,-2.1636,-2.1658,-2.1574,-2.2004,-2.2214,-2.2294,-2.2724,-2.2895,-2.2897,-2.2934,-2.3232,-2.3879,-2.4199,-2.4316,-2.4121,-2.4824,-2.4609,-2.3296,-2.3881,-2.3906,-2.312,-2.2227,-2.1719,-2.1699,-2.0566,-1.9629,-1.9004,-1.8359,0.0,0.0,0.0,0.0,0.0,0.0,0.0,0.0,0.0,-1.479,-1.4661,0.0,-1.3616,0.0,-1.3099,-1.3049,-1.3252,-1.3463,0.0,0.0,-1.4137,-1.4303,-1.4363,-1.4773,-1.529,-1.576,-1.6633,-1.7398,-1.7958,-1.8522,-1.8748,-1.8509,-1.8608,-1.8687,-1.8595,-1.865,-1.8797,-1.8981,-1.9072,-1.9009,-1.849,-1.7663,-1.6946,-1.6507,-1.5821,-1.5326,-1.536,-1.512,-1.5034,-1.5138,-1.4983,-1.4768,-1.4621,-1.431,-1.3985,-1.3601,-1.3492,-1.3492,-1.3492,-1.3492,-1.3301,-2.6319,-2.5879,-2.5585,-2.5141,-2.4583,-2.3988,-2.3604,-2.326,-2.3126,-2.2886,-2.2552,-2.2175,-2.1756,-2.1299,-2.1022,-2.0865,-2.0925,-2.1074,-2.0958,-2.0686,-2.0725,-2.0563,-2.0267,-2.0342,-2.0344,-2.0328,-2.0274,-2.0306,-2.0429,-2.0832,-2.1131,-2.1328,-2.1911,-2.2091,-2.187,-2.2611,-2.3244,-2.3662,-2.3839,-2.3741,-2.3512,-2.411,-2.3936,-2.2851,-2.3338,-2.319,-2.2282,-2.1636,-2.1199,-2.1031,-1.9982,-1.9241,-1.9013,-1.8387,-1.7666,0.0,0.0,0.0,0.0,0.0,0.0,0.0,0.0,0.0,0.0,0.0,-1.3466,-1.3388,-1.3327,-1.3306,-1.3256,-1.362,-1.381,-1.3789,-1.3981,-1.4113,-1.4191,-1.4585,-1.494,-1.5257,-1.601,-1.6763,-1.7276,-1.7951,-1.8443,-1.8508,-1.8804,-1.8907,-1.8742,-1.8705,-1.8852,-1.9237,-1.9292,-1.9152,-1.8772,-1.7826,-1.709,-1.6816,-1.6079,-1.5429,-1.524,-1.4915,-1.4709,-1.4694,-1.4748,-1.4726,-1.4625,-1.4466,-1.4201,-1.3891,-1.371,-1.3616,-1.3528,-1.3492,-1.3301,-2.6787,-2.6533,-2.6172,-2.5865,-2.5558,-2.473,-2.4222,-2.3968,-2.3674,-2.3487,-2.3327,-2.2445,-2.1897,-2.1695,-2.1119,-2.0851,-2.0788,-2.0851,-2.0775,-2.0735,-2.0735,-2.0441,-1.992,-1.984,-1.9666,-1.9399,-1.8865,-1.8849,-1.9278,-1.9596,-1.9826,-2.0059,-2.0648,-2.0817,-2.0616,-2.1859,-2.2703,-2.3027,-2.3015,-2.2908,-2.2855,-2.325,-2.3081,-2.2302,-2.2378,-2.1949,-2.0898,-2.0437,-2.0056,-1.9734,-1.8946,-1.8527,-1.8563,-1.8147,-1.7551,0.0,-1.6974,0.0,0.0,0.0,0.0,0.0,0.0,0.0,0.0,-1.3279,-1.3474,-1.328,-1.348,-1.356,-1.3347,-1.3814,-1.4028,-1.3706,-1.3895,-1.4183,-1.449,-1.4621,-1.4827,-1.5173,-1.5642,-1.6111,-1.6641,-1.7416,-1.8095,-1.8536,-1.9015,-1.9164,-1.8889,-1.8815,-1.8944,-1.9256,-1.9271,-1.9073,-1.8696,-1.804,-1.7488,-1.7385,-1.6422,-1.5634,-1.524,-1.4812,-1.4453,-1.4316,-1.4578,-1.4832,-1.4778,-1.476,-1.4565,-1.4196,-1.3991,-1.3783,-1.3564,-1.3492,-1.3272,-2.7495,-2.7388,-2.6627,-2.6279,-2.6172,-2.5545,-2.5237,-2.5157,-2.4877,-2.4356,-2.3634,-2.2726,-2.2311,-2.2205,-2.1643,-2.1454,-2.1454,-2.1454,-2.1256,-2.1029,-2.1029,-2.0842,-2.0494,-2.0027,-1.9773,-1.9706,-1.9372,-1.9236,-1.9275,-1.9584,-1.9716,-1.9773,-2.0129,-2.0263,-2.02,0.0,0.0,0.0,-2.0989,-2.132,-2.1644,-2.2071,-2.208,-2.1516,-2.1302,0.0,-1.9161,-1.8684,-1.8464,-1.8379,-1.7833,0.0,0.0,0.0,0.0,0.0,0.0,0.0,0.0,0.0,0.0,0.0,-1.4267,-1.4112,-1.3863,-1.3493,-1.3319,-1.3493,-1.3828,-1.3975,-1.3935,-1.4229,-1.4322,-1.4041,-1.38,-1.3709,-1.3747,-1.3903,-1.4059,-1.4349,-1.4819,-1.5368,-1.6038,-1.6895,-1.7732,-1.8388,-1.8953,-1.9234,-1.9201,-1.9182,-1.9219,-1.9253,-1.9051,-1.8812,-1.8709,-1.8018,-1.7501,-1.7334,-1.6251,-1.5411,-1.5155,-1.4401,-1.4024,-1.4384,-1.4675,-1.4966,-1.5532,-1.5525,-1.5037,-1.4461,-1.4249,-1.4057,-1.3601,-1.3492,-1.3301,-2.7709,-2.7629,-2.6665,-2.6281,0.0,-2.5583,-2.54,-2.5594,-2.5255,-2.4663,-2.3955,-2.3354,-2.2926,-2.2592,-2.1949,-2.1534,-2.1309,-2.0895,-2.0762,-2.0882,-2.0748,-2.0681,-2.0668,-2.0374,-2.008,-1.9786,-1.9359,-1.9122,-1.9088,-1.9095,-1.9099,-1.9082,-1.9386,-1.9394,-1.9084,-1.8912,-1.9161,-1.9715,-2.02,-2.0623,-2.0824,-2.0951,-2.0865,-2.0602,-2.0104,0.0,0.0,0.0,0.0,0.0,0.0,0.0,0.0,0.0,0.0,-1.6227,-1.6171,-1.5974,-1.5623,-1.5391,-1.5197,-1.4967,-1.4684,-1.4407,-1.4103,-1.3939,-1.3988,-1.4269,-1.4563,-1.4683,-1.4593,-1.4776,-1.4843,-1.4549,-1.4255,-1.4015,-1.3992,-1.409,-1.4118,-1.4131,-1.4476,-1.4935,-1.5583,-1.6664,-1.7656,-1.8404,-1.9339,-1.9824,-1.9622,-1.9421,-1.9271,-1.9152,-1.8891,-1.8652,-1.8514,-1.8134,-1.7672,-1.7398,-1.6679,-1.5891,-1.5309,-1.459,-1.4127,-1.4161,-1.4247,-1.4618,-1.5127,-1.512,-1.4831,-1.4411,-1.4134,-1.3812,-1.3319,-1.3344,-1.3301,-2.7776,-2.7722,-2.6793,-2.6164,-2.5895,-2.5333,-2.5327,-2.57,-2.5275,0.0,0.0,-2.4022,-2.3594,-2.3126,-2.2271,-2.1617,-2.1283,-2.0481,-2.0347,-2.0735,-2.0494,-2.0521,-2.0748,-2.0695,-2.0428,-1.9933,-1.9359,-1.9078,-1.9065,-1.8784,-1.8611,-1.8597,-1.8811,-1.8568,-1.8009,-1.7742,-1.8126,-1.9152,-1.9648,-1.9903,-1.9984,-1.9777,-1.9646,-1.9583,-1.881,-1.7871,-1.6786,-1.6772,-1.6518,-1.5935,-1.5655,-1.5705,-1.6253,-1.5957,-1.5885,-1.6211,-1.6462,-1.6566,-1.6286,-1.5995,-1.5819,-1.5824,-1.54,-1.487,-1.4282,-1.4469,-1.4696,-1.4995,-1.5231,-1.5297,-1.5115,-1.5297,-1.5351,-1.5115,-1.4816,-1.4643,-1.4536,-1.4576,-1.4499,-1.4255,-1.4392,-1.4718,-1.5358,-1.6446,-1.7476,-1.8363,-1.9375,-2.0165,-1.9825,-1.9447,-1.9192,-1.9033,-1.8812,-1.8571,-1.8393,-1.8152,-1.7912,-1.7638,-1.7209,-1.6559,-1.5668,-1.5069,-1.4521,-1.3956,-1.4007,-1.4417,-1.4688,-1.4731,-1.4493,-1.436,-1.3966,-1.3484,-1.2949,-1.308,-1.3117,-2.8083,-2.8043,-2.7223,-2.6236,-2.5175,-2.4956,-2.5025,-2.5212,-2.541,-2.5398,-2.5277,-2.4489,-2.4235,-2.4329,-2.3193,-2.2512,-2.2205,-2.159,-2.1216,-2.1056,-2.1002,-2.1015,-2.1042,-2.0788,-2.0628,-2.0508,-1.996,-1.9679,-1.9639,-1.9386,-1.9118,-1.8891,-1.8905,-1.8568,-1.8009,-1.7742,-1.766,-1.7882,-1.8086,-1.8369,-1.8743,-1.8505,-1.8339,-1.8326,-1.7379,-1.6333,-1.5335,-1.5509,-1.5495,-1.5168,-1.53,-1.5463,-1.5563,-1.5304,-1.5232,-1.5518,-1.5586,-1.5695,-1.5899,-1.5832,-1.5691,-1.5502,-1.5611,-1.5458,-1.4955,-1.4928,-1.4968,-1.5022,-1.5244,-1.5391,-1.5351,-1.5591,-1.5631,-1.5391,-1.5297,-1.5084,-1.4616,-1.4763,-1.479,-1.4496,-1.4496,-1.4753,-1.5419,-1.6219,-1.7005,-1.7699,-1.8701,-1.9322,-1.9348,-1.9165,-1.9069,-1.8953,-1.8674,-1.8491,-1.8353,-1.8152,-1.798,-1.794,-1.7342,-1.6816,-1.6253,-1.5634,-1.5086,-1.4607,-1.4636,-1.4862,-1.5217,-1.5224,-1.481,-1.4406,-1.4109,-1.3639,-1.2749,-1.2758,-1.271,-2.7461,-2.7253,-2.6058,-2.5011,-2.4207,-2.3869,-2.3908,-2.4136,-2.4929,-2.5504,-2.5705,-2.5157,-2.4716,-2.4342,-2.35,-2.2686,-2.1924,-2.151,-2.1243,-2.1109,-2.1109,-2.1189,-2.1336,-2.1216,-2.1052,-2.0668,-2.0414,-2.012,-1.9813,-1.9666,-1.9452,-1.9172,-1.9011,-1.8784,-1.8517,-1.8223,-1.8076,-1.8063,-1.7991,-1.811,-1.8404,-1.816,-1.8001,-1.7925,-1.7046,-1.6242,-1.5491,-1.5404,-1.5271,-1.5022,-1.5097,-1.5231,-1.5391,-1.5418,-1.5565,-1.5858,-1.6019,-1.6166,-1.6299,-1.6299,-1.6179,-1.596,-1.6139,-1.6059,-1.5471,-1.5444,-1.5431,-1.5431,-1.5565,-1.5631,-1.5631,-1.5752,-1.5778,-1.5645,-1.5498,-1.5284,-1.507,-1.511,-1.507,-1.483,-1.491,-1.5102,-1.5513,-1.6287,-1.6919,-1.7505,-1.8262,-1.882,-1.9074,-1.886,-1.8732,-1.8812,-1.8652,-1.8451,-1.8233,-1.8072,-1.7946,-1.7775,-1.7598,-1.7192,-1.6613,-1.6131,-1.5925,-1.5377,-1.505,-1.4955,-1.5245,-1.4695,-1.4289,-1.4149,-1.3763,-1.3249,-1.2727,-1.2424,-1.2178,-2.5835,-2.5726,-2.4333,-2.3371,-2.2774,-2.2244,-2.2244,-2.2624,-2.3752,-2.4485,-2.4918,-2.5191,-2.4895,-2.4182,-2.3535,-2.2677,-2.1793,-2.1305,-2.112,-2.1054,-2.1054,-2.1146,-2.1343,-2.1356,-2.1091,-2.0628,-2.0522,-2.0217,-1.9694,-1.9589,-1.9417,-1.9185,-1.8836,-1.8691,-1.8691,-1.8467,-1.8335,-1.8242,-1.809,-1.8128,-1.8348,-1.8053,-1.7844,-1.7722,-1.7062,-1.6427,-1.5939,-1.5778,-1.5524,-1.519,-1.5263,-1.541,-1.5578,-1.5805,-1.6086,-1.6433,-1.6687,-1.6807,-1.6807,-1.6807,-1.6673,-1.6393,-1.658,-1.6513,-1.6051,-1.5965,-1.5851,-1.5798,-1.5805,-1.5818,-1.5832,-1.5851,-1.5899,-1.5832,-1.5698,-1.5551,-1.5431,-1.5458,-1.5378,-1.5196,-1.5271,-1.5421,-1.5694,-1.6276,-1.6873,-1.7372,-1.783,-1.8284,-1.8722,-1.8523,-1.8325,-1.8516,-1.8602,-1.8491,-1.8152,-1.8031,-1.7929,-1.766,-1.7826,-1.7552,-1.6991,-1.6884,-1.6713,-1.6045,-1.5394,-1.5049,-1.497,-1.4351,-1.3825,-1.3765,-1.343,-1.303,-1.2661,-1.2259,-1.193,-2.3063,-2.288,-2.2449,-2.156,-2.0521,-1.9941,-2.0036,-2.0601,-2.1474,-2.1741,-2.1983,-2.3818,-2.4533,-2.4227,-2.3298,-2.2586,-2.2033,-2.1535,-2.1098,-2.0869,-2.0923,-2.0808,-2.0551,-2.0539,-2.0425,-2.0132,-1.9839,-1.9498,-1.9216,-1.8949,-1.8695,-1.8473,-1.8193,-1.8008,-1.8065,-1.7983,-1.7843,-1.7601,-1.7779,-1.8091,-1.8412,-1.7929,-1.7634,-1.7607,-1.7005,-1.6576,-1.6273,-1.646,-1.6326,-1.5784,-1.6005,-1.6201,-1.6179,-1.6219,-1.6536,-1.7058,-1.7139,-1.7166,-1.7166,-1.7166,-1.7032,-1.6714,-1.67,-1.67,-1.6593,-1.638,-1.6112,-1.5925,-1.5845,-1.5832,-1.5845,-1.6046,-1.6072,-1.5811,-1.5992,-1.604,-1.5551,-1.5631,-1.5685,-1.5391,-1.5364,-1.547,-1.5631,-1.5979,-1.6455,-1.7054,-1.7174,-1.7416,-1.7935,-1.7808,-1.7662,-1.8087,-1.8312,-1.8348,-1.821,-1.8112,-1.7876,-1.7842,-1.7917,-1.7729,-1.7422,-1.7329,-1.7192,-1.6661,-1.5961,-1.5446,-1.4947,-1.4316,-1.3987,-1.3781,-1.3512,-1.3169,-1.2737,-1.2383,-1.2117,-2.1867,-2.178,-2.1098,-2.0115,-1.9084,-1.9057,-1.9231,-1.9638,-2.0414,-2.0714,-2.0671,-2.145,-2.1772,-2.19,-2.144,-2.0877,-2.0244,-2.0108,-1.9796,-1.9438,-1.9415,-1.9277,-1.8979,-1.8967,-1.876,-1.8392,-1.8277,-1.8012,-1.7598,-1.7196,-1.6943,-1.6839,-1.6668,-1.6611,-1.6553,-1.6621,-1.6575,-1.6414,-1.6938,-1.7465,-1.7862,-1.7857,-1.7861,-1.7782,-1.7448,-1.7139,-1.6871,-1.674,-1.6593,-1.6366,-1.6473,-1.6526,-1.6526,-1.675,-1.6951,-1.7192,-1.7367,-1.746,-1.7408,-1.746,-1.7326,-1.6981,-1.7128,-1.7088,-1.6754,-1.6754,-1.671,-1.6366,-1.6032,-1.5832,-1.5811,-1.5939,-1.5904,-1.5858,-1.5939,-1.5912,-1.5698,-1.5752,-1.5725,-1.5444,-1.5391,-1.537,-1.5354,-1.5513,-1.5822,-1.6195,-1.6276,-1.6461,-1.6799,-1.6743,-1.6875,-1.7043,-1.708,-1.7227,-1.7514,-1.7424,-1.7261,-1.7261,-1.7383,-1.7439,-1.7661,-1.7451,-1.7298,-1.7256,-1.6456,-1.5805,-1.5463,-1.4846,-1.4384,-1.4147,-1.4037,-1.383,-1.3445,-1.3025,-1.2653,-2.024,-2.0143,-1.9397,-1.8688,-1.7949,-1.82,-1.8438,-1.8591,-1.9025,-1.9237,-1.9085,-1.8823,-1.8775,-1.9094,-1.946,-1.9329,-1.8706,-1.8674,-1.8502,-1.8131,-1.811,-1.7913,-1.7633,-1.7623,-1.7391,-1.7002,-1.6939,-1.6697,-1.6234,-1.5771,-1.555,-1.5519,-1.5389,-1.5332,-1.5364,-1.5495,-1.5537,-1.553,-1.6145,-1.6842,-1.7351,-1.7774,-1.7999,-1.8207,-1.7996,-1.7782,-1.7568,-1.7315,-1.7154,-1.7074,-1.7074,-1.7074,-1.7023,-1.7275,-1.7487,-1.7528,-1.7716,-1.7796,-1.7716,-1.7716,-1.7622,-1.7435,-1.7595,-1.7569,-1.7301,-1.7315,-1.7288,-1.7088,-1.6507,-1.6166,-1.6037,-1.6139,-1.6166,-1.6037,-1.6011,-1.6046,-1.5965,-1.5899,-1.5704,-1.5551,-1.5458,-1.5324,-1.5177,-1.5305,-1.5524,-1.5576,-1.5564,-1.565,-1.5782,-1.5973,-1.6006,-1.6124,-1.5964,-1.6055,-1.6547,-1.6509,-1.6402,-1.6402,-1.655,-1.6876,-1.7432,-1.7185,-1.7226,-1.7196,-1.6433,-1.5959,-1.5668,-1.5206,-1.4745,-1.4676,-1.4544,-1.428,-1.3835,-1.3435,-1.2983,-1.755,-1.7606,-1.7353,-1.7263,-1.7175,-1.7159,-1.7077,-1.7079,-1.7062,-1.6881,-1.6643,-1.6427,-1.6171,-1.6262,-1.7845,-1.839,-1.7903,-1.7639,-1.748,-1.7248,-1.7228,-1.7167,-1.6965,-1.6945,-1.6664,-1.6102,-1.6082,-1.5909,-1.5513,-1.5124,-1.4943,-1.4882,-1.4641,-1.458,-1.461,-1.4791,-1.4943,-1.4791,-1.5371,-1.6226,-1.7015,-1.7483,-1.7947,-1.856,-1.8611,-1.8395,-1.841,-1.841,-1.8263,-1.7929,-1.7862,-1.7916,-1.7916,-1.7929,-1.8049,-1.8288,-1.841,-1.8249,-1.8009,-1.7915,-1.7901,-1.7942,-1.7888,-1.8062,-1.8101,-1.8009,-1.7889,-1.7916,-1.7358,-1.6937,-1.6746,-1.6837,-1.6914,-1.665,-1.666,-1.6553,-1.6299,-1.6002,-1.5811,-1.5704,-1.5431,-1.5272,-1.5305,-1.5444,-1.5408,-1.5378,-1.5248,-1.527,-1.5536,-1.5478,-1.544,-1.5456,-1.5267,-1.5077,-1.5578,-1.5587,-1.5477,-1.5519,-1.5684,-1.6031,-1.6399,-1.6718,-1.6987,-1.7091,-1.6471,-1.6037,-1.5786,-1.5428,-1.5002,-1.4799,-1.4714,-1.443,-1.399,-1.3413,-1.2953,-1.7315,-1.7193,-1.7023,-1.695,-1.6933,-1.6828,-1.6795,-1.6758,-1.673,-1.6609,-1.6422,-1.6056,-1.5772,-1.5665,-1.6087,-1.6183,-1.6042,-1.5856,-1.56,-1.5318,-1.5291,-1.5185,-1.5009,-1.5,-1.4798,-1.4578,-1.4534,-1.4332,-1.4011,-1.3623,-1.3437,-1.3384,-1.3119,-1.296,-1.2978,-1.3031,-1.3013,-1.2995,-1.3747,-1.4471,-1.5176,-1.5772,-1.6396,-1.7121,-1.8164,-1.859,-1.8352,-1.8339,-1.821,-1.794,-1.7927,-1.7837,-1.7682,-1.7656,-1.775,-1.7854,-1.7867,-1.7828,-1.7669,-1.7669,-1.7656,-1.7656,-1.7656,-1.7708,-1.7883,-1.7942,-1.7987,-1.7961,-1.7853,-1.7631,-1.7528,-1.7292,-1.7069,-1.699,-1.6951,-1.6832,-1.6596,-1.6275,-1.5929,-1.5399,-1.4921,-1.4689,-1.4882,-1.4939,-1.4914,-1.4984,-1.4927,-1.4879,-1.4819,-1.4731,-1.4744,-1.472,-1.4495,-1.4286,-1.4432,-1.4572,-1.4559,-1.4685,-1.4866,-1.5526,-1.5997,-1.5975,-1.6134,-1.6537,-1.6152,-1.552,-1.5108,-1.4925,-1.4651,-1.4616,-1.4553,-1.4316,-1.4077,-1.3364,-1.2883,-1.7331,-1.7112,-1.6982,-1.6814,-1.6758,-1.6722,-1.6706,-1.6755,-1.6633,-1.6519,-1.6341,-1.5951,-1.565,-1.5407,-1.5098,-1.5045,-1.4944,-1.4781,-1.4546,-1.427,-1.4205,-1.4115,-1.4002,-1.3928,-1.3815,-1.3652,-1.3579,-1.3384,-1.31,-1.28,-1.2629,-1.2604,-1.2264,-1.2085,-1.1982,-1.1966,-1.1963,-1.2053,-1.2702,-1.3439,-1.3964,-1.4697,-1.5436,-1.6108,-1.7275,-1.7875,-1.7733,-1.7721,-1.7601,-1.7432,-1.7384,-1.724,-1.6927,-1.6879,-1.6879,-1.6879,-1.6879,-1.6879,-1.6879,-1.6879,-1.6879,-1.6879,-1.6879,-1.6936,-1.7163,-1.756,-1.7899,-1.8056,-1.8035,-1.7996,-1.7905,-1.7502,-1.7178,-1.7326,-1.7315,-1.7146,-1.6873,-1.6523,-1.591,-1.5223,-1.479,-1.4625,-1.4604,-1.4599,-1.4691,-1.4723,-1.464,-1.4496,-1.4352,-1.4292,-1.4303,-1.4282,-1.4235,-1.4058,-1.4063,-1.4107,-1.405,-1.4053,-1.4223,-1.4909,-1.5372,-1.5312,-1.5383,-1.5763,-1.5543,-1.4844,-1.4444,-1.432,-1.4238,-1.4238,-1.4109,-1.3894,-1.3576,-1.3201,-1.2708,-1.7429,-1.7145,-1.7104,-1.6974,-1.6741,-1.6701,-1.6722,-1.6584,-1.6568,-1.6389,-1.6137,-1.5861,-1.5593,-1.5277,-1.5065,-1.5045,-1.4935,-1.4806,-1.4627,-1.4432,-1.4286,-1.4205,-1.4148,-1.4002,-1.3855,-1.3693,-1.349,-1.3311,-1.3165,-1.297,-1.2783,-1.2596,-1.2442,-1.2272,-1.1999,-1.2085,-1.2044,-1.2139,-1.2536,-1.3202,-1.4025,-1.4521,-1.5079,-1.5729,-1.5903,-1.6113,-1.6403,-1.6518,-1.6577,-1.6382,-1.6349,-1.6093,-1.5764,-1.5758,-1.5639,-1.5725,-1.5677,-1.5618,-1.5655,-1.5692,-1.5671,-1.5671,-1.5655,-1.5906,-1.6423,-1.702,-1.7615,-1.7985,-1.7963,-1.7894,-1.7799,-1.7416,-1.7272,-1.7815,-1.7624,-1.7432,-1.7159,-1.6638,-1.5948,-1.5202,-1.4902,-1.4908,-1.4722,-1.4646,-1.4712,-1.4689,-1.4508,-1.4352,-1.4304,-1.4304,-1.4326,-1.4343,-1.4254,-1.4135,-1.3957,-1.3786,-1.362,-1.3566,-1.3756,-1.4164,-1.4685,-1.4778,-1.4839,-1.5108,-1.4602,-1.3947,-1.3579,-1.3462,-1.3462,-1.3462,-1.3426,-1.3368,-1.2989,-1.2636,-1.2305,-1.751,-1.7274,-1.7031,-1.6828,-1.6657,-1.6527,-1.6438,-1.6389,-1.6389,-1.6324,-1.6178,-1.5902,-1.5642,-1.5398,-1.5114,-1.5045,-1.5037,-1.4903,-1.4797,-1.4635,-1.4562,-1.4408,-1.4213,-1.4123,-1.4058,-1.3993,-1.3823,-1.3709,-1.3595,-1.3344,-1.3165,-1.3076,-1.2808,-1.2653,-1.2491,-1.2353,-1.2223,-1.2239,-1.2521,-1.2822,-1.32,-1.3509,-1.3802,-1.4002,-1.4002,-1.398,-1.4056,-1.5326,-1.5987,-1.5772,-1.5824,-1.569,-1.5391,-1.533,-1.5248,-1.5174,-1.5083,-1.5011,-1.4948,-1.4867,-1.4888,-1.4867,-1.4867,-1.5105,-1.5521,-1.6124,-1.6667,-1.702,-1.6985,-1.695,-1.6926,-1.6646,-1.6667,-1.7403,-1.7555,-1.7444,-1.7044,-1.6287,-1.5531,-1.4949,-1.479,-1.4789,-1.4692,-1.4667,-1.4619,-1.4594,-1.4425,-1.4268,-1.4304,-1.4256,-1.4388,-1.4529,-1.4415,-1.4254,-1.4085,-1.3875,-1.3623,-1.3415,-1.3489,-1.3545,-1.3978,-1.4255,-1.4323,-1.4182,-1.3655,-1.3255,-1.2889,-1.2778,-1.282,-1.2751,-1.2714,-1.2553,-1.2305,-1.2046,-1.1774,-1.7607,-1.7372,-1.7145,-1.6901,-1.6682,-1.6552,-1.6422,-1.6316,-1.63,-1.6227,-1.6073,-1.5878,-1.5675,-1.5496,-1.5268,-1.513,-1.5082,-1.5139,-1.5074,-1.4895,-1.4749,-1.4578,-1.4375,-1.4294,-1.427,-1.4237,-1.4091,-1.3969,-1.3888,-1.362,-1.3441,-1.3327,-1.3076,-1.2889,-1.2824,-1.2556,-1.2377,-1.2345,-1.2475,-1.2621,-1.2743,-1.2905,-1.2994,-1.2994,-1.2994,-1.2938,-1.2906,-1.4137,-1.4688,-1.4501,-1.4407,-1.4304,-1.412,-1.4101,-1.4054,-1.3952,-1.3905,-1.3858,-1.3737,-1.3563,-1.3545,-1.3545,-1.3414,-1.3545,-1.3962,-1.462,-1.5104,-1.5537,-1.5632,-1.5639,-1.5579,-1.5256,-1.528,-1.5613,-1.6488,-1.6782,-1.6393,-1.5551,-1.4875,-1.4422,-1.4279,-1.4221,-1.4209,-1.4209,-1.4202,-1.412,-1.4068,-1.3941,-1.3906,-1.3908,-1.4112,-1.4244,-1.4183,-1.4121,-1.4232,-1.3981,-1.3634,-1.3411,-1.3239,-1.3262,-1.3477,-1.3596,-1.3652,-1.3449,-1.3027,-1.2739,-1.2376,-1.2427,-1.2439,-1.2258,-1.2128,-1.2014,-1.1889,-1.1651,-1.1403,-1.7721,-1.7429,-1.7388,-1.7169,-1.6877,-1.6741,-1.6617,-1.6332,-1.63,-1.6129,-1.5869,-1.5796,-1.5691,-1.5561,-1.548,-1.5374,-1.5301,-1.539,-1.5382,-1.5187,-1.4968,-1.4781,-1.4684,-1.4529,-1.4448,-1.4424,-1.4294,-1.4131,-1.3985,-1.379,-1.3579,-1.3433,-1.3254,-1.3043,-1.2913,-1.2694,-1.2532,-1.2434,-1.2523,-1.2605,-1.271,-1.2791,-1.2881,-1.2815,-1.2823,-1.2881,-1.284,-1.303,-1.2955,-1.2653,-1.2722,-1.2728,-1.248,-1.2337,-1.2551,-1.2573,-1.2384,-1.2422,-1.2296,-1.2239,-1.2059,-1.1988,-1.1736,-1.1474,-1.2357,-1.3011,-1.3572,-1.407,-1.4194,-1.416,-1.4061,-1.3733,-1.3416,-1.337,-1.4824,-1.5456,-1.4944,-1.4426,-1.3983,-1.3686,-1.3465,-1.3337,-1.3337,-1.3326,-1.3231,-1.3153,-1.3218,-1.3237,-1.3188,-1.3253,-1.3505,-1.3568,-1.3556,-1.349,-1.3423,-1.3228,-1.2825,-1.2483,-1.249,-1.2729,-1.2899,-1.3057,-1.2866,-1.2626,-1.2412,-1.2103,-1.2015,-1.2016,-1.2023,-1.1963,-1.18,-1.1701,-1.1538,-1.1326,-1.1116,-1.7859,-1.7754,-1.7502,-1.725,-1.7039,-1.6822,-1.6564,-1.6324,-1.6308,-1.6103,-1.5893,-1.5829,-1.5756,-1.5691,-1.5577,-1.5488,-1.5392,-1.5424,-1.5504,-1.5439,-1.5366,-1.5139,-1.4911,-1.4724,-1.4635,-1.4627,-1.4562,-1.4473,-1.4294,-1.4099,-1.3928,-1.3758,-1.3563,-1.3392,-1.323,-1.3035,-1.2873,-1.2726,-1.2735,-1.2832,-1.2929,-1.2994,-1.3027,-1.3027,-1.3027,-1.2962,-1.279,-1.2766,-1.2758,-1.2775,-1.2726,-1.2702,-1.2678,-1.2605,-1.2548,-1.2515,-1.2491,-1.2314,-1.2028,-1.1814,-1.168,-1.1419,-1.1258,-1.1348,-1.1791,-1.2225,-1.2595,-1.2963,-1.31,-1.3091,-1.302,-1.2736,-1.2493,-1.2656,-1.3476,-1.3898,-1.3588,-1.3212,-1.2929,-1.2452,-1.2351,-1.2394,-1.2375,-1.2365,-1.2326,-1.2343,-1.238,-1.2465,-1.2405,-1.2576,-1.2786,-1.2631,-1.2579,-1.2513,-1.2463,-1.2263,-1.1937,-1.1446,-1.1557,-1.2034,-1.2314,-1.2626,-1.2265,-1.182,-1.1595,-1.1308,-1.1414,-1.145,-1.1483,-1.1734,-1.1964,-1.2008,-1.1462,-1.1124,-1.088,-1.7335,-1.7256,-1.7061,-1.6834,-1.6606,-1.6505,-1.6262,-1.5964,-1.5855,-1.573,-1.5565,-1.5385,-1.5307,-1.5299,-1.5213,-1.5127,-1.508,-1.5135,-1.5127,-1.5072,-1.5056,-1.5019,-1.5037,-1.4903,-1.4814,-1.4806,-1.4741,-1.4651,-1.4513,-1.4302,-1.4123,-1.3977,-1.3766,-1.3595,-1.3465,-1.3222,-1.3051,-1.2962,-1.2946,-1.3003,-1.3092,-1.3173,-1.3149,-1.3141,-1.3157,-1.3157,-1.3068,-1.3059,-1.3003,-1.2815,-1.2766,-1.2766,-1.2766,-1.2642,-1.2586,-1.2482,-1.2352,-1.211,-1.1846,-1.1687,-1.1429,-1.1242,-1.1106,-1.1106,-1.1242,-1.1486,-1.1679,-1.1816,-1.1872,-1.1872,-1.1793,-1.1626,-1.1535,-1.1532,-1.1829,-1.2149,-1.2463,-1.2364,-1.2089,-1.1786,-1.1623,-1.159,-1.1529,-1.1566,-1.1468,-1.1398,-1.1467,-1.1524,-1.1596,-1.1822,-1.2,-1.1834,-1.1868,-1.1892,-1.1794,-1.1629,-1.1337,-1.0792,-1.0796,-1.1251,-1.1639,-1.2034,-1.1727,-1.1241,-1.0833,-1.0633,-1.0815,-1.1101,-1.1617,-1.1864,-1.2213,-1.2079,-1.1528,-1.0774,-1.0562,-1.6591,-1.6372,-1.6357,-1.6088,-1.5845,-1.5786,-1.5661,-1.5394,-1.5302,-1.5131,-1.4952,-1.4803,-1.4803,-1.4713,-1.4825,-1.4706,-1.4593,-1.4773,-1.4683,-1.4608,-1.4622,-1.4704,-1.5019,-1.4943,-1.4855,-1.4891,-1.4738,-1.4657,-1.4552,-1.4301,-1.4148,-1.389,-1.3642,-1.3552,-1.3448,-1.3259,-1.3165,-1.3133,-1.3124,-1.3089,-1.3078,-1.3158,-1.3066,-1.2918,-1.2998,-1.3154,-1.317,-1.3255,-1.3098,-1.2778,-1.2855,-1.2863,-1.2781,-1.2507,-1.2375,-1.2301,-1.2094,-1.1873,-1.1755,-1.1475,-1.1276,-1.1157,-1.0965,-1.0765,-1.0898,-1.0958,-1.1031,-1.1098,-1.0751,-1.0902,-1.0861,-1.0647,-1.0716,-1.0718,-1.0607,-1.0915,-1.1524,-1.1608,-1.1395,-1.1296,-1.1118,-1.0944,-1.0801,-1.0763,-1.0667,-1.0429,-1.0534,-1.0638,-1.076,-1.093,-1.1081,-1.1132,-1.1209,-1.1356,-1.1214,-1.1063,-1.0674,-1.0314,-1.0305,-1.0557,-1.0922,-1.1156,-1.1079,-1.0756,-1.0148,-1.0028,-1.0307,-1.0761,-1.1346,-1.1702,-1.182,-1.1752,-1.1468,-1.0606,-1.0117,-1.6471,-1.5968,-1.5939,-1.5569,-1.5195,-1.525,-1.5216,-1.5015,-1.5205,-1.5064,-1.4927,-1.4845,-1.4757,-1.4721,-1.4645,-1.4691,-1.4579,-1.4616,-1.4691,-1.4661,-1.4527,-1.4541,-1.4624,-1.4632,-1.4719,-1.4742,-1.4838,-1.4694,-1.433,-1.416,-1.3847,-1.3386,-1.3527,-1.3491,-1.3255,-1.3448,-1.3449,-1.3344,-1.3311,-1.3178,-1.3043,-1.2934,-1.2826,-1.2506,-1.2544,-1.2551,-1.261,-1.2801,-1.2831,-1.2865,-1.3011,-1.3066,-1.2838,-1.2686,-1.2467,-1.2233,-1.203,-1.1887,-1.1697,-1.1504,-1.1354,-1.1234,-1.1098,-1.1063,-1.107,-1.105,-1.1056,-1.1043,-1.0968,-1.0793,-1.0765,-1.0704,-1.0677,-1.0643,-1.0541,-1.0596,-1.0841,-1.0749,-1.0695,-1.0564,-1.0403,-1.0165,-0.9964,-0.9973,-0.9816,-0.9574,-0.9628,-0.9806,-0.9944,-1.0124,-1.0307,-1.0601,-1.0621,-1.071,-1.0678,-1.0456,-1.011,-0.9845,-0.9796,-0.9822,-1.0168,-1.0315,-1.0223,-0.9822,-0.9279,-0.9385,-0.9615,-1.0105,-1.0589,-1.0994,-1.1348,-1.1187,-1.0868,-1.0158,-0.9688,-1.565,-1.516,-1.4361,-1.3986,-1.3805,-1.3609,-1.3707,-1.4013,-1.4566,-1.4671,-1.4522,-1.4444,-1.4315,-1.418,-1.4166,-1.4137,-1.4149,-1.4059,-1.4059,-1.4038,-1.3974,-1.3945,-1.4059,-1.4179,-1.4313,-1.4547,-1.4431,-1.4298,-1.4228,-1.3907,-1.3619,-1.3237,-1.3384,-1.349,-1.3426,-1.35,-1.3506,-1.3558,-1.34,-1.3238,-1.3146,-1.2896,-1.2772,-1.2492,-1.2429,-1.2503,-1.2745,-1.2837,-1.2911,-1.3004,-1.3111,-1.3021,-1.2666,-1.2444,-1.22,-1.1971,-1.1722,-1.1625,-1.1461,-1.1379,-1.1282,-1.1234,-1.1234,-1.1234,-1.1234,-1.1234,-1.1234,-1.1151,-1.109,-1.1009,-1.0934,-1.0853,-1.0839,-1.0732,-1.069,-1.067,-1.0731,-1.0507,-1.0374,-1.0324,-1.0292,-1.006,-0.9836,-0.9774,-0.9578,-0.9551,-0.9467,-0.9646,-0.9686,-0.9876,-0.9966,-1.0124,-1.0078,-1.0077,-1.0107,-0.9912,-0.9494,-0.9274,-0.9226,-0.9223,-0.9389,-0.9395,-0.9384,-0.9037,-0.8718,-0.8581,-0.8872,-0.9371,-0.9848,-1.0244,-1.0448,-1.0425,-1.0206,-0.9611,-0.9225,-1.4591,-1.379,-1.2387,-1.2004,-1.198,-1.1672,-1.1922,-1.2633,-1.3556,-1.3914,-1.3874,-1.3667,-1.3521,-1.3394,-1.3361,-1.3288,-1.3271,-1.3231,-1.3231,-1.3224,-1.3217,-1.3211,-1.3253,-1.3356,-1.3675,-1.4207,-1.4079,-1.4082,-1.4036,-1.3838,-1.3501,-1.3322,-1.3258,-1.3312,-1.3519,-1.3444,-1.3395,-1.3547,-1.3239,-1.3049,-1.3092,-1.2877,-1.2711,-1.2611,-1.2547,-1.2619,-1.2699,-1.2904,-1.2984,-1.3058,-1.289,-1.267,-1.2386,-1.2028,-1.1719,-1.1726,-1.1504,-1.1372,-1.1413,-1.133,-1.1323,-1.1302,-1.1274,-1.126,-1.1267,-1.1274,-1.128,-1.1253,-1.1226,-1.1179,-1.1158,-1.105,-1.0975,-1.0867,-1.0833,-1.0853,-1.0846,-1.0602,-1.0521,-1.0534,-1.0514,-1.0344,-1.0127,-0.9992,-0.9754,-0.9557,-0.949,-0.9446,-0.9545,-0.9638,-0.9775,-0.9846,-0.9834,-0.9913,-0.9899,-0.9565,-0.9175,-0.8947,-0.8823,-0.867,-0.8726,-0.8706,-0.8693,-0.8567,-0.8325,-0.8226,-0.8294,-0.8714,-0.9121,-0.9499,-0.9679,-0.9776,-0.9468,-0.9022,-0.8747,-1.3081,-1.1597,-1.1109,-1.0338,-0.9779,-1.0221,-1.061,-1.14,-1.2438,-1.3041,-1.2848,-1.2817,-1.2576,-1.241,-1.2445,-1.2365,-1.2093,-1.1979,-1.2069,-1.2069,-1.2069,-1.2069,-1.2038,-1.1946,-1.2244,-1.299,-1.3262,-1.3504,-1.3721,-1.3634,-1.3105,-1.2943,-1.2958,-1.3061,-1.3083,-1.3118,-1.3081,-1.3145,-1.2932,-1.2838,-1.264,-1.2465,-1.229,-1.2153,-1.2167,-1.2257,-1.2299,-1.245,-1.2478,-1.2457,-1.2201,-1.2118,-1.2056,-1.2021,-1.1902,-1.1738,-1.1521,-1.145,-1.1525,-1.1545,-1.1545,-1.1572,-1.1626,-1.1633,-1.1572,-1.1545,-1.1545,-1.1518,-1.1436,-1.1328,-1.1248,-1.1179,-1.1084,-1.1023,-1.1023,-1.1036,-1.0968,-1.0813,-1.0799,-1.0826,-1.0785,-1.0683,-1.0405,-1.0209,-1.0066,-0.9883,-0.9754,-0.9605,-0.9552,-0.9559,-0.9631,-0.9698,-0.9706,-0.9754,-0.9841,-0.935,-0.8974,-0.8799,-0.8598,-0.8222,-0.8237,-0.8131,-0.8076,-0.8028,-0.8014,-0.793,-0.807,-0.8298,-0.8494,-0.8871,-0.8996,-0.911,-0.8839,-0.8551,-0.839,-1.0606,-0.9596,-0.8668,-0.8094,-0.778,-0.7794,-0.8297,-0.9101,-1.0129,-1.0578,-1.0497,-1.0549,-1.0432,-1.0184,-1.0223,-1.0077,-1.008,-0.9971,-0.9976,-0.9976,-0.9976,-0.9971,-1.006,-0.9911,-0.9978,-1.0205,-1.0732,-1.185,-1.2722,-1.2622,-1.2362,-1.2198,-1.222,-1.2271,-1.2397,-1.236,-1.2449,-1.2426,-1.2289,-1.2094,-1.2005,-1.1788,-1.1577,-1.1476,-1.1465,-1.1536,-1.158,-1.1682,-1.1682,-1.1624,-1.1399,-1.136,-1.1427,-1.159,-1.1769,-1.1816,-1.1769,-1.1755,-1.183,-1.185,-1.185,-1.1857,-1.1918,-1.1918,-1.187,-1.185,-1.1837,-1.1823,-1.1809,-1.1714,-1.166,-1.1484,-1.1375,-1.1301,-1.1233,-1.1179,-1.1158,-1.1104,-1.1008,-1.0975,-1.0806,-1.0644,-1.0541,-1.0399,-1.0351,-1.0222,-0.9984,-0.9842,-0.9625,-0.9631,-0.9695,-0.9792,-0.9865,-0.9868,-0.9886,-0.9438,-0.9008,-0.8758,-0.8477,-0.811,-0.7829,-0.7792,-0.7755,-0.7698,-0.7661,-0.7466,-0.7938,-0.8174,-0.8229,-0.8297,-0.8464,-0.856,-0.8302,-0.808,-0.7991,-0.8373,-0.7703,-0.6395,-0.6007,-0.6073,-0.5769,-0.6105,-0.6988,-0.7967,-0.8373,-0.8221,-0.8277,-0.8275,-0.8061,-0.7993,-0.7945,-0.7718,-0.7801,-0.7885,-0.7885,-0.7968,-0.7801,-0.7801,-0.7737,-0.7997,-0.816,-0.8152,-0.899,-1.0672,-1.0882,-1.0877,-1.0698,-1.0678,-1.0844,-1.0975,-1.0676,-1.1093,-1.0972,-1.0818,-1.066,-1.0603,-1.0449,-1.0272,-1.016,-1.0244,-1.0207,-1.0151,-1.0106,-1.0067,-1.0069,-1.0019,-1.0019,-1.0357,-1.0755,-1.1292,-1.1802,-1.2019,-1.2067,-1.206,-1.2094,-1.2067,-1.202,-1.2155,-1.2162,-1.2047,-1.2013,-1.2033,-1.206,-1.204,-1.202,-1.1938,-1.173,-1.1516,-1.1344,-1.1184,-1.1078,-1.099,-1.0977,-1.0981,-1.0875,-1.0738,-1.0645,-1.0511,-1.0568,-1.0521,-1.046,-1.029,-1.0073,-0.9863,-0.988,-0.9929,-1.0082,-1.0152,-1.0125,-0.9972,-0.9588,-0.9197,-0.8885,-0.8529,-0.8211,-0.7801,-0.7522,-0.74,-0.7141,-0.6798,-0.6731,-0.7357,-0.7982,-0.8076,-0.8126,-0.8076,-0.8065,-0.809,-0.8007,-0.7911,-0.7033,-0.5943,-0.5493,-0.5024,-0.4686,-0.4979,-0.5421,-0.5915,-0.6806,-0.7342,-0.7126,-0.7166,-0.7003,-0.6911,-0.6792,-0.6825,-0.6724,-0.6643,-0.6472,-0.6469,-0.655,-0.6553,-0.6731,-0.6877,-0.6639,-0.6558,-0.6649,-0.7443,-0.8282,-0.8427,-0.854,-0.8632,-0.8596,-0.8397,-0.8716,-0.8659,-0.8046,-0.7959,-0.7949,-0.7949,-0.7968,-0.8102,-0.8106,-0.8072,-0.812,-0.8145,-0.8171,-0.8098,-0.7942,-0.7844,-0.7654,-0.7966,-0.8701,-0.9489,-1.037,-1.1207,-1.1782,-1.206,-1.2115,-1.2196,-1.2223,-1.2169,-1.2203,-1.2251,-1.2149,-1.2115,-1.2115,-1.206,-1.2081,-1.2101,-1.2094,-1.1636,-1.1338,-1.097,-1.069,-1.0425,-1.0371,-1.0144,-1.0227,-1.0586,-1.0372,-1.0396,-1.0404,-1.0545,-1.0683,-1.0622,-1.0521,-1.0233,-1.0017,-0.9897,-0.9847,-0.99,-0.9953,-0.9915,-0.9657,-0.9332,-0.9042,-0.8776,-0.8467,-0.8059,-0.7562,-0.7079,-0.6683,-0.6411,-0.6018,-0.6119,-0.6802,-0.7352,-0.7777,-0.8053,-0.8196,-0.8146,-0.8008,-0.7948,-0.7874,-0.4611,-0.413,-0.3986,-0.3711,-0.3595,-0.3789,-0.3966,-0.422,-0.4574,-0.4738,-0.4711,-0.469,-0.465,-0.4684,-0.4553,-0.444,-0.4418,-0.4581,-0.448,-0.4546,-0.4544,-0.4471,-0.4411,-0.4436,-0.4453,-0.4738,-0.4571,-0.448,-0.5378,-0.6589,-0.7325,-0.7252,-0.7082,-0.7181,-0.6926,-0.6926,-0.6886,-0.6813,-0.6769,-0.6769,-0.6731,-0.6781,-0.681,-0.6854,-0.6813,-0.6751,-0.6682,-0.6681,-0.6553,-0.657,-0.6433,-0.6664,-0.7528,-0.8521,-0.9552,-1.0236,-1.1282,-1.196,-1.2289,-1.2309,-1.2289,-1.2345,-1.2372,-1.2379,-1.2325,-1.2305,-1.2305,-1.2311,-1.2311,-1.2311,-1.2215,-1.1799,-1.1108,-1.0568,-0.9866,-0.9224,-0.8991,-0.9181,-0.9223,-0.9669,-1.0017,-0.9924,-0.9835,-0.9807,-0.9802,-0.9783,-0.9672,-0.9546,-0.9456,-0.9565,-0.9538,-0.9566,-0.9535,-0.9523,-0.9193,-0.887,-0.8468,-0.8196,-0.8015,-0.7539,-0.699,-0.6526,-0.5983,-0.5506,-0.5107,-0.5422,-0.619,-0.6869,-0.7388,-0.7894,-0.8347,-0.8236,-0.8162,-0.8008,-0.7901,-0.2874,-0.2874,-0.2882,-0.2881,-0.2875,-0.2882,-0.2971,-0.2964,-0.2964,-0.2951,-0.2842,-0.292,-0.2899,-0.2788,-0.2953,-0.3112,-0.2836,-0.275,-0.2736,-0.2721,-0.2717,-0.2895,-0.3081,-0.292,-0.2943,-0.2784,-0.3226,-0.3226,-0.3642,-0.455,-0.5529,-0.5693,-0.5414,-0.5471,-0.5524,-0.5374,-0.5207,-0.5186,-0.5134,-0.5222,-0.5216,-0.5228,-0.5308,-0.5283,-0.5402,-0.5361,-0.5327,-0.5234,-0.5134,-0.5091,-0.4987,-0.5143,-0.5907,-0.6963,-0.7893,-0.8702,-0.9626,-1.0401,-1.1004,-1.1444,-1.2148,-1.2291,-1.2265,-1.2102,-1.2226,-1.2284,-1.2284,-1.2135,-1.2226,-1.2226,-1.2109,-1.1528,-1.0568,-0.9628,-0.878,-0.7911,-0.7301,-0.7572,-0.8197,-0.8923,-0.9139,-0.8977,-0.8865,-0.8793,-0.8825,-0.8859,-0.8856,-0.8689,-0.864,-0.8632,-0.8381,-0.8211,-0.8121,-0.8059,-0.7887,-0.7687,-0.7494,-0.7436,-0.7274,-0.6872,-0.6205,-0.5571,-0.4964,-0.4501,-0.4133,-0.4189,-0.4525,-0.5785,-0.7067,-0.7494,-0.7893,-0.824,-0.8262,-0.8026,-0.77,-0.2874,-0.2876,-0.2901,-0.2897,-0.2876,-0.2902,-0.2897,-0.2875,-0.2874,-0.2872,-0.2863,-0.2842,-0.2816,-0.2795,-0.2793,-0.2789,-0.2781,-0.2781,-0.2774,-0.2773,-0.2774,-0.2758,-0.2765,-0.2782,-0.2806,-0.2795,-0.2816,-0.283,-0.2823,-0.3248,-0.3414,-0.3073,-0.372,-0.331,-0.3371,-0.3632,-0.3548,-0.3493,-0.3428,-0.3358,-0.3268,-0.319,-0.3193,-0.3089,-0.2995,-0.2812,-0.2836,-0.3169,-0.3252,-0.3224,-0.3294,-0.3536,-0.444,-0.534,-0.6264,-0.7037,-0.7888,-0.8446,-0.8813,-1.0164,-1.1394,-1.1524,-1.1396,-1.1116,-1.1101,-1.1342,-1.1439,-1.1255,-1.1072,-1.1261,-1.0969,-1.0487,-0.9349,-0.8316,-0.7294,-0.6456,-0.5978,-0.6131,-0.6849,-0.795,-0.816,-0.7804,-0.7456,-0.7268,-0.7371,-0.7418,-0.7328,-0.7259,-0.7012,-0.6873,-0.6642,-0.6437,-0.6344,-0.6232,-0.6082,-0.6038,-0.6192,-0.6226,-0.603,-0.572,-0.5196,-0.4576,-0.4074,-0.3543,-0.316,-0.3032,-0.312,-0.4611,-0.5964,-0.6879,-0.7434,-0.7416,-0.7331,-0.6998,-0.6882,-0.2874,-0.2876,-0.2904,-0.29,-0.2875,-0.2886,-0.2885,-0.2875,-0.2874,-0.2874,-0.2874,-0.2861,-0.2851,-0.284,-0.2837,-0.2827,-0.2814,-0.2811,-0.2801,-0.2788,-0.278,-0.2776,-0.2784,-0.2801,-0.2821,-0.2822,-0.2855,-0.2882,-0.2882,-0.287,-0.2896,-0.2889,-0.2826,-0.2796,-0.277,-0.2742,-0.2682,-0.266,-0.266,-0.2667,-0.2661,-0.2645,-0.2559,-0.2631,-0.2586,-0.2581,-0.265,-0.2579,-0.2577,-0.2571,-0.2568,-0.2898,-0.3397,-0.4304,-0.4979,-0.5581,-0.6423,-0.6776,-0.7013,-0.8311,-0.9116,-0.9158,-0.9097,-0.9126,-0.9403,-0.9154,-0.9116,-0.9059,-0.9249,-0.943,-0.8974,-0.8362,-0.7584,-0.6634,-0.5842,-0.4978,-0.4694,-0.4876,-0.5385,-0.642,-0.6459,-0.6232,-0.5892,-0.5478,-0.57,-0.5909,-0.5851,-0.573,-0.5513,-0.5377,-0.5174,-0.5056,-0.5033,-0.5003,-0.4882,-0.4946,-0.5022,-0.4959,-0.484,-0.4555,-0.4154,-0.388,-0.3396,-0.2793,-0.2462,-0.248,-0.2911,-0.382,-0.4828,-0.5693,-0.6098,-0.6266,-0.6096,-0.6013,-0.5923,-0.2879,-0.2889,-0.2908,-0.2905,-0.2889,-0.2896,-0.2894,-0.2887,-0.2887,-0.2881,-0.2875,-0.2874,-0.2874,-0.2874,-0.2872,-0.2863,-0.2845,-0.2841,-0.2829,-0.2822,-0.2815,-0.2806,-0.281,-0.2822,-0.284,-0.2845,-0.2872,-0.2898,-0.2896,-0.2923,-0.2927,-0.2905,-0.2864,-0.2829,-0.2815,-0.2766,-0.2725,-0.271,-0.2716,-0.2703,-0.2694,-0.2673,-0.257,-0.2563,-0.2609,-0.2602,-0.2613,-0.2624,-0.2632,-0.263,-0.2628,-0.2793,-0.3213,-0.3638,-0.415,-0.4664,-0.5099,-0.5544,-0.5781,-0.668,-0.7237,-0.7591,-0.7537,-0.7432,-0.7267,-0.7304,-0.7595,-0.7549,-0.7464,-0.7285,-0.7196,-0.694,-0.6347,-0.556,-0.4648,-0.3876,-0.3536,-0.3583,-0.4183,-0.4948,-0.482,-0.4916,-0.4739,-0.4399,-0.4166,-0.4288,-0.4147,-0.4063,-0.3994,-0.3949,-0.3977,-0.3939,-0.3914,-0.3958,-0.3989,-0.3852,-0.3706,-0.3566,-0.3466,-0.3439,-0.3192,-0.299,-0.2868,-0.2418,-0.2196,-0.2144,-0.246,-0.3086,-0.3761,-0.4487,-0.485,-0.5292,-0.521,-0.5082,-0.4872,-0.2891,-0.2915,-0.2917,-0.2919,-0.2921,-0.2947,-0.2941,-0.2912,-0.2908,-0.2896,-0.2875,-0.2874,-0.2874,-0.2874,-0.2874,-0.287,-0.2868,-0.2868,-0.2864,-0.286,-0.2853,-0.2848,-0.2842,-0.2846,-0.2851,-0.2841,-0.2872,-0.2898,-0.2887,-0.2917,-0.2921,-0.2917,-0.2894,-0.2868,-0.29,-0.2852,-0.2795,-0.275,-0.2767,-0.274,-0.2713,-0.2695,-0.2672,-0.2657,-0.2638,-0.2632,-0.2647,-0.2662,-0.2671,-0.2672,-0.2673,-0.2757,-0.2845,-0.2848,-0.302,-0.3107,-0.3108,-0.3027,-0.3027,-0.529,-0.6134,-0.623,-0.5948,-0.6084,-0.6436,-0.641,-0.6209,-0.5903,-0.626,-0.6356,-0.626,-0.5817,-0.5041,-0.4495,-0.3596,-0.3213,-0.2875,-0.2706,-0.3467,-0.3827,-0.3763,-0.3777,-0.3688,-0.3437,-0.2862,-0.2668,-0.2415,-0.2449,-0.2761,-0.2861,-0.3042,-0.3092,-0.3135,-0.307,-0.3013,-0.2558,-0.2343,-0.2164,-0.2317,-0.2545,-0.2534,-0.2406,-0.2222,-0.204,-0.2047,-0.2123,-0.2069,-0.2141,-0.2816,-0.3536,-0.409,-0.4394,-0.4294,-0.4123,-0.3844,-0.2919,-0.2947,-0.2968,-0.2976,-0.2975,-0.2964,-0.2943,-0.2916,-0.2897,-0.2883,-0.2875,-0.2874,-0.2874,-0.2874,-0.2874,-0.2874,-0.2874,-0.2874,-0.2874,-0.2874,-0.2874,-0.2855,-0.2848,-0.2856,-0.286,-0.2856,-0.2886,-0.2927,-0.2936,-0.295,-0.2971,-0.2972,-0.2917,-0.2886,-0.2861,-0.2833,-0.2812,-0.2797,-0.2789,-0.277,-0.275,-0.2716,-0.2688,-0.2676,-0.2658,-0.2657,-0.2672,-0.2688,-0.2691,-0.2692,-0.2692,-0.2692,-0.2692,-0.2692,-0.2694,-0.2694,-0.2694,-0.2692,-0.2777,-0.3703,-0.3984,-0.4168,-0.425,-0.4309,-0.4074,-0.4038,-0.4031,-0.4199,-0.4456,-0.4374,-0.3858,-0.377,-0.3418,-0.33,-0.2833,-0.2772,-0.2584,-0.2576,-0.2876,-0.2848,-0.292,-0.3045,-0.298,-0.313,-0.2629,-0.245,-0.2424,-0.2382,-0.2559,-0.2509,-0.2547,-0.2537,-0.2515,-0.2332,-0.2166,-0.2165,-0.2127,-0.2135,-0.2177,-0.2231,-0.2161,-0.2026,-0.2093,-0.2093,-0.2096,-0.21,-0.2042,-0.2041,-0.2147,-0.2621,-0.3143,-0.3328,-0.3104,-0.289,-0.2597,-0.2956,-0.2992,-0.3003,-0.3013,-0.3017,-0.299,-0.2954,-0.2916,-0.2887,-0.2874,-0.2874,-0.2874,-0.2874,-0.2874,-0.2874,-0.2874,-0.2874,-0.2874,-0.2874,-0.2874,-0.2874,-0.2863,-0.286,-0.2871,-0.2881,-0.2882,-0.2917,-0.296,-0.2956,-0.2998,-0.2992,-0.296,-0.2935,-0.2894,-0.2861,-0.2848,-0.2845,-0.2837,-0.2827,-0.2806,-0.2778,-0.2746,-0.2714,-0.2694,-0.2677,-0.2672,-0.2686,-0.2692,-0.2692,-0.2692,-0.2692,-0.2692,-0.2694,-0.2702,-0.2706,-0.2709,-0.272,-0.2722,-0.2813,-0.2813,-0.3093,-0.303,-0.2754,-0.274,-0.2651,-0.2972,-0.2966,-0.2877,-0.2701,-0.2694,-0.2777,-0.2692,-0.2683,-0.2654,-0.2628,-0.2572,-0.2557,-0.2552,-0.2599,-0.2495,-0.2482,-0.2523,-0.2555,-0.2642,-0.2551,-0.2529,-0.2508,-0.2462,-0.2417,-0.2373,-0.2335,-0.2322,-0.2312,-0.2282,-0.2249,-0.2225,-0.2177,-0.2172,-0.2158,-0.2089,-0.2133,-0.2057,-0.2069,-0.2083,-0.2154,-0.2154,-0.2076,-0.213,-0.2177,-0.2154,-0.2251,-0.2205,-0.1911,-0.1902,-0.1842,-0.3001,-0.3046,-0.3022,-0.3028,-0.3043,-0.3016,-0.2971,-0.2915,-0.2886,-0.2874,-0.2874,-0.2874,-0.2874,-0.2874,-0.2874,-0.2874,-0.2874,-0.2874,-0.2874,-0.2874,-0.2874,-0.287,-0.2879,-0.2896,-0.2901,-0.292,-0.2949,-0.2973,-0.2965,-0.2973,-0.2958,-0.2932,-0.2919,-0.2891,-0.2874,-0.2867,-0.2866,-0.2861,-0.2851,-0.2826,-0.2796,-0.2773,-0.2737,-0.2712,-0.2692,-0.2687,-0.2692,-0.2692,-0.2692,-0.2692,-0.2695,-0.2695,-0.2705,-0.2724,-0.2733,-0.2746,-0.2765,-0.277,-0.2772,-0.2769,-0.2773,-0.278,-0.2765,-0.2747,-0.2742,-0.2742,-0.2736,-0.2725,-0.2714,-0.2702,-0.2692,-0.2694,-0.2694,-0.2677,-0.2665,-0.2641,-0.263,-0.2605,-0.2567,-0.2541,-0.2522,-0.2538,-0.2559,-0.2572,-0.2605,-0.2598,-0.2578,-0.2559,-0.2514,-0.2462,-0.2427,-0.2401,-0.239,-0.2378,-0.2342,-0.2292,-0.2245,-0.2181,-0.2146,-0.2133,-0.2112,-0.2106,-0.2128,-0.2144,-0.2147,-0.2142,-0.2128,-0.2106,-0.208,-0.2057,-0.197,-0.1867,-0.1763,-0.1814,-0.1808,-0.3069,-0.3084,-0.3076,-0.3065,-0.3048,-0.302,-0.2972,-0.2916,-0.2887,-0.2874,-0.2874,-0.2874,-0.2876,-0.2874,-0.2874,-0.2874,-0.2874,-0.2874,-0.2874,-0.2874,-0.2874,-0.2874,-0.2885,-0.2901,-0.2912,-0.2934,-0.2961,-0.2991,-0.2988,-0.2977,-0.2962,-0.2949,-0.2916,-0.2891,-0.2883,-0.2875,-0.2878,-0.2874,-0.2863,-0.2837,-0.2806,-0.2778,-0.2747,-0.2725,-0.2701,-0.2695,-0.2692,-0.2692,-0.2692,-0.2695,-0.2714,-0.2724,-0.2727,-0.2752,-0.277,-0.277,-0.2778,-0.2782,-0.2784,-0.2785,-0.2788,-0.2796,-0.2793,-0.2789,-0.2778,-0.2769,-0.2762,-0.275,-0.2736,-0.2724,-0.2713,-0.271,-0.2716,-0.2713,-0.2698,-0.2682,-0.2665,-0.2632,-0.2594,-0.2566,-0.2549,-0.2556,-0.2575,-0.2615,-0.2645,-0.2649,-0.2645,-0.2627,-0.26,-0.2545,-0.2506,-0.2478,-0.2458,-0.2442,-0.2393,-0.2341,-0.2303,-0.226,-0.2222,-0.2195,-0.2192,-0.2192,-0.2202,-0.2203,-0.2199,-0.2191,-0.2178,-0.215,-0.1982,-0.1898,-0.1811,-0.1707,-0.1613,-0.1607,-0.1539,-0.3115,-0.3114,-0.3103,-0.3073,-0.3035,-0.3014,-0.2977,-0.2935,-0.2915,-0.2904,-0.289,-0.2891,-0.2885,-0.2875,-0.2874,-0.2874,-0.2874,-0.2874,-0.2874,-0.2874,-0.2874,-0.2874,-0.2883,-0.2901,-0.2923,-0.2946,-0.2977,-0.301,-0.3011,-0.2996,-0.2979,-0.2976,-0.2928,-0.2913,-0.2912,-0.2915,-0.2912,-0.2897,-0.2875,-0.2846,-0.2815,-0.2784,-0.2759,-0.2736,-0.2712,-0.2699,-0.2695,-0.2695,-0.2699,-0.2707,-0.2647,-0.2744,-0.2755,-0.2784,-0.2812,-0.2815,-0.2823,-0.2825,-0.2826,-0.2823,-0.2821,-0.2822,-0.2834,-0.2833,-0.2822,-0.2811,-0.2797,-0.2782,-0.2766,-0.2751,-0.2739,-0.2731,-0.2743,-0.2754,-0.2733,-0.2713,-0.2683,-0.2652,-0.2619,-0.2587,-0.2581,-0.2586,-0.2612,-0.2653,-0.2679,-0.2675,-0.2671,-0.266,-0.2639,-0.2605,-0.257,-0.2542,-0.2521,-0.2502,-0.2448,-0.2405,-0.2373,-0.2334,-0.2281,-0.2262,-0.2266,-0.2255,-0.2243,-0.2243,-0.2247,-0.2167,-0.2087,-0.1911,-0.1813,-0.1731,-0.1525,-0.131,-0.1224,-0.1208,-0.1139,-0.3146,-0.3138,-0.3108,-0.3063,-0.3016,-0.3013,-0.2996,-0.2969,-0.2969,-0.2947,-0.292,-0.2915,-0.2898,-0.2878,-0.2874,-0.2874,-0.2874,-0.2874,-0.2874,-0.2875,-0.2874,-0.2874,-0.2882,-0.2902,-0.2928,-0.2961,-0.2991,-0.3018,-0.3035,-0.3018,-0.2998,-0.3005,-0.2878,-0.2857,-0.2762,-0.2671,-0.2577,-0.2478,-0.2544,-0.2607,-0.2755,-0.2808,-0.2776,-0.275,-0.2728,-0.271,-0.2706,-0.2709,-0.2714,-0.2732,-0.275,-0.2765,-0.2793,-0.2816,-0.2845,-0.2856,-0.286,-0.286,-0.2859,-0.2857,-0.2863,-0.2866,-0.2874,-0.2867,-0.2852,-0.2841,-0.2827,-0.281,-0.2792,-0.2777,-0.2765,-0.2761,-0.2767,-0.2773,-0.2762,-0.2747,-0.2728,-0.2683,-0.2628,-0.2601,-0.2592,-0.2598,-0.2613,-0.2652,-0.2673,-0.2683,-0.2695,-0.2688,-0.2669,-0.2646,-0.2619,-0.2593,-0.257,-0.2548,-0.2529,-0.2488,-0.2457,-0.2412,-0.2278,-0.2326,-0.2327,-0.2304,-0.2274,-0.2215,-0.2229,-0.2002,-0.1915,-0.1744,-0.1516,-0.13,-0.109,-0.0882,-0.0805,-0.0796,-0.0719,-0.3183,-0.3138,-0.3085,-0.3054,-0.3043,-0.3041,-0.3036,-0.3125,-0.3125,-0.2987,-0.2927,-0.2916,-0.2904,-0.2885,-0.2882,-0.2882,-0.2881,-0.2886,-0.2876,-0.2879,-0.2881,-0.2887,-0.2883,-0.2911,-0.2936,-0.2962,-0.2992,-0.3024,-0.304,-0.3025,-0.3007,-0.2911,-0.2702,-0.2507,-0.2414,-0.2135,-0.195,-0.1951,-0.2032,-0.2286,-0.2624,-0.2777,-0.2838,-0.2727,-0.2706,-0.269,-0.2689,-0.2695,-0.2778,-0.278,-0.2799,-0.2822,-0.2851,-0.2859,-0.2866,-0.2872,-0.2874,-0.2874,-0.2874,-0.2874,-0.2874,-0.2874,-0.2874,-0.2874,-0.2871,-0.2866,-0.2855,-0.2836,-0.2821,-0.2806,-0.2796,-0.2793,-0.2792,-0.2793,-0.2791,-0.2781,-0.277,-0.2707,-0.2642,-0.2624,-0.2611,-0.2619,-0.2632,-0.2645,-0.2661,-0.2687,-0.2714,-0.2717,-0.2695,-0.2672,-0.2646,-0.2622,-0.2604,-0.2586,-0.2577,-0.2475,-0.2357,-0.2321,-0.2271,-0.2252,-0.2311,-0.2149,-0.2059,-0.2131,-0.2134,-0.1833,-0.1602,-0.1437,-0.1207,-0.0918,-0.0776,-0.0564,-0.0424,-0.0421,-0.0344,-0.3197,-0.3137,-0.3077,-0.3148,-0.3148,-0.3148,-0.3148,-0.3148,-0.3148,-0.2923,-0.2685,-0.277,-0.2939,-0.2915,-0.2912,-0.2909,-0.2911,-0.2913,-0.2919,-0.2915,-0.2908,-0.2916,-0.2921,-0.2927,-0.2956,-0.2983,-0.3011,-0.3037,-0.3047,-0.3041,-0.3026,-0.2739,-0.2348,-0.2061,-0.1874,-0.1594,-0.1406,-0.1502,-0.1406,-0.177,-0.2306,-0.2279,-0.2258,-0.2152,-0.214,-0.213,-0.2127,-0.213,-0.2126,-0.2299,-0.2308,-0.2493,-0.2597,-0.278,-0.2872,-0.2874,-0.2874,-0.2874,-0.2874,-0.2874,-0.2874,-0.2874,-0.2874,-0.2874,-0.2874,-0.287,-0.2868,-0.2853,-0.2852,-0.284,-0.2838,-0.2837,-0.2837,-0.2838,-0.2816,-0.2796,-0.277,-0.2724,-0.2608,-0.2687,-0.2683,-0.2695,-0.2702,-0.2692,-0.2702,-0.2683,-0.2713,-0.2637,-0.262,-0.2534,-0.2509,-0.2575,-0.2482,-0.2548,-0.2616,-0.243,-0.2157,-0.2127,-0.2095,-0.1902,-0.1726,-0.1743,-0.1826,-0.1809,-0.1729,-0.1435,-0.1198,-0.1034,-0.0737,-0.0441,-0.0367,-0.0294,0.0,0.0,0.0,-0.3197,-0.3137,-0.3077,-0.3148,-0.3148,-0.3148,-0.3148,-0.3052,-0.3052,-0.2658,-0.2353,-0.2633,-0.2805,-0.2785,-0.2869,-0.2869,-0.2957,-0.2946,-0.2953,-0.2954,-0.2954,-0.2855,-0.2763,-0.2867,-0.2698,-0.2627,-0.2652,-0.2663,-0.267,-0.2665,-0.2475,-0.2288,-0.2098,-0.1906,-0.1526,-0.1334,-0.1141,-0.1045,-0.1044,-0.1231,-0.1312,-0.1388,-0.1468,-0.1458,-0.1361,-0.1354,-0.1353,-0.1354,-0.1354,-0.1526,-0.1883,-0.2152,-0.2333,-0.2604,-0.2784,-0.2874,-0.2874,-0.2874,-0.2874,-0.2874,-0.2874,-0.2874,-0.2875,-0.2875,-0.2876,-0.2879,-0.2878,-0.2879,-0.2878,-0.2874,-0.2872,-0.2871,-0.2872,-0.2868,-0.284,-0.2819,-0.2785,-0.2752,-0.2746,-0.2743,-0.2752,-0.2763,-0.2754,-0.2659,-0.2647,-0.2625,-0.2534,-0.2534,-0.2455,-0.2213,-0.2125,-0.2119,-0.2114,-0.2183,-0.241,-0.2292,-0.2019,-0.1837,-0.165,-0.1381,-0.1211,-0.138,-0.1462,-0.1298,-0.1145,-0.0999,-0.0845,-0.0608,-0.038,0.0,0.0,0.0,0.0,0.0,0.0,-0.3195,-0.3138,-0.3077,-0.3052,-0.3052,-0.3052,-0.3148,-0.3052,-0.2576,-0.2381,-0.2186,-0.1804,-0.1791,-0.176,-0.2221,-0.2409,-0.2511,-0.2786,-0.2965,-0.2961,-0.288,-0.269,-0.2504,-0.2421,-0.2145,-0.2069,-0.1993,-0.181,-0.2098,-0.2002,-0.1812,-0.1716,-0.124,-0.1049,-0.0954,0.0,0.0,0.0,0.0,0.0,0.0,-0.0846,-0.1396,-0.1392,-0.1486,-0.1388,-0.1387,-0.1392,-0.1474,-0.146,-0.1536,-0.1712,-0.1982,-0.2254,-0.2435,-0.2618,-0.2708,-0.2707,-0.2618,-0.2618,-0.2619,-0.2617,-0.2617,-0.2702,-0.2707,-0.2718,-0.2718,-0.2722,-0.2718,-0.2797,-0.2883,-0.2883,-0.2883,-0.2875,-0.2855,-0.2855,-0.2838,-0.2808,-0.2789,-0.2791,-0.2795,-0.2705,-0.2693,-0.2514,-0.2254,-0.2156,-0.1895,-0.1895,-0.1804,-0.1722,-0.1639,-0.1723,-0.1722,-0.1876,-0.202,-0.1982,-0.1791,-0.1532,-0.1275,-0.1015,-0.1005,-0.1243,-0.1244,-0.0929,-0.0776,-0.0703,-0.0467,0.0,0.0,0.0,0.0,0.0,0.0,0.0,0.0]},{"header":{"parameterUnit":"m.s-1","parameterCategory":1,"la1":31.0,"la2":29.5877,"lo1":-88.7671,"lo2":-86.6584,"dy":0.0162,"dx":0.0185,"nx":115,"ny":88,"refTime":"2026-04-05T12:00:00:Z","depth":0,"parameterNumber":3,"parameterNumberName":"V-component_of_WINDS"},"data":[0.0,0.0,0.0,0.0,0.0,0.0,0.0,0.0,0.0,0.0,0.0,0.0,0.0,0.0,0.0,0.0,0.0,0.0,0.0,0.0,0.0,0.0,0.0,0.0,0.0,0.0,0.0,0.0,0.0,0.0,0.0,0.0,0.0,0.0,0.0,0.0,0.0,0.0,0.0,0.0,0.0,0.0,0.0,0.0,0.0,0.0,0.0,0.0,0.0,0.0,0.0,0.0,0.0,0.0,0.0,0.0,0.0,0.0,0.0,0.0,0.0,0.0,0.0,0.0,0.0,0.0,0.0,0.0,0.0,0.0,0.0,0.0,0.0,0.0,0.0,0.0,0.0,0.0,0.0,0.0,0.0,0.0,0.0,0.0,0.0,0.0,0.0,0.0,0.0,0.0,0.0,0.0,0.0,0.0,0.0,0.0,0.0,0.0,0.0,0.0,0.0,0.0,0.0,0.0,0.0,0.0,0.0,0.0,0.0,0.0,0.0,0.0,0.0,0.0,0.0,0.0,0.0,0.0,0.0,0.0,0.0,0.0,0.0,0.0,0.0,0.0,0.0,0.0,0.0,0.0,0.0,0.0,0.0,0.0,0.0,0.0,0.0,0.0,0.0,0.0,0.0,0.0,0.0,0.0,0.0,0.0,0.0,0.0,0.0,0.0,0.0,0.0,0.0,0.0,0.0,0.0,0.0,0.0,0.0,0.0,0.0,0.0,0.0,0.0,0.0,0.0,0.0,0.0,0.0,0.0,0.0,0.0,0.0,0.0,0.0,0.0,0.0,0.0,0.0,0.0,0.0,0.0,0.0,0.0,0.0,0.0,0.0,0.0,0.0,0.0,0.0,0.0,0.0,0.0,0.0,0.0,0.0,0.0,0.0,0.0,0.0,0.0,0.0,0.0,0.0,0.0,0.0,0.0,0.0,0.0,0.0,0.0,0.0,0.0,0.0,0.0,0.0,0.0,0.0,0.0,0.0,0.0,0.0,0.0,0.0,0.0,0.0,0.0,0.0,0.0,0.0,0.0,0.0,0.0,0.0,0.0,0.0,0.0,0.0,0.0,0.0,0.0,0.0,0.0,0.0,0.0,0.0,0.0,0.0,0.0,0.0,0.0,0.0,0.0,0.0,0.0,0.0,0.0,0.0,0.0,0.0,0.0,0.0,0.0,0.0,0.0,0.0,0.0,0.0,0.0,0.0,0.0,0.0,0.0,0.0,0.0,0.0,0.0,0.0,0.0,0.0,0.0,0.0,0.0,0.0,0.0,0.0,0.0,0.0,0.0,0.0,0.0,0.0,0.0,0.0,0.0,0.0,0.0,0.0,0.0,0.0,0.0,0.0,0.0,0.0,0.0,0.0,0.0,0.0,0.0,0.0,0.0,0.0,0.0,0.0,0.0,0.0,0.0,0.0,0.0,0.0,0.0,0.0,0.0,0.0,0.0,0.0,0.0,0.0,0.0,0.0,0.0,0.0,0.0,0.0,0.0,0.0,0.0,0.0,0.0,0.0,0.0,0.0,0.0,0.0,0.0,0.0,0.0,0.0,0.0,0.0,0.0,0.0,0.0,0.0,0.0,0.0,0.0,0.0,0.0,0.0,0.0,0.0,0.0,0.0,0.0,0.0,0.0,0.0,0.0,0.0,0.0,0.0,0.0,0.0,0.0,0.0,0.0,0.0,0.0,0.0,0.0,0.0,0.0,0.0,0.0,0.0,0.0,0.0,0.0,0.0,0.0,0.0,0.0,0.0,0.0,0.0,0.0,0.0,0.0,0.0,0.0,0.0,0.0,0.0,0.0,0.0,0.0,0.0,0.0,0.0,0.0,0.0,0.0,0.0,0.0,0.0,0.0,0.0,0.0,0.0,0.0,0.0,0.0,0.0,0.0,0.0,0.0,0.0,0.0,0.0,0.0,0.0,0.0,0.0,0.0,0.0,0.0,0.0,0.0,0.0,0.0,0.0,0.0,0.0,0.0,0.0,0.0,0.0,0.0,0.0,0.0,0.0,0.0,0.0,0.0,0.0,0.0,0.0,0.0,0.0,0.0,0.0,0.0,0.0,0.0,0.0,0.0,0.0,0.0,0.0,0.0,0.0,0.0,0.0,0.0,0.0,0.0,0.0,0.0,0.0,0.0,0.0,0.0,0.0,0.0,0.0,0.0,0.0,0.0,0.0,0.0,0.0,0.0,0.0,0.0,0.0,0.0,0.0,0.0,0.0,0.0,0.0,0.0,0.0,0.0,0.0,0.0,0.0,0.0,0.0,0.0,0.0,0.0,0.0,0.0,0.0,0.0,0.0,0.0,0.0,0.0,0.0,0.0,0.0,0.0,0.0,0.0,0.0,0.0,0.0,0.0,0.0,0.0,0.0,0.0,0.0,0.0,0.0,0.0,0.0,0.0,0.0,0.0,0.0,0.0,0.0,0.0,0.0,0.0,0.0,0.0,0.0,0.0,0.0,0.0,0.0,0.0,0.0,0.0,0.0,0.0,0.0,0.0,0.0,0.0,0.0,0.0,0.0,0.0,0.0,0.0,0.0,0.0,0.0,0.0,0.0,0.0,0.0,0.0,0.0,0.0,0.0,0.0,0.0,0.0,0.0,0.0,0.0,0.0,0.0,0.0,0.0,0.0,0.0,0.0,0.0,0.0,0.0,0.0,0.0,0.0,0.0,0.0,0.0,0.0,0.0,0.0,0.0,0.0,0.0,0.0,0.0,0.0,0.0,0.0,0.0,0.0,0.0,0.0,0.0,0.0,0.0,0.0,0.0,0.0,0.0,0.0,0.0,0.0,0.0,0.0,0.0,0.0,0.0,0.0,0.0,0.0,0.0,0.0,0.0,0.0,0.0,0.0,0.0,0.0,0.0,0.0,0.0,0.0,0.0,0.0,0.0,0.0,0.0,0.0,0.0,0.0,0.0,0.0,0.0,0.0,0.0,0.0,0.0,0.0,0.0,0.0,0.0,0.0,0.0,0.0,0.0,0.0,0.0,0.0,0.0,0.0,0.0,0.0,0.0,0.0,0.0,0.0,0.0,0.0,0.0,0.0,0.0,0.0,0.0,0.0,0.0,0.0,0.0,0.0,0.0,0.0,0.0,0.0,0.0,0.0,0.0,0.0,0.0,0.0,0.0,0.0,0.0,0.0,0.0,0.0,0.0,0.0,0.0,0.0,0.0,0.0,0.0,0.0,0.0,0.0,0.0,0.0,0.0,0.0,0.0,0.0,0.0,0.0,0.0,0.0,0.0,0.0,0.0,0.0,0.0,0.0,0.0,0.0,0.0,0.0,0.0,0.0,0.0,0.0,0.0,0.0,0.0,0.0,0.0,0.0,0.0,0.0,0.0,0.0,0.0,0.0,0.0,0.0,0.0,0.0,0.0,0.0,0.0,0.0,0.0,0.0,0.0,0.0,0.0,0.0,0.0,0.0,0.0,0.0,0.0,0.0,0.0,0.0,0.0,0.0,0.0,0.0,0.0,0.0,0.0,0.0,0.0,0.0,0.0,0.0,0.0,0.0,0.0,0.0,0.0,0.0,0.0,0.0,0.0,0.0,0.0,0.0,0.0,0.0,0.0,0.0,0.0,0.0,0.0,0.0,0.0,0.0,0.0,0.0,0.0,0.0,0.0,0.0,0.0,0.0,0.0,0.0,0.0,0.0,0.0,0.0,0.0,0.0,0.0,0.0,0.0,0.0,0.0,0.0,0.0,0.0,0.0,0.0,0.0,0.0,0.0,0.0,0.0,0.0,0.0,0.0,0.0,0.0,0.0,0.0,0.0,0.0,0.0,0.0,0.0,0.0,0.0,0.0,0.0,0.0,0.0,0.0,0.0,0.0,0.0,0.0,0.0,0.0,0.0,0.0,0.0,0.0,0.0,0.0,0.0,0.0,0.0,0.0,0.0,0.0,0.0,0.0,0.0,0.0,0.0,0.0,0.0,0.0,0.0,0.0,0.0,0.0,0.0,0.0,0.0,0.0,0.0,0.0,0.0,0.0,0.0,0.0,0.0,0.0,0.0,0.0,0.0,0.0,0.0,0.0,0.0,0.0,0.0,0.0,0.0,0.0,0.0,0.0,0.0,0.0,0.0,0.0,0.0,0.0,0.0,0.0,0.0,0.0,0.0,0.0,0.0,0.0,0.0,0.0,0.0,0.0,0.0,0.0,0.0,0.0,0.0,0.0,0.0,0.0,0.0,0.0,0.0,0.0,0.0,0.0,0.0,0.0,0.0,0.0,0.0,0.0,0.0,0.0,0.0,0.0,0.0,0.0,0.0,0.0,2.6837,0.0,0.0,0.0,0.0,0.0,0.0,0.0,0.0,0.0,0.0,0.0,0.0,0.0,0.0,0.0,0.0,0.0,0.0,0.0,0.0,0.0,0.0,0.0,0.0,0.0,0.0,0.0,0.0,0.0,0.0,0.0,0.0,0.0,0.0,0.0,0.0,0.0,0.0,0.0,0.0,0.0,0.0,0.0,0.0,0.0,0.0,0.0,0.0,0.0,0.0,0.0,0.0,0.0,0.0,0.0,0.0,0.0,0.0,0.0,0.0,0.0,0.0,0.0,0.0,0.0,0.0,0.0,0.0,0.0,0.0,0.0,0.0,0.0,0.0,0.0,0.0,0.0,0.0,0.0,0.0,0.0,0.0,0.0,0.0,0.0,0.0,0.0,0.0,0.0,0.0,0.0,0.0,0.0,0.0,0.0,0.0,0.0,0.0,0.0,0.0,0.0,0.0,0.0,0.0,0.0,0.0,0.0,0.0,0.0,0.0,2.8809,2.8892,2.8892,2.8146,2.6602,0.0,0.0,0.0,0.0,0.0,0.0,0.0,0.0,0.0,0.0,0.0,0.0,0.0,0.0,0.0,0.0,0.0,0.0,0.0,0.0,0.0,0.0,0.0,0.0,0.0,0.0,0.0,0.0,0.0,0.0,0.0,0.0,0.0,0.0,0.0,0.0,0.0,0.0,0.0,0.0,0.0,0.0,0.0,0.0,0.0,0.0,0.0,0.0,0.0,0.0,0.0,0.0,0.0,0.0,0.0,0.0,0.0,0.0,0.0,0.0,0.0,0.0,0.0,0.0,0.0,0.0,0.0,0.0,0.0,0.0,0.0,0.0,0.0,0.0,0.0,0.0,0.0,0.0,0.0,0.0,0.0,0.0,0.0,0.0,0.0,0.0,0.0,0.0,0.0,0.0,0.0,0.0,0.0,0.0,0.0,0.0,0.0,0.0,0.0,0.0,0.0,0.0,0.0,0.0,0.0,0.0,0.0,0.0,0.0,0.0,0.0,0.0,2.8672,2.7876,2.6361,0.0,0.0,0.0,0.0,0.0,0.0,0.0,0.0,0.0,0.0,0.0,0.0,0.0,0.0,0.0,0.0,0.0,0.0,0.0,0.0,0.0,0.0,0.0,0.0,0.0,0.0,0.0,0.0,0.0,0.0,0.0,0.0,0.0,0.0,0.0,0.0,0.0,0.0,0.0,0.0,0.0,0.0,0.0,0.0,0.0,0.0,0.0,0.0,0.0,0.0,0.0,0.0,0.0,0.0,0.0,0.0,0.0,0.0,0.0,0.0,0.0,0.0,0.0,0.0,0.0,0.0,0.0,0.0,0.0,0.0,0.0,0.0,0.0,0.0,0.0,0.0,0.0,0.0,0.0,0.0,0.0,0.0,0.0,0.0,0.0,0.0,0.0,0.0,0.0,0.0,0.0,0.0,0.0,0.0,0.0,0.0,0.0,0.0,0.0,0.0,0.0,0.0,0.0,0.0,0.0,0.0,0.0,0.0,0.0,0.0,2.8568,2.9219,2.8603,0.0,2.6093,0.0,0.0,0.0,0.0,0.0,0.0,0.0,0.0,0.0,0.0,0.0,0.0,0.0,0.0,0.0,0.0,0.0,0.0,0.0,0.0,0.0,0.0,0.0,0.0,0.0,0.0,0.0,0.0,0.0,0.0,0.0,0.0,0.0,0.0,0.0,0.0,0.0,0.0,0.0,0.0,0.0,0.0,0.0,0.0,0.0,0.0,0.0,0.0,0.0,0.0,0.0,0.0,0.0,0.0,0.0,0.0,0.0,0.0,0.0,0.0,0.0,0.0,0.0,0.0,0.0,0.0,0.0,0.0,0.0,0.0,0.0,0.0,0.0,0.0,0.0,0.0,0.0,0.0,0.0,0.0,0.0,0.0,0.0,0.0,0.0,0.0,0.0,0.0,0.0,0.0,0.0,0.0,0.0,0.0,0.0,0.0,0.0,0.0,0.0,0.0,0.0,0.0,0.0,0.0,0.0,0.0,0.0,0.0,0.0,0.0,2.8688,2.9006,2.7805,2.6729,0.0,0.0,0.0,0.0,0.0,0.0,0.0,0.0,0.0,0.0,0.0,0.0,0.0,0.0,0.0,0.0,0.0,0.0,0.0,0.0,0.0,0.0,0.0,0.0,0.0,0.0,0.0,0.0,0.0,0.0,0.0,0.0,0.0,0.0,0.0,0.0,0.0,0.0,0.0,0.0,0.0,0.0,0.0,0.0,0.0,0.0,0.0,0.0,0.0,0.0,0.0,0.0,0.0,0.0,0.0,0.0,0.0,0.0,0.0,0.0,0.0,0.0,0.0,0.0,0.0,0.0,0.0,0.0,0.0,0.0,0.0,0.0,0.0,0.0,0.0,0.0,0.0,0.0,0.0,0.0,0.0,0.0,0.0,0.0,0.0,0.0,0.0,0.0,0.0,0.0,0.0,0.0,0.0,0.0,0.0,0.0,0.0,0.0,0.0,0.0,0.0,0.0,0.0,0.0,0.0,0.0,0.0,0.0,0.0,0.0,2.8076,2.8355,2.832,2.7258,2.6289,2.5454,0.0,0.0,0.0,0.0,0.0,0.0,0.0,0.0,0.0,0.0,0.0,0.0,0.0,0.0,0.0,0.0,0.0,0.0,0.0,0.0,0.0,0.0,0.0,0.0,0.0,0.0,0.0,0.0,0.0,0.0,0.0,0.0,0.0,0.0,0.0,0.0,0.0,0.0,0.0,0.0,0.0,0.0,0.0,0.0,0.0,0.0,0.0,0.0,0.0,0.0,0.0,0.0,0.0,0.0,0.0,0.0,0.0,0.0,0.0,0.0,0.0,0.0,0.0,0.0,0.0,0.0,0.0,0.0,0.0,0.0,0.0,0.0,0.0,0.0,0.0,0.0,0.0,0.0,0.0,0.0,0.0,0.0,0.0,0.0,0.0,0.0,0.0,0.0,0.0,0.0,0.0,0.0,0.0,0.0,0.0,0.0,0.0,0.0,0.0,0.0,0.0,0.0,0.0,0.0,0.0,0.0,0.0,0.0,2.7117,2.725,2.7282,2.7282,2.7178,2.653,0.0,0.0,0.0,0.0,0.0,0.0,0.0,0.0,0.0,0.0,0.0,0.0,0.0,0.0,0.0,0.0,0.0,0.0,0.0,0.0,0.0,0.0,0.0,0.0,0.0,0.0,0.0,0.0,0.0,0.0,0.0,0.0,0.0,0.0,0.0,0.0,0.0,0.0,0.0,0.0,0.0,0.0,0.0,0.0,0.0,0.0,0.0,0.0,0.0,0.0,0.0,0.0,0.0,0.0,0.0,0.0,0.0,0.0,0.0,0.0,0.0,0.0,0.0,0.0,0.0,0.0,0.0,0.0,0.0,0.0,0.0,0.0,0.0,0.0,0.0,0.0,0.0,0.0,0.0,0.0,0.0,0.0,0.0,0.0,0.0,0.0,0.0,0.0,0.0,0.0,0.0,0.0,0.0,0.0,0.0,0.0,0.0,0.0,0.0,0.0,0.0,0.0,0.0,0.0,0.0,0.0,0.0,0.0,0.0,2.6775,2.7301,2.7607,2.7572,2.6704,2.5745,0.0,0.0,0.0,0.0,0.0,0.0,0.0,0.0,0.0,0.0,0.0,0.0,0.0,0.0,0.0,0.0,0.0,0.0,0.0,0.0,0.0,0.0,0.0,0.0,0.0,0.0,0.0,0.0,0.0,0.0,0.0,0.0,0.0,0.0,0.0,0.0,0.0,0.0,0.0,0.0,0.0,0.0,0.0,0.0,0.0,0.0,0.0,0.0,0.0,0.0,0.0,0.0,0.0,0.0,0.0,0.0,0.0,0.0,0.0,0.0,0.0,0.0,0.0,0.0,0.0,0.0,0.0,0.0,0.0,0.0,0.0,0.0,0.0,0.0,0.0,0.0,0.0,0.0,0.0,0.0,0.0,0.0,0.0,0.0,0.0,0.0,0.0,0.0,0.0,0.0,0.0,0.0,0.0,0.0,0.0,0.0,0.0,0.0,0.0,0.0,0.0,0.0,0.0,0.0,0.0,0.0,0.0,0.0,0.0,2.7259,0.0,2.829,2.8021,2.6842,2.5847,0.0,0.0,0.0,0.0,0.0,0.0,0.0,0.0,0.0,0.0,0.0,0.0,0.0,0.0,0.0,0.0,0.0,0.0,0.0,0.0,0.0,0.0,0.0,0.0,0.0,0.0,0.0,0.0,0.0,0.0,0.0,0.0,0.0,0.0,0.0,0.0,0.0,0.0,0.0,0.0,0.0,0.0,0.0,0.0,0.0,0.0,0.0,0.0,0.0,0.0,0.0,0.0,0.0,0.0,0.0,0.0,0.0,0.0,0.0,0.0,0.0,0.0,0.0,0.0,0.0,0.0,0.0,0.0,0.0,0.0,0.0,0.0,0.0,0.0,0.0,0.0,0.0,0.0,0.0,0.0,0.0,0.0,0.0,0.0,0.0,0.0,0.0,0.0,0.0,0.0,0.0,0.0,0.0,0.0,0.0,0.0,0.0,0.0,0.0,0.0,0.0,0.0,0.0,0.0,0.0,0.0,0.0,0.0,2.7755,2.8553,2.9293,2.9326,2.8605,2.7855,2.689,0.0,0.0,0.0,0.0,0.0,0.0,0.0,0.0,0.0,0.0,0.0,0.0,0.0,0.0,0.0,0.0,0.0,0.0,0.0,0.0,0.0,0.0,0.0,0.0,0.0,0.0,0.0,0.0,0.0,0.0,0.0,0.0,0.0,0.0,0.0,0.0,0.0,0.0,0.0,0.0,0.0,0.0,0.0,0.0,0.0,0.0,0.0,0.0,0.0,0.0,0.0,0.0,0.0,0.0,0.0,0.0,0.0,0.0,0.0,0.0,0.0,0.0,0.0,0.0,0.0,0.0,0.0,0.0,0.0,0.0,0.0,0.0,0.0,0.0,0.0,0.0,0.0,0.0,0.0,0.0,0.0,0.0,0.0,0.0,0.0,0.0,0.0,0.0,0.0,0.0,0.0,0.0,0.0,0.0,0.0,0.0,0.0,0.0,0.0,0.0,0.0,0.0,0.0,0.0,0.0,0.0,0.0,0.0,0.0,2.9059,2.9781,2.9855,2.9158,2.7841,2.6857,0.0,0.0,0.0,0.0,0.0,0.0,0.0,0.0,0.0,0.0,0.0,0.0,0.0,0.0,0.0,0.0,0.0,0.0,0.0,0.0,0.0,0.0,0.0,0.0,0.0,0.0,0.0,0.0,0.0,0.0,0.0,0.0,0.0,0.0,0.0,0.0,0.0,0.0,0.0,0.0,0.0,0.0,0.0,0.0,0.0,0.0,0.0,0.0,0.0,0.0,0.0,0.0,0.0,0.0,0.0,0.0,0.0,0.0,0.0,0.0,0.0,0.0,0.0,0.0,0.0,0.0,0.0,0.0,0.0,0.0,0.0,0.0,0.0,0.0,0.0,0.0,0.0,0.0,0.0,0.0,0.0,0.0,0.0,0.0,0.0,0.0,0.0,0.0,0.0,0.0,0.0,0.0,0.0,0.0,0.0,0.0,0.0,0.0,0.0,0.0,0.0,0.0,0.0,0.0,0.0,0.0,0.0,0.0,0.0,3.1075,3.1489,3.1472,3.0827,2.9329,2.8108,2.7271,0.0,0.0,0.0,0.0,0.0,0.0,0.0,0.0,0.0,0.0,0.0,0.0,0.0,0.0,0.0,0.0,0.0,0.0,0.0,0.0,0.0,0.0,0.0,0.0,0.0,0.0,0.0,0.0,0.0,0.0,0.0,0.0,0.0,0.0,0.0,0.0,0.0,0.0,0.0,0.0,0.0,0.0,0.0,0.0,0.0,0.0,0.0,0.0,0.0,0.0,0.0,0.0,0.0,0.0,0.0,0.0,0.0,0.0,0.0,0.0,0.0,0.0,0.0,0.0,0.0,0.0,0.0,0.0,0.0,0.0,0.0,0.0,0.0,0.0,0.0,0.0,0.0,0.0,0.0,0.0,0.0,0.0,0.0,0.0,0.0,0.0,0.0,0.0,0.0,0.0,0.0,0.0,0.0,0.0,0.0,0.0,0.0,0.0,0.0,0.0,0.0,0.0,0.0,0.0,0.0,0.0,0.0,0.0,3.4242,3.4302,3.396,3.3259,3.1899,3.0379,0.0,0.0,0.0,0.0,0.0,0.0,0.0,0.0,0.0,0.0,0.0,0.0,0.0,0.0,0.0,0.0,0.0,0.0,0.0,0.0,0.0,0.0,0.0,0.0,0.0,0.0,0.0,0.0,0.0,0.0,0.0,0.0,0.0,0.0,0.0,0.0,0.0,0.0,0.0,0.0,0.0,0.0,0.0,0.0,0.0,0.0,0.0,0.0,0.0,0.0,0.0,0.0,0.0,0.0,0.0,0.0,0.0,0.0,0.0,0.0,0.0,0.0,0.0,0.0,0.0,0.0,0.0,0.0,0.0,0.0,0.0,0.0,0.0,0.0,0.0,0.0,0.0,0.0,0.0,0.0,0.0,0.0,0.0,0.0,0.0,0.0,0.0,0.0,0.0,0.0,0.0,0.0,0.0,0.0,0.0,0.0,0.0,0.0,0.0,0.0,0.0,0.0,0.0,0.0,0.0,0.0,0.0,0.0,0.0,3.5433,3.6927,3.6622,3.4386,3.2997,3.1551,0.0,0.0,0.0,0.0,0.0,0.0,0.0,0.0,0.0,0.0,0.0,0.0,0.0,0.0,0.0,0.0,0.0,0.0,0.0,0.0,0.0,0.0,0.0,0.0,0.0,0.0,0.0,0.0,0.0,0.0,0.0,0.0,0.0,0.0,0.0,0.0,0.0,0.0,0.0,0.0,0.0,0.0,0.0,0.0,0.0,0.0,0.0,0.0,0.0,0.0,0.0,0.0,0.0,0.0,0.0,0.0,0.0,0.0,0.0,0.0,0.0,0.0,0.0,0.0,0.0,0.0,0.0,0.0,0.0,0.0,0.0,0.0,0.0,0.0,0.0,0.0,0.0,0.0,0.0,0.0,0.0,0.0,0.0,0.0,0.0,0.0,0.0,0.0,0.0,0.0,0.0,0.0,0.0,0.0,0.0,0.0,0.0,0.0,0.0,0.0,0.0,0.0,0.0,0.0,0.0,0.0,0.0,0.0,3.4614,3.6568,3.8305,3.8278,3.6296,3.4872,3.3243,0.0,0.0,0.0,0.0,0.0,0.0,0.0,0.0,0.0,0.0,0.0,0.0,0.0,0.0,0.0,0.0,0.0,0.0,0.0,0.0,0.0,0.0,0.0,0.0,0.0,0.0,0.0,0.0,0.0,0.0,0.0,0.0,0.0,0.0,0.0,0.0,0.0,0.0,0.0,0.0,0.0,0.0,0.0,0.0,0.0,0.0,0.0,0.0,0.0,0.0,0.0,0.0,0.0,0.0,0.0,0.0,0.0,0.0,0.0,0.0,0.0,0.0,0.0,0.0,0.0,0.0,0.0,0.0,0.0,0.0,0.0,0.0,0.0,0.0,0.0,0.0,0.0,0.0,0.0,0.0,0.0,0.0,0.0,0.0,0.0,0.0,0.0,0.0,0.0,0.0,0.0,0.0,0.0,0.0,0.0,0.0,0.0,0.0,0.0,0.0,0.0,0.0,0.0,0.0,0.0,0.0,0.0,0.0,3.4906,3.7554,3.8939,3.9267,3.8495,3.6933,3.5052,0.0,0.0,0.0,0.0,0.0,0.0,0.0,0.0,0.0,0.0,0.0,0.0,0.0,0.0,0.0,0.0,0.0,0.0,0.0,0.0,0.0,0.0,0.0,0.0,0.0,0.0,0.0,0.0,0.0,0.0,0.0,0.0,0.0,0.0,0.0,0.0,0.0,0.0,0.0,0.0,0.0,0.0,0.0,0.0,0.0,0.0,0.0,0.0,0.0,0.0,0.0,0.0,0.0,0.0,0.0,0.0,0.0,0.0,0.0,0.0,0.0,0.0,0.0,0.0,0.0,0.0,0.0,0.0,0.0,0.0,0.0,0.0,0.0,0.0,0.0,0.0,0.0,0.0,0.0,0.0,0.0,0.0,0.0,0.0,0.0,0.0,0.0,0.0,0.0,0.0,0.0,0.0,0.0,0.0,0.0,0.0,0.0,0.0,0.0,0.0,0.0,0.0,0.0,0.0,0.0,0.0,0.0,0.0,3.6107,3.8231,3.9582,3.998,3.9282,3.7668,3.574,0.0,0.0,0.0,0.0,0.0,0.0,0.0,0.0,0.0,0.0,0.0,0.0,0.0,0.0,0.0,0.0,0.0,0.0,0.0,0.0,0.0,0.0,0.0,0.0,0.0,0.0,0.0,0.0,0.0,0.0,0.0,0.0,0.0,0.0,0.0,0.0,0.0,0.0,0.0,0.0,0.0,0.0,0.0,0.0,0.0,0.0,0.0,0.0,3.2704,0.0,0.0,0.0,0.0,0.0,0.0,0.0,0.0,0.0,0.0,0.0,0.0,0.0,0.0,0.0,0.0,0.0,0.0,0.0,0.0,0.0,0.0,0.0,0.0,0.0,0.0,0.0,0.0,0.0,0.0,0.0,0.0,0.0,0.0,0.0,0.0,0.0,0.0,0.0,0.0,0.0,0.0,0.0,0.0,0.0,0.0,0.0,0.0,0.0,0.0,0.0,0.0,0.0,0.0,0.0,0.0,0.0,0.0,0.0,3.6784,3.8477,3.9797,4.0197,3.9503,3.856,3.6837,0.0,0.0,0.0,0.0,0.0,0.0,0.0,0.0,0.0,0.0,0.0,0.0,0.0,0.0,0.0,0.0,0.0,0.0,0.0,0.0,0.0,0.0,0.0,0.0,0.0,0.0,0.0,0.0,0.0,0.0,0.0,0.0,0.0,0.0,0.0,0.0,0.0,0.0,0.0,0.0,0.0,0.0,0.0,0.0,0.0,0.0,0.0,0.0,0.0,0.0,0.0,0.0,0.0,0.0,0.0,0.0,0.0,0.0,0.0,0.0,0.0,0.0,0.0,0.0,0.0,0.0,0.0,0.0,0.0,0.0,0.0,0.0,0.0,0.0,0.0,0.0,0.0,0.0,0.0,0.0,0.0,0.0,0.0,0.0,0.0,0.0,0.0,0.0,0.0,0.0,0.0,0.0,0.0,0.0,0.0,0.0,0.0,0.0,0.0,0.0,0.0,0.0,0.0,0.0,0.0,0.0,0.0,3.5246,3.7307,3.8631,3.9736,4.0073,3.9503,3.907,3.7578,3.4886,0.0,0.0,0.0,0.0,0.0,0.0,0.0,0.0,0.0,0.0,0.0,0.0,0.0,0.0,0.0,0.0,0.0,0.0,0.0,0.0,0.0,0.0,0.0,0.0,0.0,0.0,0.0,0.0,0.0,0.0,0.0,0.0,0.0,0.0,0.0,0.0,0.0,0.0,2.8582,3.0498,0.0,0.0,0.0,0.0,0.0,0.0,0.0,0.0,3.1876,0.0,0.0,0.0,0.0,0.0,0.0,0.0,0.0,0.0,0.0,0.0,0.0,0.0,0.0,0.0,0.0,0.0,0.0,0.0,0.0,0.0,0.0,0.0,0.0,0.0,0.0,0.0,0.0,0.0,0.0,0.0,0.0,0.0,0.0,0.0,0.0,0.0,0.0,0.0,0.0,0.0,0.0,0.0,0.0,0.0,0.0,0.0,0.0,0.0,0.0,0.0,0.0,0.0,0.0,0.0,0.0,3.3842,3.6137,3.7984,3.9308,3.9551,3.9608,3.9472,3.8171,3.6598,3.4853,0.0,0.0,0.0,0.0,0.0,0.0,0.0,0.0,0.0,0.0,0.0,0.0,0.0,0.0,0.0,0.0,0.0,0.0,0.0,0.0,0.0,0.0,0.0,0.0,0.0,0.0,0.0,0.0,0.0,0.0,0.0,0.0,0.0,0.0,0.0,0.0,0.0,0.0,0.0,3.1826,3.287,0.0,0.0,0.0,0.0,0.0,0.0,0.0,0.0,3.1996,0.0,0.0,0.0,0.0,0.0,0.0,0.0,0.0,0.0,0.0,0.0,0.0,0.0,0.0,0.0,0.0,0.0,0.0,0.0,0.0,0.0,0.0,0.0,0.0,0.0,0.0,0.0,0.0,0.0,0.0,0.0,0.0,0.0,0.0,0.0,0.0,0.0,0.0,0.0,0.0,0.0,0.0,0.0,0.0,0.0,0.0,0.0,0.0,0.0,0.0,0.0,0.0,0.0,0.0,0.0,3.4118,3.6689,3.8508,3.9428,3.949,3.9329,3.8936,3.7726,3.6208,0.0,0.0,0.0,0.0,0.0,0.0,0.0,0.0,0.0,0.0,0.0,0.0,0.0,0.0,0.0,0.0,0.0,0.0,0.0,0.0,0.0,0.0,0.0,0.0,0.0,0.0,0.0,0.0,0.0,0.0,0.0,0.0,0.0,0.0,0.0,0.0,0.0,0.0,0.0,0.0,3.206,3.2939,3.4492,0.0,0.0,0.0,0.0,0.0,0.0,3.1593,3.09,0.0,0.0,0.0,0.0,0.0,0.0,0.0,0.0,0.0,0.0,0.0,0.0,0.0,0.0,0.0,0.0,0.0,0.0,0.0,0.0,0.0,0.0,0.0,0.0,0.0,0.0,0.0,0.0,0.0,0.0,0.0,0.0,0.0,0.0,0.0,0.0,0.0,0.0,0.0,0.0,0.0,0.0,0.0,0.0,0.0,0.0,0.0,0.0,0.0,0.0,0.0,0.0,0.0,0.0,0.0,3.4455,3.7118,3.8875,3.9644,3.9462,3.9018,3.8401,3.7406,3.5909,0.0,0.0,0.0,0.0,0.0,0.0,0.0,0.0,0.0,0.0,0.0,0.0,0.0,0.0,0.0,0.0,0.0,0.0,0.0,0.0,0.0,0.0,0.0,0.0,0.0,0.0,0.0,0.0,0.0,0.0,0.0,0.0,0.0,0.0,0.0,0.0,0.0,0.0,0.0,0.0,0.0,3.291,3.4927,3.3615,0.0,0.0,0.0,0.0,3.1174,3.077,0.0,0.0,0.0,0.0,0.0,0.0,0.0,0.0,0.0,0.0,0.0,0.0,0.0,0.0,0.0,0.0,0.0,0.0,0.0,0.0,0.0,0.0,0.0,0.0,0.0,0.0,0.0,0.0,0.0,0.0,0.0,0.0,0.0,0.0,0.0,0.0,0.0,0.0,0.0,0.0,0.0,0.0,0.0,0.0,0.0,0.0,0.0,0.0,0.0,0.0,0.0,0.0,0.0,0.0,0.0,0.0,3.5982,3.7642,3.909,4.0259,3.9213,3.8553,3.8369,3.6986,3.5447,0.0,0.0,0.0,0.0,0.0,0.0,0.0,0.0,0.0,0.0,0.0,0.0,0.0,0.0,0.0,0.0,0.0,0.0,0.0,0.0,0.0,0.0,0.0,0.0,0.0,0.0,0.0,0.0,0.0,0.0,0.0,0.0,0.0,0.0,0.0,0.0,0.0,0.0,0.0,0.0,0.0,3.3061,3.3824,3.3835,3.3742,0.0,0.0,3.2454,3.2592,3.265,0.0,0.0,0.0,0.0,0.0,0.0,0.0,0.0,0.0,0.0,0.0,0.0,0.0,0.0,0.0,0.0,0.0,0.0,0.0,0.0,0.0,0.0,0.0,0.0,0.0,0.0,0.0,0.0,0.0,0.0,0.0,0.0,0.0,0.0,0.0,0.0,0.0,0.0,0.0,0.0,0.0,0.0,0.0,0.0,0.0,0.0,0.0,0.0,0.0,0.0,0.0,0.0,0.0,0.0,0.0,3.2926,3.5646,3.7519,3.9121,4.0382,3.9182,3.846,3.8369,3.6478,3.4901,0.0,0.0,0.0,0.0,0.0,0.0,0.0,0.0,0.0,0.0,0.0,0.0,0.0,0.0,0.0,0.0,0.0,0.0,0.0,0.0,0.0,0.0,0.0,0.0,0.0,0.0,0.0,0.0,0.0,0.0,0.0,0.0,0.0,0.0,0.0,0.0,0.0,0.0,0.0,0.0,0.0,0.0,3.4492,3.4038,0.0,0.0,0.0,3.2616,3.3635,0.0,0.0,0.0,0.0,0.0,0.0,0.0,0.0,0.0,0.0,0.0,0.0,0.0,0.0,0.0,0.0,0.0,0.0,0.0,0.0,0.0,0.0,0.0,0.0,0.0,0.0,0.0,0.0,0.0,0.0,0.0,0.0,0.0,0.0,0.0,0.0,0.0,0.0,0.0,0.0,0.0,0.0,0.0,0.0,0.0,0.0,0.0,0.0,0.0,0.0,0.0,0.0,0.0,0.0,0.0,0.0,0.0,3.5003,3.7336,3.9,3.9989,3.9131,3.8495,3.8207,3.6525,0.0,0.0,0.0,0.0,0.0,0.0,0.0,0.0,0.0,0.0,0.0,0.0,0.0,0.0,0.0,0.0,0.0,0.0,0.0,0.0,0.0,0.0,0.0,0.0,0.0,0.0,0.0,2.4861,0.0,0.0,0.0,0.0,0.0,0.0,0.0,0.0,0.0,0.0,0.0,0.0,0.0,0.0,3.2988,3.4901,3.4306,3.4098,0.0,0.0,3.3146,3.4235,3.3488,3.2494,0.0,0.0,0.0,0.0,0.0,0.0,0.0,0.0,0.0,0.0,0.0,0.0,0.0,0.0,0.0,0.0,0.0,0.0,0.0,0.0,0.0,0.0,0.0,0.0,0.0,0.0,0.0,0.0,0.0,0.0,0.0,0.0,0.0,0.0,0.0,0.0,0.0,0.0,0.0,0.0,0.0,0.0,0.0,0.0,0.0,0.0,0.0,0.0,0.0,0.0,0.0,0.0,0.0,0.0,3.2305,3.4537,3.7153,3.8635,3.8922,3.896,3.8591,3.7865,3.7621,3.6715,0.0,0.0,0.0,0.0,0.0,0.0,0.0,0.0,0.0,0.0,0.0,0.0,0.0,0.0,0.0,0.0,0.0,0.0,0.0,0.0,0.0,0.0,0.0,0.0,0.0,0.0,0.0,0.0,0.0,0.0,0.0,0.0,0.0,0.0,0.0,0.0,0.0,0.0,0.0,0.0,0.0,3.3313,3.4081,3.4782,3.5252,0.0,3.5198,3.4946,3.4322,3.4302,3.3858,3.2459,0.0,0.0,0.0,0.0,0.0,0.0,0.0,0.0,0.0,0.0,0.0,0.0,0.0,0.0,0.0,0.0,0.0,0.0,0.0,0.0,0.0,0.0,0.0,0.0,0.0,0.0,0.0,0.0,0.0,0.0,0.0,0.0,0.0,0.0,0.0,0.0,0.0,0.0,0.0,0.0,0.0,0.0,0.0,0.0,0.0,0.0,0.0,0.0,0.0,0.0,0.0,0.0,0.0,3.1958,3.4474,3.6722,3.8237,3.8867,3.8748,3.8647,3.8763,3.8243,3.7077,0.0,0.0,0.0,0.0,0.0,0.0,0.0,0.0,0.0,0.0,0.0,0.0,0.0,0.0,0.0,0.0,0.0,0.0,0.0,0.0,0.0,0.0,0.0,0.0,0.0,0.0,0.0,0.0,2.5959,2.557,2.5575,0.0,0.0,0.0,0.0,0.0,0.0,0.0,0.0,0.0,0.0,3.3272,3.3992,3.4772,0.0,0.0,3.5531,3.5365,3.5584,3.4901,3.4023,3.3106,3.0985,0.0,0.0,0.0,0.0,0.0,0.0,0.0,0.0,0.0,0.0,0.0,0.0,0.0,0.0,0.0,0.0,0.0,0.0,0.0,0.0,0.0,0.0,0.0,0.0,0.0,0.0,0.0,0.0,0.0,0.0,0.0,0.0,0.0,0.0,0.0,0.0,0.0,0.0,0.0,0.0,0.0,0.0,0.0,0.0,0.0,0.0,0.0,0.0,0.0,0.0,0.0,0.0,3.2021,3.4339,3.6816,3.8403,3.8999,3.9215,3.9418,3.9617,3.916,3.7969,0.0,0.0,0.0,0.0,0.0,0.0,0.0,0.0,0.0,0.0,0.0,0.0,0.0,0.0,0.0,0.0,0.0,0.0,0.0,0.0,0.0,0.0,0.0,0.0,0.0,0.0,0.0,0.0,2.6422,2.5868,2.6426,0.0,0.0,0.0,0.0,0.0,0.0,0.0,0.0,0.0,0.0,3.3731,3.4042,3.4924,3.5559,3.5628,3.5559,3.5669,3.6042,3.4871,3.3736,3.3398,0.0,0.0,0.0,0.0,0.0,0.0,0.0,0.0,0.0,0.0,0.0,0.0,0.0,0.0,0.0,0.0,0.0,0.0,0.0,0.0,0.0,0.0,0.0,0.0,0.0,0.0,0.0,3.56,0.0,0.0,3.552,0.0,0.0,0.0,0.0,0.0,0.0,0.0,0.0,0.0,0.0,0.0,0.0,0.0,0.0,0.0,0.0,0.0,0.0,0.0,0.0,0.0,0.0,3.2613,3.4132,3.7612,3.9278,3.9067,4.0589,4.0981,4.016,4.0534,3.9729,3.7629,0.0,0.0,0.0,0.0,0.0,0.0,0.0,0.0,0.0,0.0,0.0,0.0,0.0,0.0,0.0,0.0,0.0,0.0,0.0,0.0,0.0,0.0,0.0,0.0,0.0,0.0,2.7382,2.661,2.6437,0.0,0.0,0.0,0.0,0.0,0.0,0.0,0.0,0.0,3.1643,3.3731,3.4869,3.4234,3.5318,3.5732,3.4407,3.5352,3.6008,3.5373,3.4071,3.3127,0.0,0.0,0.0,0.0,0.0,0.0,0.0,0.0,0.0,0.0,0.0,0.0,0.0,0.0,0.0,0.0,0.0,0.0,0.0,0.0,0.0,0.0,0.0,0.0,0.0,0.0,0.0,3.838,3.8288,0.0,0.0,0.0,0.0,0.0,0.0,0.0,0.0,0.0,0.0,0.0,3.9421,4.0112,0.0,0.0,0.0,0.0,0.0,0.0,0.0,0.0,0.0,0.0,0.0,0.0,3.3171,3.5263,3.8008,3.9492,3.9613,4.0816,4.1394,4.1294,4.1124,3.9556,3.6399,0.0,0.0,0.0,0.0,0.0,0.0,0.0,0.0,0.0,0.0,0.0,0.0,0.0,0.0,0.0,0.0,0.0,0.0,0.0,0.0,0.0,0.0,0.0,0.0,0.0,2.8424,0.0,0.0,0.0,0.0,0.0,0.0,0.0,0.0,0.0,0.0,0.0,3.1585,3.2361,3.4037,3.4904,3.4199,3.4938,3.5214,0.0,0.0,0.0,0.0,0.0,0.0,0.0,0.0,0.0,0.0,0.0,0.0,0.0,0.0,3.0393,2.9268,2.9285,2.9128,2.8129,0.0,0.0,0.0,0.0,0.0,0.0,0.0,0.0,0.0,0.0,0.0,0.0,0.0,0.0,4.1251,4.0879,3.946,0.0,0.0,0.0,0.0,0.0,0.0,0.0,0.0,4.3112,4.3534,4.266,4.3509,4.3419,0.0,4.1346,3.9462,0.0,0.0,0.0,0.0,0.0,0.0,0.0,0.0,3.4111,3.6481,3.8865,4.0357,4.0908,4.1858,4.2322,4.2338,4.1107,3.9174,3.6479,3.3761,3.1684,0.0,0.0,0.0,0.0,0.0,0.0,0.0,0.0,0.0,0.0,0.0,0.0,0.0,0.0,0.0,0.0,0.0,0.0,0.0,0.0,0.0,0.0,0.0,2.8731,0.0,0.0,0.0,0.0,0.0,0.0,0.0,0.0,0.0,2.9997,3.1202,3.2464,3.3495,3.476,3.5214,3.4234,0.0,0.0,0.0,0.0,0.0,0.0,0.0,3.3398,3.3565,3.2561,3.1603,3.1266,3.1344,3.1469,3.1662,0.0,0.0,3.0671,3.0661,3.0568,2.9619,3.007,3.0708,3.1032,3.0872,3.0686,0.0,0.0,0.0,0.0,0.0,0.0,0.0,0.0,4.4648,4.4199,0.0,4.2377,0.0,0.0,0.0,0.0,3.8958,4.0141,0.0,0.0,4.5963,4.6628,4.5726,4.6892,4.6971,4.5933,4.4621,4.3134,4.1467,3.7503,0.0,0.0,0.0,0.0,0.0,0.0,3.5484,3.782,4.0238,4.1886,4.2756,4.3633,4.3781,4.3081,4.0518,3.8734,3.7922,3.569,3.385,3.2429,3.1596,0.0,0.0,0.0,0.0,0.0,0.0,0.0,0.0,0.0,0.0,0.0,0.0,0.0,0.0,0.0,0.0,0.0,0.0,0.0,0.0,2.924,0.0,0.0,0.0,0.0,0.0,0.0,0.0,0.0,0.0,0.0,3.1826,3.2464,3.3446,3.4938,0.0,0.0,0.0,0.0,3.518,3.2352,3.3766,3.4697,3.3248,3.2461,3.2086,3.2211,0.0,0.0,3.1266,3.133,3.1444,3.1588,3.2367,3.288,3.2443,3.1847,3.1446,3.1445,3.0941,3.072,3.131,3.1075,3.0522,5.5188,0.0,0.0,0.0,0.0,4.8377,4.9064,4.9862,4.9346,4.8663,4.7815,4.623,0.0,0.0,0.0,0.0,0.0,0.0,4.574,4.7115,4.9722,5.0348,4.9351,5.0125,4.9614,4.793,4.6716,4.5234,4.3459,4.1032,3.8227,3.5198,0.0,0.0,0.0,0.0,3.726,3.9194,4.1573,4.2953,4.321,4.3474,4.2996,4.1801,4.1009,3.9986,3.87,3.6502,3.4878,3.3863,3.2138,0.0,0.0,0.0,0.0,0.0,0.0,0.0,0.0,0.0,0.0,0.0,0.0,0.0,0.0,0.0,0.0,0.0,0.0,0.0,3.0501,3.0715,3.0793,0.0,0.0,0.0,0.0,0.0,0.0,0.0,0.0,0.0,3.4037,3.4401,3.447,0.0,0.0,3.518,3.4214,3.4456,3.4421,3.3578,3.4421,0.0,3.4748,3.404,3.3597,3.3801,3.2826,3.2196,3.2739,3.2423,3.2106,3.2156,3.2464,3.2695,3.2747,3.2436,3.2185,3.2228,3.2083,3.223,3.2891,3.2487,3.1752,6.1911,5.6691,5.4622,5.3313,5.2713,5.3291,5.388,5.442,5.3948,5.3294,5.2495,5.0986,4.9158,4.7066,4.504,0.0,0.0,0.0,4.8604,4.9401,5.2031,5.2518,5.1253,5.1718,5.1309,5.0037,4.8554,4.7066,4.5575,4.3746,4.1194,3.7963,0.0,0.0,3.6361,3.6986,3.8254,4.0184,4.2011,4.3098,4.3375,4.3707,4.3031,4.1305,4.1204,4.0663,3.9469,3.728,3.5859,3.5385,3.3558,3.1718,0.0,0.0,0.0,0.0,0.0,0.0,0.0,0.0,0.0,0.0,0.0,2.7485,2.777,0.0,0.0,0.0,2.9097,3.0223,3.1597,3.1954,0.0,0.0,0.0,0.0,0.0,0.0,0.0,3.1995,3.2815,3.381,3.5042,3.5456,3.5352,3.4628,3.4904,3.4938,3.4199,0.0,3.4421,3.4165,3.4697,3.5152,3.4941,3.4584,3.4333,3.4523,3.3388,3.2581,3.295,3.2687,3.23,3.2036,3.2277,3.2672,3.285,3.2766,3.274,3.2858,3.2935,3.3081,3.3556,3.3264,3.2607,6.6857,6.4967,6.0965,5.8296,5.6722,5.768,5.8176,5.8364,5.84,5.7886,5.7019,5.6031,5.4118,5.1427,4.8027,0.0,4.802,4.9851,5.0787,5.0915,5.3433,5.3631,5.1988,5.2327,5.2327,5.1982,5.0223,4.8757,4.7554,4.5804,4.4018,4.221,3.9448,3.8286,3.8673,3.8069,3.8824,4.1013,4.1861,4.2591,4.3234,4.4045,4.3403,4.117,4.1238,4.0899,4.0079,3.8048,3.6897,3.6829,3.5351,3.3558,3.1529,0.0,0.0,0.0,0.0,0.0,0.0,0.0,0.0,0.0,0.0,0.0,0.0,0.0,0.0,0.0,3.0016,0.0,3.2213,3.2965,0.0,0.0,0.0,3.2882,3.33,3.2703,3.2704,3.3932,0.0,0.0,3.5152,3.5877,3.6063,3.5304,3.5214,3.4938,3.4283,3.4766,3.4973,3.4421,3.4869,3.5082,3.4718,3.4523,3.4447,3.4475,3.3318,3.23,3.2265,3.2195,3.1879,3.1352,3.1924,3.2601,3.285,3.2972,3.3147,3.3342,3.3371,3.3371,3.3422,3.3386,3.2879,7.0347,6.8743,6.7112,6.427,6.0949,6.132,6.1556,6.1667,6.1667,6.086,5.9478,5.8553,5.634,5.3231,5.1656,5.1452,5.2436,5.4196,5.4711,5.4312,5.5581,5.5595,5.4509,5.3913,5.3185,5.2374,5.1753,5.0259,4.8033,4.7322,4.6055,4.423,4.3306,4.1841,3.996,3.9623,4.0037,4.1152,4.1914,4.2117,4.1779,4.2997,4.2625,4.0451,4.1467,4.1407,4.0146,3.8497,3.7618,3.7584,3.5622,3.3998,3.2916,3.1799,0.0,0.0,0.0,0.0,0.0,0.0,0.0,0.0,0.0,2.9027,3.0226,0.0,3.0582,0.0,3.2119,3.3233,3.4076,3.4287,0.0,0.0,3.3507,3.2798,3.2259,3.2417,3.2695,3.2948,3.3914,3.48,3.5436,3.6157,3.6304,3.546,3.5275,3.5145,3.4973,3.5076,3.5352,3.5697,3.587,3.6036,3.5998,3.5234,3.4457,3.3845,3.2528,3.151,3.1493,3.1001,3.0739,3.1123,3.1501,3.2033,3.2743,3.3008,3.3147,3.3349,3.3393,3.3393,3.3393,3.3393,3.2922,7.2312,7.1101,7.0293,6.8376,6.575,6.4804,6.4196,6.3906,6.3539,6.2879,6.1961,6.031,5.8383,5.6218,5.4944,5.4711,5.5231,5.6177,5.6429,5.6071,5.6557,5.6116,5.4935,5.4407,5.3697,5.2783,5.1966,5.0736,4.9167,4.8488,4.7461,4.5999,4.5681,4.455,4.2693,4.1862,4.1826,4.2578,4.2568,4.2176,4.1452,4.2505,4.22,4.039,4.1461,4.1409,3.9993,3.8832,3.8048,3.7649,3.5864,3.4622,3.4212,3.3086,3.1788,0.0,0.0,0.0,0.0,0.0,0.0,0.0,0.0,0.0,0.0,0.0,3.2813,3.3771,3.4717,3.5352,3.5454,3.6069,3.6331,3.5921,3.5721,3.5374,3.4795,3.4675,3.4566,3.447,3.503,3.5542,3.5817,3.64,3.6591,3.6032,3.5835,3.5559,3.5249,3.518,3.5456,3.618,3.6284,3.6402,3.6643,3.5852,3.5039,3.4477,3.2967,3.1633,3.1247,3.058,3.0159,3.021,3.0834,3.1579,3.2184,3.2684,3.3055,3.3229,3.3304,3.3385,3.3378,3.3393,3.2922,7.3597,7.2899,7.1908,7.1064,7.022,6.7944,6.6549,6.5852,6.5044,6.453,6.409,6.1667,6.0162,5.9404,5.7827,5.7093,5.7116,5.7093,5.7079,5.6969,5.6969,5.6161,5.473,5.4509,5.4032,5.3298,5.183,5.092,5.055,4.9589,4.8612,4.7543,4.7205,4.6618,4.5766,4.4447,4.3846,4.4117,4.3285,4.2412,4.1551,4.227,4.1962,4.0651,4.1322,4.1064,3.9721,3.8948,3.8221,3.7508,3.6201,3.5495,3.5564,3.4768,3.3625,0.0,3.278,0.0,0.0,0.0,0.0,0.0,0.0,0.0,0.0,3.3604,3.533,3.6362,3.7162,3.7382,3.667,3.7955,3.8542,3.7786,3.8175,3.8444,3.812,3.7358,3.6814,3.663,3.6517,3.6399,3.6202,3.6616,3.6895,3.6676,3.643,3.6042,3.5525,3.5387,3.5628,3.6215,3.6339,3.6444,3.6594,3.6182,3.5757,3.5547,3.367,3.2055,3.1334,3.0369,2.9632,2.9351,3.0223,3.1184,3.1512,3.2295,3.2811,3.2845,3.306,3.3274,3.3364,3.3393,3.285,7.5542,7.5249,7.3156,7.2202,7.1908,7.0183,6.9339,6.9119,6.8348,6.6916,6.4934,6.2438,6.13,6.1006,5.9465,5.8744,5.8744,5.8744,5.84,5.7776,5.7776,5.7262,5.6308,5.5023,5.4326,5.4142,5.3225,5.2318,5.1553,5.1186,5.0213,4.8634,4.8446,4.7881,4.7016,0.0,0.0,0.0,4.2916,4.2184,4.1138,4.184,4.1747,4.0896,4.114,0.0,3.9504,3.8737,3.828,3.8104,3.7283,0.0,0.0,0.0,0.0,0.0,0.0,0.0,0.0,0.0,0.0,0.0,3.4764,3.5038,3.4969,3.5615,3.6347,3.7199,3.7991,3.8395,3.8285,3.9093,3.935,3.8579,3.8043,3.7411,3.6647,3.6337,3.6152,3.608,3.6564,3.6761,3.6558,3.6859,3.7071,3.6881,3.6506,3.627,3.6111,3.6077,3.6146,3.6305,3.6499,3.6623,3.6719,3.6236,3.5881,3.5441,3.3318,3.1598,3.1158,2.9527,2.8754,2.9492,3.0088,3.0685,3.1757,3.2368,3.2339,3.1916,3.248,3.3117,3.3349,3.3393,3.2922,7.613,7.5909,7.4015,7.3198,0.0,7.1996,7.148,7.1287,6.9623,6.776,6.5815,6.4163,6.2989,6.2071,6.0102,5.8964,5.8547,5.7409,5.7042,5.7373,5.7005,5.6822,5.6785,5.5978,5.517,5.4363,5.3188,5.236,5.1914,5.1412,5.0744,4.9872,5.0174,4.971,4.8447,4.8011,4.669,4.4543,4.4325,4.3482,4.1995,4.2368,4.2193,4.1321,4.1565,0.0,0.0,0.0,0.0,0.0,0.0,0.0,0.0,0.0,0.0,3.6988,3.697,3.6629,3.593,3.6369,3.6916,3.7515,3.8129,3.8152,3.7348,3.7784,3.8432,3.9203,4.001,4.0341,3.9958,4.0598,4.0781,3.9974,3.9166,3.8505,3.8056,3.7937,3.776,3.7421,3.7958,3.8158,3.739,3.7649,3.7755,3.7527,3.745,3.7284,3.6904,3.6525,3.6339,3.6402,3.6582,3.6705,3.6731,3.6571,3.6233,3.5671,3.4196,3.2581,3.1388,2.9913,2.8965,2.9035,2.9211,2.9725,3.0257,3.0915,3.127,3.0993,3.1377,3.1861,3.2155,3.2821,3.2922,7.6313,7.6166,7.4882,7.4401,7.4412,7.3573,7.3038,7.2576,7.0156,0.0,0.0,6.5999,6.4824,6.3539,6.0982,5.9391,5.8474,5.6271,5.5904,5.6969,5.6308,5.6381,5.7005,5.6859,5.6124,5.4766,5.3188,5.2417,5.238,5.161,5.1132,5.1096,5.1683,5.1189,4.9647,4.8746,4.7687,4.6524,4.6148,4.51,4.335,4.3273,4.286,4.2115,4.2124,4.1597,4.0401,4.0492,3.9878,3.8471,3.7911,3.827,3.9481,3.8884,3.8829,3.9625,4.0239,4.0366,3.9932,3.9965,4.0287,4.0955,4.1325,4.0855,3.9239,3.9753,4.0377,4.1058,4.1846,4.2029,4.1389,4.2029,4.2176,4.1389,4.0708,4.023,3.9937,4.0047,3.9701,3.9166,3.9407,3.9495,3.8495,3.851,3.8569,3.8285,3.844,3.8429,3.7681,3.6865,3.6381,3.6464,3.6623,3.6745,3.6791,3.6911,3.6724,3.6162,3.5285,3.395,3.2125,3.0896,2.9772,2.8614,2.8719,2.8996,2.8904,2.9626,3.0047,2.9937,3.0295,3.0555,3.0786,3.1873,3.2365,7.7157,7.7047,7.6346,7.6195,7.6347,7.4856,7.372,7.2706,7.0772,6.9779,6.9449,6.7283,6.6586,6.6843,6.3723,6.1851,6.1006,5.9318,5.829,5.785,5.7703,5.774,5.7813,5.7116,5.6675,5.6345,5.484,5.4069,5.3959,5.3261,5.2527,5.1903,5.194,5.1189,4.9647,4.8746,4.8194,4.7987,4.7117,4.6041,4.4834,4.4129,4.3732,4.3568,4.2481,4.1596,4.1016,4.1618,4.1582,4.0703,4.1196,4.1635,4.1765,4.1069,4.1013,4.1782,4.1965,4.2258,4.2807,4.2915,4.2675,4.2162,4.2746,4.247,4.0948,4.0875,4.0985,4.1132,4.1882,4.2286,4.2176,4.2837,4.2947,4.2286,4.2029,4.1442,4.0157,4.0561,4.0634,3.9827,3.9827,3.9857,3.9395,3.9157,3.8992,3.8725,3.8989,3.886,3.7972,3.7012,3.6534,3.6506,3.665,3.6786,3.6811,3.6911,3.6865,3.6884,3.5655,3.4477,3.3231,3.2055,3.0931,2.9948,2.976,2.9647,2.9467,2.9639,2.9542,2.9133,2.9581,3.0101,2.9853,3.0612,3.097,7.7547,7.7496,7.704,7.6976,7.7069,7.5414,7.4131,7.3193,7.2142,7.1278,7.0624,6.9119,6.7907,6.688,6.4567,6.2328,6.0236,5.9098,5.8364,5.7997,5.7997,5.8217,5.8621,5.829,5.7643,5.6785,5.6088,5.528,5.4436,5.4032,5.3445,5.2674,5.2234,5.161,5.0875,5.0068,4.9664,4.9627,4.828,4.7024,4.5985,4.5662,4.5263,4.4788,4.3833,4.3012,4.2416,4.2323,4.1956,4.1132,4.1479,4.1846,4.2286,4.2359,4.2763,4.3571,4.4011,4.4415,4.4782,4.4782,4.4452,4.37,4.4342,4.4121,4.2506,4.2433,4.2396,4.2396,4.2763,4.2947,4.2947,4.3277,4.3351,4.2983,4.258,4.1992,4.1405,4.1515,4.1405,4.0744,4.0965,4.0936,4.028,4.0311,4.0346,4.0138,3.9842,3.9236,3.8678,3.7519,3.6664,3.6623,3.6705,3.6806,3.6871,3.695,3.6794,3.6443,3.6182,3.5249,3.3967,3.3073,3.2651,3.1528,3.0688,2.9994,2.976,2.9075,2.858,2.8301,2.8534,2.8905,2.8925,2.9269,2.9583,7.8062,7.8016,7.7766,7.7653,7.7504,7.6316,7.5095,7.4001,7.3647,7.2913,7.1857,7.0891,6.9338,6.7353,6.5551,6.3162,6.0491,5.9338,5.8823,5.864,5.864,5.8897,5.9241,5.9278,5.8543,5.7257,5.6963,5.6118,5.4853,5.4559,5.4081,5.3251,5.2463,5.2059,5.2059,5.1434,5.1066,5.0809,4.9701,4.8646,4.7644,4.7338,4.6791,4.6168,4.5333,4.4527,4.3791,4.3351,4.2653,4.1735,4.1792,4.2196,4.28,4.3424,4.4195,4.5149,4.5847,4.6177,4.6177,4.6177,4.581,4.5039,4.5553,4.5369,4.4249,4.3864,4.3698,4.3551,4.3424,4.3461,4.3497,4.3698,4.3681,4.3497,4.313,4.2727,4.2396,4.247,4.2249,4.1609,4.1956,4.1942,4.1423,4.145,4.1632,4.1554,4.0763,4.0004,3.9585,3.8295,3.7261,3.7036,3.6905,3.6786,3.6911,3.697,3.6759,3.6108,3.6549,3.5987,3.4739,3.4618,3.4266,3.2897,3.1563,3.0601,2.9943,2.8942,2.8112,2.7837,2.8,2.8103,2.8271,2.8448,2.8714,7.8804,7.8816,7.894,7.8742,7.8293,7.816,7.7127,7.5562,7.5197,7.4591,7.3624,7.2229,7.0998,6.9864,6.7664,6.5595,6.3761,6.2322,6.1274,6.0609,6.0549,6.0217,5.9686,5.9649,5.9109,5.826,5.7617,5.6826,5.5808,5.5032,5.4293,5.3461,5.2648,5.2299,5.2279,5.2225,5.1819,5.1117,5.1634,5.1443,5.0415,4.8928,4.8121,4.8047,4.6562,4.5388,4.4709,4.5223,4.4856,4.3515,4.3975,4.4361,4.4452,4.4562,4.5278,4.6709,4.6929,4.7003,4.7003,4.7003,4.6636,4.592,4.5883,4.5883,4.559,4.5002,4.4268,4.3754,4.3534,4.3497,4.3534,4.4085,4.4158,4.3588,4.3938,4.392,4.2727,4.2947,4.3094,4.2286,4.2213,4.2216,4.1948,4.19,4.2177,4.2612,4.1847,4.1154,4.076,3.9533,3.8312,3.8027,3.7441,3.6901,3.6926,3.693,3.6958,3.6888,3.6939,3.6552,3.592,3.553,3.5249,3.4161,3.2634,3.1581,3.0477,2.9351,2.8599,2.8178,2.8091,2.8081,2.8194,2.8479,2.872,7.9184,7.9208,7.9433,7.9204,7.8736,7.8622,7.7855,7.6625,7.5856,7.5329,7.4854,7.3293,7.2056,7.1077,6.9584,6.7755,6.5702,6.5008,6.4,6.2844,6.2769,6.2321,6.1595,6.1558,6.0886,5.9692,5.9318,5.846,5.7116,5.5809,5.4988,5.4652,5.3887,5.3496,5.3514,5.3943,5.3793,5.3066,5.3721,5.3552,5.2431,5.078,4.9576,4.9023,4.7939,4.6929,4.6195,4.5993,4.559,4.4966,4.5259,4.5406,4.5406,4.5865,4.6415,4.7076,4.7553,4.781,4.7829,4.781,4.7443,4.6654,4.7058,4.6948,4.603,4.603,4.5755,4.4966,4.4048,4.3497,4.3588,4.3791,4.3845,4.3571,4.3791,4.3718,4.313,4.3277,4.3204,4.2433,4.2286,4.2086,4.1759,4.1908,4.246,4.303,4.2539,4.1923,4.1578,4.0546,3.9516,3.8848,3.8362,3.791,3.7347,3.726,3.7336,3.7336,3.7279,3.708,3.7235,3.6383,3.5763,3.5479,3.374,3.2406,3.1703,3.044,2.9492,2.9086,2.9182,2.9324,2.9503,2.969,2.9808,8.0059,8.0043,8.0026,7.9754,7.9323,7.9225,7.8689,7.781,7.7021,7.6445,7.5839,7.4454,7.3257,7.2205,7.0771,6.8821,6.6886,6.649,6.5605,6.4289,6.4214,6.3782,6.3049,6.3012,6.2184,6.0792,6.0566,5.9701,5.8046,5.6391,5.5601,5.5488,5.4794,5.4364,5.4476,5.517,5.532,5.4835,5.539,5.5305,5.441,5.3121,5.1723,5.0365,4.9444,4.869,4.8103,4.7572,4.7131,4.6911,4.6911,4.6911,4.693,4.7462,4.7883,4.8159,4.8673,4.8893,4.8673,4.8673,4.8416,4.7902,4.8343,4.8269,4.7535,4.7572,4.7498,4.6948,4.5662,4.4872,4.4212,4.4342,4.4415,4.4212,4.4139,4.4085,4.3864,4.3681,4.3294,4.2727,4.247,4.2103,4.1699,4.2193,4.2944,4.3382,4.3054,4.2565,4.235,4.161,4.0633,3.966,3.9388,3.876,3.7828,3.7632,3.7721,3.7721,3.7613,3.7683,3.8031,3.6854,3.6014,3.5552,3.3881,3.2722,3.2125,3.1177,3.0315,3.0175,3.0152,3.0278,3.0183,3.0534,3.0772,8.1691,8.1519,8.0774,8.0354,8.0373,8.0296,7.9914,7.9075,7.8999,7.8159,7.6651,7.5659,7.4875,7.3736,7.0914,6.8633,6.7106,6.6408,6.5521,6.4653,6.4577,6.4068,6.3313,6.3238,6.2464,6.1158,6.1082,6.0158,5.8404,5.6689,5.5767,5.5783,5.512,5.4651,5.4764,5.5444,5.5767,5.5686,5.638,5.6587,5.6313,5.6088,5.4627,5.223,5.1132,5.0712,5.0582,5.0582,5.0178,4.9427,4.941,4.939,4.939,4.9427,4.9757,5.0418,5.0582,5.0308,4.9647,4.9556,4.952,4.9463,4.9483,4.9794,5.0071,4.9647,4.9317,4.939,4.8511,4.75,4.6324,4.6416,4.6471,4.5902,4.5773,4.548,4.4782,4.4267,4.3588,4.3294,4.2687,4.2246,4.2193,4.3015,4.3359,4.3577,4.3664,4.3574,4.3272,4.267,4.1852,4.0929,4.0165,3.9276,3.8195,3.7981,3.8068,3.8051,3.7983,3.788,3.7381,3.6897,3.6429,3.5732,3.434,3.3248,3.2546,3.1807,3.1102,3.0766,3.059,3.0596,3.1057,3.0757,3.108,8.1461,8.0888,8.0086,7.9742,7.9665,7.9169,7.9016,7.9263,7.871,7.8137,7.7258,7.5539,7.4201,7.3306,7.1093,6.9749,6.914,6.8341,6.7237,6.602,6.5905,6.5449,6.4688,6.465,6.4095,6.3144,6.2953,6.2078,6.0388,5.8714,5.7915,5.7686,5.6545,5.586,5.5936,5.6164,5.6088,5.5731,5.6717,5.698,5.6392,5.6634,5.6253,5.5137,5.3896,5.3048,5.2552,5.2515,5.2146,5.1372,5.1335,5.1077,5.0634,5.056,5.0652,5.0946,5.0983,5.0873,5.0597,5.0597,5.056,5.056,5.056,5.0708,5.0853,5.0667,5.0444,5.037,5.0242,4.9617,4.9156,4.8494,4.7868,4.7647,4.7537,4.7206,4.6544,4.6119,4.5454,4.3942,4.2578,4.1915,4.2468,4.2779,4.316,4.3673,4.3816,4.3832,4.3812,4.3553,4.2971,4.2152,4.1362,4.0483,3.9517,3.8716,3.8428,3.838,3.8352,3.8427,3.8149,3.7182,3.6559,3.6078,3.4836,3.3665,3.2866,3.2563,3.1872,3.1888,3.1659,3.1596,3.2087,3.1967,3.2291,8.1538,8.0506,7.9895,7.9531,7.9263,7.8672,7.8596,7.8825,7.8252,7.7717,7.6876,7.5042,7.3628,7.2482,7.103,7.0402,7.0304,6.954,6.8432,6.7133,6.6827,6.6407,6.5872,6.5528,6.4993,6.4229,6.3885,6.2968,6.1631,6.0217,5.9415,5.8981,5.7695,5.6855,5.6677,5.66,5.6282,5.6103,5.7,5.7353,5.7066,5.7608,5.7859,5.7594,5.6725,5.5842,5.4984,5.4947,5.4576,5.385,5.3702,5.3256,5.2289,5.2141,5.2141,5.2141,5.2141,5.2141,5.2141,5.2141,5.2141,5.2141,5.2141,5.2122,5.2048,5.1915,5.1799,5.1704,5.1463,5.1352,5.1094,5.0118,4.9362,4.9269,4.9066,4.8587,4.7813,4.7481,4.6205,4.421,4.2955,4.2474,4.2564,4.2855,4.3278,4.3844,4.3913,4.3961,4.4008,4.3986,4.3695,4.2838,4.2236,4.1265,4.0271,3.9427,3.8866,3.8741,3.8554,3.8713,3.8531,3.7544,3.6797,3.6252,3.5325,3.4139,3.3418,3.3131,3.3039,3.3039,3.284,3.2634,3.2979,3.3299,3.3323,8.1996,8.0659,8.0468,7.9856,7.9187,7.8996,7.8672,7.8022,7.7946,7.7105,7.5921,7.4622,7.3361,7.1871,7.0877,7.0402,7.0266,6.9655,6.8814,6.7897,6.7209,6.6827,6.656,6.5872,6.5184,6.442,6.3465,6.2624,6.1936,6.1019,6.0141,5.9262,5.8536,5.7734,5.6753,5.6855,5.6664,5.6803,5.7437,5.8049,5.8699,5.9343,5.9647,5.9479,5.9351,5.8849,5.7917,5.7844,5.7339,5.6664,5.6551,5.5893,5.4525,5.4282,5.4317,5.417,5.4225,5.4242,5.4149,5.4057,5.3982,5.3982,5.4149,5.3913,5.3717,5.3572,5.342,5.3173,5.2727,5.2338,5.2247,5.1675,5.1064,5.0836,5.0116,4.9397,4.8624,4.7813,4.6481,4.4465,4.3742,4.3451,4.3061,4.3458,4.3971,4.4061,4.3998,4.4008,4.4023,4.4023,4.3605,4.3024,4.26,4.194,4.0969,4.0037,3.9557,3.9121,3.8847,3.8784,3.8506,3.7758,3.7314,3.6699,3.5471,3.4304,3.361,3.3321,3.3321,3.3321,3.3335,3.3401,3.3508,3.3684,3.3807,8.2378,8.127,8.0124,7.9169,7.8366,7.7755,7.7335,7.7105,7.7105,7.68,7.6112,7.4813,7.359,7.2444,7.1107,7.0402,7.0364,7.0113,6.9616,6.8852,6.8508,6.7782,6.6865,6.6445,6.6139,6.5834,6.5031,6.4496,6.3962,6.2777,6.1936,6.1516,6.0255,5.9529,5.9084,5.8116,5.7504,5.7581,5.8279,5.9054,5.9851,6.0622,6.0997,6.0951,6.0951,6.0555,5.9695,5.9261,5.8641,5.7849,5.7795,5.7305,5.6455,5.6229,5.5927,5.5421,5.5324,5.5061,5.4592,5.4533,5.4608,5.4533,5.4533,5.4468,5.4351,5.4216,5.4092,5.3982,5.3665,5.3553,5.3479,5.3403,5.266,5.1267,5.0802,5.0303,4.9326,4.781,4.6251,4.5169,4.4851,4.4686,4.4554,4.4809,4.4825,4.4751,4.4395,4.4076,4.4023,4.4039,4.3955,4.3579,4.3082,4.26,4.1792,4.0873,4.0133,3.9379,3.8899,3.8383,3.8145,3.8125,3.7682,3.7067,3.5805,3.487,3.4132,3.3839,3.3949,3.3766,3.378,3.3799,3.3807,3.39,3.3954,8.2837,8.1729,8.0659,7.9513,7.8481,7.787,7.7258,7.6761,7.6685,7.6341,7.5615,7.4698,7.3743,7.2902,7.1833,7.1183,7.0954,7.1221,7.0916,7.0075,6.9387,6.8585,6.763,6.7247,6.7133,6.698,6.6292,6.5719,6.5337,6.4076,6.3236,6.2701,6.1516,6.0637,6.0332,5.9071,5.823,5.8077,5.8689,5.9376,5.995,6.0714,6.1134,6.1134,6.1134,6.0867,6.0394,6.0038,5.9463,5.8704,5.8325,5.7908,5.743,5.7354,5.7165,5.6747,5.6558,5.6368,5.5875,5.5958,5.5882,5.5882,5.5873,5.5882,5.5739,5.5529,5.54,5.532,5.4969,5.4764,5.4781,5.4547,5.3729,5.2289,5.1897,5.1268,5.008,4.8218,4.6999,4.6445,4.6162,4.5976,4.5938,4.5938,4.5736,4.5475,4.496,4.4385,4.4274,4.4109,4.4085,4.4002,4.3652,4.3138,4.269,4.1785,4.0748,3.9793,3.8861,3.811,3.7537,3.7868,3.7764,3.7588,3.666,3.6224,3.5564,3.5215,3.5128,3.4736,3.4368,3.4284,3.4286,3.4079,3.408,8.3372,8.1996,8.1805,8.0773,7.9398,7.9187,7.8175,7.6838,7.6685,7.5883,7.466,7.4316,7.3819,7.3208,7.2826,7.2329,7.1985,7.2406,7.2367,7.145,7.0419,6.954,6.9082,6.8356,6.7973,6.7859,6.7247,6.6483,6.5796,6.4879,6.3885,6.3197,6.2357,6.1363,6.0752,5.972,5.8956,5.8498,5.8918,5.93,5.9477,6.0179,6.0599,6.0613,6.0651,6.0599,6.0408,6.0328,5.9984,5.921,5.8596,5.8314,5.8088,5.8039,5.8113,5.7908,5.7949,5.7821,5.7848,5.7581,5.7659,5.7634,5.7685,5.8017,5.7516,5.7211,5.708,5.696,5.6405,5.6011,5.5875,5.5595,5.4828,5.3873,5.3005,5.1969,5.0654,4.9096,4.8168,4.7928,4.7544,4.7093,4.7093,4.7055,4.6717,4.6252,4.5908,4.5415,4.5063,4.4922,4.452,4.4378,4.4341,4.3953,4.3565,4.2766,4.1787,4.083,3.9764,3.8744,3.7863,3.8057,3.8039,3.7873,3.7779,3.7387,3.684,3.6305,3.5932,3.5623,3.5266,3.4969,3.4735,3.46,3.4339,8.4021,8.3524,8.234,8.1156,8.0162,7.9569,7.8346,7.68,7.6723,7.6168,7.5174,7.4469,7.4125,7.3819,7.3284,7.2864,7.2805,7.2957,7.2941,7.2635,7.2291,7.1221,7.0151,6.9273,6.8852,6.8814,6.8508,6.8088,6.7247,6.633,6.5528,6.4726,6.3809,6.3006,6.2242,6.1325,6.0561,5.9873,5.9911,6.037,6.0828,6.1134,6.1287,6.1287,6.1287,6.0981,6.0499,6.0384,6.0346,6.0102,5.9873,5.9759,5.9644,5.962,5.9352,5.888,5.8765,5.8563,5.8144,5.8068,5.8055,5.8067,5.8258,5.8042,5.7953,5.7823,5.7704,5.7582,5.7311,5.7273,5.7249,5.7153,5.6646,5.5649,5.4048,5.2326,5.1156,4.9962,4.9108,4.8586,4.841,4.8359,4.8283,4.8245,4.8094,4.7727,4.7232,4.6725,4.6296,4.6129,4.5909,4.5546,4.5358,4.4931,4.4377,4.3662,4.2861,4.1983,4.0979,3.9986,3.9205,3.8859,3.8606,3.8214,3.8527,3.8328,3.748,3.6733,3.6559,3.652,3.6281,3.602,3.5541,3.528,3.4906,8.4729,8.4346,8.339,8.228,8.117,8.0673,7.9486,7.8032,7.7496,7.6884,7.608,7.52,7.4817,7.4779,7.4358,7.3937,7.3707,7.3975,7.3937,7.3669,7.3593,7.2603,7.1123,7.0113,6.9693,6.9655,6.9349,6.8929,6.8279,6.7286,6.6445,6.5757,6.4764,6.3962,6.335,6.2204,6.1402,6.0981,6.0905,6.1172,6.1593,6.1975,6.186,6.1822,6.1898,6.1898,6.1478,6.144,6.1172,6.0613,6.0384,6.0384,6.0384,6.045,6.0182,5.9685,5.9712,5.9523,5.9217,5.909,5.914,5.9216,5.9202,5.9202,5.9216,5.9089,5.9051,5.9064,5.9013,5.9013,5.8949,5.8783,5.8323,5.7647,5.5951,5.4242,5.2927,5.1747,5.1089,5.0799,5.0596,5.0203,4.9936,4.9848,4.9429,4.8884,4.8226,4.777,4.7391,4.7416,4.725,4.6809,4.6518,4.6189,4.5811,4.5168,4.4436,4.3485,4.2316,4.1267,4.0591,3.9986,3.9589,3.9364,3.9397,3.9168,3.8348,3.7778,3.7704,3.7627,3.731,3.6901,3.6422,3.6082,3.5656,8.5355,8.4721,8.4645,8.3742,8.2476,8.2169,8.104,7.9659,7.8722,7.784,7.692,7.6153,7.5715,7.5692,7.5392,7.5216,7.4641,7.5124,7.5101,7.4718,7.4357,7.3504,7.2204,7.1063,7.0642,7.0435,6.9709,6.9327,6.883,6.7645,6.6919,6.6415,6.5229,6.445,6.3953,6.2715,6.1936,6.1784,6.1745,6.1913,6.2194,6.2577,6.2476,6.2108,6.249,6.2897,6.2973,6.3035,6.2629,6.11,6.0804,6.0842,6.078,6.0797,6.0824,6.0799,6.0801,6.0725,6.0828,6.0802,6.0839,6.094,6.1015,6.105,6.1027,6.0976,6.1003,6.0991,6.0973,6.0669,6.0438,6.0,5.9631,5.9273,5.8658,5.7489,5.6014,5.432,5.3607,5.4306,5.3745,5.2903,5.2215,5.1744,5.1285,5.0138,4.9557,4.9255,4.8788,4.855,4.8236,4.7743,4.7604,4.7529,4.7162,4.6756,4.6004,4.5125,4.3764,4.2739,4.2042,4.1455,4.099,4.0672,4.0143,3.9851,3.9498,3.9133,3.8927,3.8577,3.8214,3.7703,3.7219,3.6986,3.6636,8.5737,8.5633,8.4963,8.4515,8.4028,8.2787,8.1601,8.0526,7.9615,7.841,7.7243,7.6821,7.636,7.5731,7.5785,7.5577,7.544,7.5632,7.5577,7.5424,7.4734,7.4373,7.352,7.2324,7.1548,7.1264,7.0566,6.9878,6.9275,6.8832,6.8059,6.6916,6.6489,6.558,6.4432,6.3953,6.3274,6.2777,6.2624,6.3012,6.3399,6.3222,6.3044,6.287,6.3061,6.3458,6.4123,6.4723,6.4876,6.4312,6.3246,6.2476,6.2404,6.2355,6.232,6.2207,6.1888,6.1876,6.235,6.2068,6.2016,6.2514,6.2538,6.2743,6.2781,6.2666,6.2704,6.2627,6.2204,6.1601,6.105,6.0704,6.055,6.0358,5.9781,5.9335,5.9211,5.7997,5.7013,5.6998,5.6472,5.5522,5.409,5.381,5.2965,5.1659,5.1013,5.0741,5.0276,4.9762,4.9285,4.8823,4.8659,4.8559,4.8166,4.7655,4.6811,4.6069,4.4881,4.4075,4.3395,4.2557,4.1976,4.1309,4.0594,4.0449,4.0636,4.0154,3.9868,3.9474,3.9252,3.9014,3.8698,3.8244,3.7802,8.6009,8.5978,8.5244,8.4712,8.4188,8.2993,8.1908,8.1023,8.0053,7.916,7.8353,7.793,7.7239,7.6509,7.6433,7.6279,7.5879,7.5856,7.5856,7.5741,7.5396,7.5242,7.4943,7.3806,7.2786,7.1902,7.093,7.0279,6.9934,6.9521,6.8861,6.81,6.7673,6.7055,6.5992,6.5259,6.4579,6.4129,6.3723,6.3996,6.4614,6.4465,6.4211,6.4266,6.4318,6.4701,6.5569,6.6427,6.6811,6.6514,6.5537,6.436,6.3674,6.328,6.3129,6.3053,6.2862,6.2721,6.2989,6.2925,6.2783,6.3308,6.3308,6.3308,6.3308,6.3308,6.3308,6.3243,6.2897,6.2435,6.2012,6.155,6.1473,6.1254,6.0627,6.0512,6.0858,5.9588,5.8462,5.855,5.8,5.6692,5.578,5.5434,5.4318,5.2815,5.2354,5.2043,5.132,5.0807,5.0391,5.0041,4.9811,4.9532,4.9127,4.8449,4.7458,4.6626,4.5599,4.5082,4.4648,4.3729,4.2772,4.2287,4.1915,4.1944,4.1963,4.1414,4.1022,4.1086,4.0954,4.0677,4.037,4.0034,3.9564,8.6037,8.5853,8.5435,8.474,8.3915,8.3051,8.2226,8.1487,8.0468,7.9931,7.97,7.9022,7.8175,7.7444,7.7251,7.6828,7.6236,7.6005,7.6005,7.5967,7.5928,7.589,7.5644,7.4793,7.3782,7.2249,7.1597,7.1199,7.0969,7.0371,7.0277,6.9755,6.9011,6.8484,6.7965,6.6825,6.5839,6.5488,6.5073,6.5231,6.582,6.5862,6.5775,6.6033,6.6085,6.6469,6.7289,6.7965,6.8388,6.8373,6.7491,6.634,6.5241,6.4116,6.3617,6.3655,6.3617,6.368,6.3911,6.3846,6.3808,6.3692,6.3935,6.3858,6.3897,6.3935,6.3974,6.382,6.3666,6.3397,6.3281,6.2666,6.2243,6.2024,6.1435,6.155,6.1512,6.0127,5.9665,5.9742,5.9627,5.8665,5.7434,5.6665,5.5318,5.4203,5.3818,5.3231,5.2459,5.1687,5.1184,5.0653,5.0298,5.0123,4.9767,4.8639,4.7759,4.7127,4.6196,4.5668,4.5419,4.4787,4.3953,4.3819,4.3587,4.3328,4.2917,4.2355,4.2229,4.2626,4.2345,4.1721,4.1632,4.1771,4.1151,8.5608,8.452,8.5098,8.4959,8.4199,8.3242,8.2681,8.2418,8.1399,8.0632,7.999,7.9797,7.8847,7.7805,7.7483,7.6982,7.6353,7.6173,7.6198,7.6198,7.6198,7.6198,7.6006,7.5427,7.4667,7.4144,7.3342,7.2861,7.2701,7.2677,7.202,7.1573,7.0777,7.0043,6.9323,6.8282,6.7295,6.6845,6.6528,6.6825,6.7379,6.7253,6.7126,6.7628,6.7704,6.8204,6.8871,6.9281,6.9434,6.9319,6.7897,6.7435,6.7089,6.6064,6.541,6.5321,6.4923,6.4936,6.5359,6.5474,6.5474,6.5628,6.5936,6.5974,6.5628,6.5474,6.5474,6.532,6.4859,6.4243,6.3385,6.3397,6.2858,6.2512,6.2512,6.2589,6.2204,6.1716,6.1243,6.1396,6.1166,6.0589,5.9011,5.7896,5.7088,5.6049,5.5318,5.4472,5.349,5.2536,5.1649,5.108,5.0521,5.0472,5.0336,4.8959,4.7837,4.7473,4.6675,4.5751,4.555,4.553,4.5222,4.4953,4.432,4.3581,4.3277,4.3194,4.3196,4.336,4.3015,4.2631,4.2728,4.2747,4.1942,8.4847,8.4221,8.4242,8.4064,8.3662,8.2837,8.2396,8.2271,8.1758,8.1031,8.0411,8.0129,7.9238,7.801,7.765,7.7196,7.6566,7.6383,7.6422,7.6422,7.6422,7.6383,7.6411,7.5918,7.5791,7.5603,7.5175,7.4295,7.3556,7.3455,7.338,7.2893,7.2057,7.1414,7.0758,6.9654,6.8844,6.8293,6.796,6.8154,6.8963,6.8604,6.8719,6.8578,6.8975,6.9399,6.9669,6.981,6.981,6.9464,6.8115,6.7884,6.7833,6.7449,6.6744,6.7013,6.6744,6.6667,6.709,6.7205,6.7205,6.7244,6.759,6.759,6.7321,6.7205,6.7128,6.7051,6.6974,6.6436,6.6128,6.5128,6.4512,6.4089,6.3705,6.3397,6.3281,6.2974,6.2832,6.2639,6.1678,6.0754,5.9781,5.8973,5.8704,5.7973,5.6983,5.5818,5.4587,5.3595,5.263,5.1579,5.1048,5.0768,5.0566,4.9419,4.8308,4.7838,4.7174,4.6287,4.586,4.5945,4.6031,4.6001,4.5175,4.4614,4.4453,4.4648,4.44,4.4228,4.4316,4.4298,4.3989,4.3593,4.2855,8.4076,8.3826,8.3584,8.3299,8.2942,8.2494,8.2156,8.1929,8.18,8.1367,8.0754,8.0434,7.9571,7.8336,7.7676,7.7209,7.6643,7.6635,7.6626,7.6626,7.6618,7.6635,7.6635,7.6838,7.689,7.6833,7.6756,7.5954,7.475,7.4482,7.4444,7.4351,7.3644,7.3106,7.2889,7.1433,7.0539,6.9767,6.9278,6.9262,6.9903,7.044,7.0308,6.9535,7.0115,7.0397,7.001,6.9701,6.943,6.8917,6.8055,6.7542,6.8281,6.7903,6.7935,6.8681,6.8603,6.8436,6.8398,6.859,6.8436,6.8167,6.85,6.8538,6.8321,6.8129,6.8244,6.8398,6.8282,6.8167,6.7705,6.6949,6.6153,6.5589,6.4665,6.4049,6.4381,6.4304,6.3907,6.3291,6.2086,6.1151,6.0381,5.9935,5.9665,5.9319,5.8357,5.7126,5.5934,5.4979,5.3898,5.2478,5.1628,5.1196,5.0708,4.9908,4.9027,4.8529,4.776,4.6864,4.6617,4.6505,4.6722,4.7079,4.7248,4.6784,4.6452,4.6151,4.6095,4.6086,4.6095,4.574,4.5021,4.456,4.4021,8.3532,8.2403,8.3804,8.3638,8.2523,8.2897,8.2713,8.2013,8.1905,8.1859,8.1447,8.0894,8.0046,7.8995,7.7633,7.7042,7.6855,7.6901,7.6876,7.6837,7.6791,7.683,7.6933,7.7626,7.7842,7.7888,7.7959,7.7299,7.6388,7.6176,7.6438,7.6507,7.5449,7.5157,7.5042,7.3161,7.2013,7.1236,7.0451,7.0451,7.1314,7.2517,7.2556,7.2246,7.1965,7.149,7.0347,6.9726,6.9037,6.8183,6.7182,6.7304,6.8394,6.8605,6.9385,6.977,6.9477,6.8398,6.8706,6.9167,6.9321,6.9013,6.9206,6.9038,6.8898,6.8706,6.8706,6.8398,6.8513,6.8629,6.859,6.7718,6.6858,6.6444,6.6094,6.582,6.5947,6.5903,6.5495,6.5003,6.4127,6.254,6.135,6.097,6.0589,6.0242,5.9665,5.8407,5.7176,5.6126,5.5143,5.3744,5.2423,5.1913,5.1167,5.0353,4.9692,4.9144,4.8326,4.7524,4.7408,4.7364,4.7935,4.8287,4.8574,4.8955,4.8786,4.8469,4.8086,4.7803,4.7699,4.6796,4.571,4.5364,4.494,8.2801,8.224,8.299,8.2925,8.2343,8.2647,8.2561,8.2235,8.2138,8.1855,8.1387,8.1036,8.0334,7.9432,7.8657,7.8194,7.7804,7.7677,7.7409,7.7092,7.7053,7.7253,7.7687,7.8116,7.8428,7.8881,7.8969,7.8896,7.8135,7.7258,7.6957,7.7081,7.6156,7.544,7.6288,7.4483,7.3192,7.2414,7.1948,7.1948,7.2383,7.2927,7.3239,7.2842,7.2414,7.1753,7.1014,7.019,6.9653,6.9024,6.837,6.8426,6.9437,7.003,7.0764,7.1695,7.1735,7.0992,7.0142,7.0258,7.0142,7.0014,7.0167,7.0206,6.9898,6.9783,6.9783,6.9821,6.9821,6.9821,6.9719,6.9117,6.8678,6.817,6.7525,6.7774,6.7726,6.7464,6.7222,6.6685,6.6041,6.4475,6.2987,6.2358,6.1885,6.1334,6.064,5.9433,5.8063,5.6778,5.5871,5.4955,5.3731,5.2661,5.1808,5.0952,5.0268,4.964,4.8878,4.8282,4.8207,4.835,4.9168,4.9774,5.017,5.053,5.0875,5.0472,4.9806,4.9491,4.9219,4.8247,4.719,4.571,4.5094,8.2293,8.2293,8.2528,8.2489,8.2332,8.2528,8.2485,8.229,8.229,8.1939,8.1396,8.108,8.0495,7.9834,7.9593,7.9197,7.8738,7.8741,7.835,7.7921,7.7804,7.8032,7.8416,7.8696,7.932,7.9717,7.9896,7.9896,7.9448,7.8618,7.7851,7.776,7.7428,7.7032,7.6598,7.5669,7.4466,7.3019,7.3414,7.3526,7.3448,7.3603,7.3598,7.3247,7.269,7.2145,7.1677,7.1488,7.1182,7.0598,7.0214,7.0242,7.1083,7.1497,7.2069,7.2841,7.3119,7.2855,7.2016,7.1749,7.1633,7.153,7.1376,7.1364,7.162,7.1491,7.1491,7.1556,7.162,7.162,7.1402,7.0786,7.0185,6.9611,6.9014,6.9433,6.9461,6.8449,6.7984,6.7774,6.7154,6.6506,6.5142,6.4087,6.3294,6.254,6.1553,6.0394,5.9138,5.7757,5.6925,5.62,5.5582,5.4327,5.3168,5.2211,5.1291,5.051,4.9784,4.9683,5.0086,5.0357,5.097,5.1444,5.1788,5.2489,5.3049,5.2298,5.1509,5.1291,5.0915,4.991,4.8718,4.7015,4.5406,8.2293,8.2371,8.3074,8.2957,8.2371,8.3113,8.2957,8.2332,8.2293,8.2254,8.1981,8.1396,8.0654,8.0029,7.999,7.9873,7.9639,7.9639,7.9444,7.9405,7.9444,7.8975,7.917,7.9678,8.0341,8.0029,8.0654,8.1044,8.0849,8.0442,8.0201,8.0449,7.9248,7.9814,7.9186,7.7376,7.5581,7.441,7.4765,7.5042,7.485,7.4932,7.501,7.4467,7.4158,7.3618,7.2171,7.2587,7.2661,7.2037,7.1838,7.1983,7.2599,7.293,7.3444,7.3923,7.427,7.413,7.3772,7.348,7.3497,7.3279,7.2983,7.2749,7.3186,7.2635,7.2739,7.3123,7.2993,7.3162,7.2851,7.2329,7.1619,7.092,7.0129,6.9427,6.9195,6.8358,6.8015,6.8446,6.8303,6.7834,6.7401,6.6361,6.4698,6.3867,6.2501,6.133,6.0375,5.9172,5.8295,5.761,5.7345,5.6336,5.4977,5.4039,5.3313,5.2601,5.1917,5.2227,5.2752,5.2967,5.2498,5.3163,5.3579,5.4447,5.495,5.4061,5.3379,5.315,5.2484,5.1145,4.942,4.7534,4.6051,8.2293,8.2371,8.3152,8.3035,8.2332,8.2645,8.2606,8.2332,8.2293,8.2293,8.2293,8.1942,8.163,8.1317,8.1239,8.0966,8.0576,8.0498,8.0224,7.9834,7.96,7.9483,7.9717,8.0224,8.0771,8.081,8.1747,8.2528,8.2528,8.2176,8.2918,8.2723,8.0927,8.0068,7.9326,7.8507,7.6789,7.6164,7.6164,7.636,7.6203,7.5735,7.566,7.5345,7.4056,7.39,7.3585,7.3861,7.3783,7.3627,7.3549,7.3771,7.4102,7.4368,7.4717,7.5105,7.5312,7.5556,7.5417,7.5127,7.4916,7.5265,7.4761,7.4324,7.4566,7.3888,7.3578,7.3782,7.3994,7.4129,7.3753,7.3392,7.2927,7.2196,7.1245,7.0097,6.9294,6.8655,6.8421,6.9038,6.9466,6.9487,6.9085,6.8649,6.6828,6.5084,6.3677,6.2354,6.1472,6.07,5.9894,5.9277,5.9004,5.7909,5.6508,5.5836,5.5319,5.4619,5.3963,5.4105,5.4294,5.3805,5.3603,5.442,5.5023,5.5413,5.5549,5.5494,5.518,5.4744,5.3521,5.1967,5.0099,4.8102,4.6972,8.245,8.2723,8.3269,8.3191,8.2723,8.2918,8.2879,8.2684,8.2684,8.2489,8.2332,8.2293,8.2293,8.2293,8.2254,8.1981,8.1474,8.1356,8.1005,8.081,8.0615,8.0341,8.0459,8.081,8.1317,8.1474,8.2254,8.2996,8.2918,8.3699,8.3816,8.3191,8.202,8.1005,8.0615,7.9209,7.8038,7.7609,7.7765,7.7414,7.714,7.6555,7.5972,7.5777,7.472,7.4525,7.4837,7.5149,7.5384,7.5305,7.5266,7.5261,7.5478,7.5733,7.6019,7.6264,7.651,7.687,7.6657,7.6349,7.6023,7.6224,7.568,7.5455,7.5471,7.4997,7.4614,7.4972,7.4942,7.4802,7.4732,7.4639,7.4417,7.3736,7.2116,7.0988,7.0419,6.983,6.964,6.9668,7.0029,7.0297,6.9957,6.9431,6.8115,6.6541,6.5455,6.4129,6.3038,6.2336,6.1708,6.1123,6.0733,5.9399,5.7949,5.7801,5.7498,5.6293,5.5673,5.5244,5.5142,5.4762,5.4729,5.5377,5.5894,5.6131,5.6352,5.6517,5.6437,5.6227,5.4746,5.3135,5.1181,4.9388,4.8388,8.2801,8.3465,8.3543,8.3582,8.366,8.4401,8.4206,8.3386,8.3269,8.2918,8.2332,8.2293,8.2293,8.2293,8.2293,8.2176,8.2137,8.2137,8.202,8.1903,8.1708,8.1552,8.1396,8.1513,8.163,8.1356,8.2254,8.2996,8.2684,8.3543,8.366,8.3543,8.2879,8.2137,8.3035,8.1669,8.0029,7.8741,7.9248,7.8468,7.7687,7.7179,7.6516,7.6086,7.554,7.5384,7.5813,7.6242,7.6477,7.6516,7.6555,7.6552,7.6666,7.6744,7.6855,7.6929,7.6968,7.705,7.705,7.6849,7.6865,7.7014,7.6644,7.6242,7.6448,7.6137,7.5722,7.606,7.6345,7.6494,7.6345,7.6028,7.5652,7.4826,7.3193,7.1803,7.1192,7.0847,7.0579,7.0091,7.0329,7.0602,7.0372,6.9955,6.9003,6.7916,6.7066,6.6009,6.4863,6.392,6.3325,6.2932,6.2421,6.1134,6.0002,6.0102,5.9641,5.8319,5.7375,5.6857,5.6623,5.6511,5.6558,5.6643,5.6838,5.7226,5.7463,5.7695,5.7314,5.6804,5.5866,5.4315,5.2363,5.0966,5.0244,8.3582,8.4401,8.4987,8.5221,8.5182,8.487,8.4284,8.3504,8.2957,8.2567,8.2332,8.2293,8.2293,8.2293,8.2293,8.2293,8.2293,8.2293,8.2293,8.2293,8.2293,8.1747,8.1552,8.1786,8.1903,8.1786,8.2645,8.3816,8.4089,8.448,8.5065,8.5104,8.3543,8.2645,8.1942,8.1122,8.0537,8.0107,7.9873,7.9326,7.8741,7.7765,7.6984,7.6633,7.6125,7.6086,7.6516,7.6984,7.7062,7.7101,7.7101,7.7101,7.7101,7.7101,7.714,7.714,7.714,7.7101,7.7098,7.7098,7.7632,7.7896,7.7853,7.738,7.7745,7.7043,7.6926,7.6917,7.698,7.7024,7.6817,7.6743,7.6369,7.5592,7.4164,7.2564,7.175,7.1516,7.1231,7.0528,7.0408,7.1537,7.1852,7.1689,7.085,7.0152,6.9411,6.82,6.6982,6.5694,6.4833,6.4559,6.4013,6.2847,6.2032,6.1993,6.09,5.9297,5.867,5.8395,5.8241,5.8011,5.8126,5.8126,5.8204,5.8321,5.848,5.8441,5.7851,5.7166,5.6436,5.5408,5.3621,5.2929,5.2866,8.4636,8.569,8.6002,8.6275,8.6392,8.5612,8.4597,8.3504,8.2684,8.2293,8.2293,8.2293,8.2293,8.2293,8.2293,8.2293,8.2293,8.2293,8.2293,8.2293,8.2293,8.1981,8.1903,8.2215,8.2489,8.2528,8.3543,8.4753,8.4636,8.5846,8.569,8.4753,8.405,8.2879,8.1942,8.1552,8.1474,8.1239,8.0966,8.0341,7.9561,7.8624,7.7726,7.714,7.6672,7.6516,7.6906,7.7101,7.7101,7.7101,7.7101,7.7101,7.714,7.7375,7.7492,7.757,7.7882,7.796,7.8113,7.8113,7.8728,7.9317,7.8858,7.8468,7.8353,7.7795,7.7639,7.7525,7.7335,7.714,7.7098,7.7101,7.6828,7.6008,7.5266,7.3666,7.3236,7.308,7.218,7.1441,7.1089,7.226,7.3158,7.3351,7.3041,7.2417,7.1831,7.0504,6.9215,6.7966,6.6873,6.6483,6.6209,6.5351,6.4414,6.3711,6.2345,6.0312,5.9922,5.9807,5.9219,5.8909,5.9261,5.9651,5.9805,5.9805,5.9456,5.9141,5.867,5.8046,5.7299,5.6128,5.4732,5.4459,5.4461,8.5924,8.7212,8.6549,8.6705,8.7134,8.6353,8.5065,8.3465,8.2645,8.2293,8.2293,8.2293,8.2293,8.2293,8.2293,8.2293,8.2293,8.2293,8.2293,8.2293,8.2293,8.2176,8.245,8.2918,8.3074,8.3621,8.4441,8.5143,8.4909,8.5143,8.4714,8.3972,8.3582,8.2801,8.2293,8.2098,8.2059,8.1942,8.163,8.0927,8.0068,7.9405,7.839,7.7648,7.7101,7.6945,7.7101,7.7101,7.7101,7.7101,7.7179,7.7179,7.7453,7.7999,7.8272,7.8624,7.917,7.9326,7.9366,7.9287,7.9405,7.96,7.917,7.8663,7.8507,7.8507,7.835,7.8038,7.7726,7.7375,7.7101,7.714,7.714,7.6672,7.632,7.5618,7.5305,7.4603,7.351,7.2768,7.2221,7.269,7.3275,7.3666,7.4603,7.4408,7.3822,7.3275,7.1987,7.0504,6.9489,6.8747,6.8435,6.8083,6.7068,6.5624,6.4297,6.2462,6.1447,6.1095,6.0471,6.0315,6.0939,6.1408,6.1486,6.133,6.0939,6.0315,5.9573,5.8909,5.8248,5.704,5.5714,5.54,5.5244,8.7876,8.8305,8.8071,8.7759,8.729,8.6471,8.5104,8.3504,8.2684,8.2293,8.2293,8.2293,8.2371,8.2293,8.2293,8.2293,8.2293,8.2293,8.2293,8.2293,8.2293,8.2293,8.2606,8.3074,8.3386,8.4011,8.4792,8.5651,8.5573,8.526,8.4831,8.4441,8.3504,8.2801,8.2567,8.2332,8.2411,8.2293,8.1981,8.1239,8.0341,7.9561,7.8663,7.8038,7.7335,7.7179,7.7101,7.7101,7.7101,7.7179,7.7726,7.7999,7.8077,7.8819,7.9326,7.9326,7.9561,7.9678,7.9717,7.9756,7.9834,8.0068,7.999,7.9873,7.9561,7.9287,7.9092,7.8741,7.835,7.7999,7.7687,7.7609,7.7765,7.7687,7.7257,7.6789,7.632,7.5384,7.429,7.3471,7.3002,7.3197,7.3744,7.4876,7.5735,7.5852,7.5735,7.5227,7.4447,7.2885,7.1753,7.0972,7.0387,6.9918,6.8513,6.7029,6.5936,6.4726,6.3633,6.2852,6.2774,6.2774,6.3047,6.3086,6.2969,6.2735,6.2384,6.1564,6.0553,5.997,5.9269,5.7943,5.6852,5.6657,5.6424,8.9203,8.9164,8.8852,8.7993,8.69,8.6314,8.526,8.405,8.3465,8.3152,8.2762,8.2801,8.2606,8.2332,8.2293,8.2293,8.2293,8.2293,8.2293,8.2293,8.2293,8.2293,8.2567,8.3074,8.3699,8.4362,8.526,8.6197,8.6236,8.5807,8.5299,8.5221,8.3855,8.3426,8.3386,8.3465,8.3386,8.2957,8.2332,8.1513,8.0615,7.9717,7.9014,7.835,7.7648,7.7296,7.7179,7.7179,7.7296,7.7531,7.8236,7.8585,7.8897,7.9717,8.0537,8.0615,8.0849,8.0888,8.0927,8.0849,8.0771,8.081,8.1161,8.1122,8.081,8.0498,8.0107,7.9678,7.9209,7.878,7.8429,7.8194,7.8546,7.8858,7.8272,7.7687,7.6828,7.593,7.4993,7.4095,7.39,7.4056,7.4798,7.5969,7.6711,7.6594,7.6477,7.6164,7.5579,7.4603,7.3588,7.2807,7.2182,7.1636,7.0113,6.8864,6.7966,6.6834,6.5312,6.4765,6.4882,6.457,6.4219,6.4219,6.4336,6.4065,6.3755,6.2549,6.1536,6.103,6.0762,6.0025,5.905,5.8269,5.7996,9.0101,8.9867,8.9008,8.772,8.6353,8.6275,8.5807,8.5026,8.5026,8.4401,8.3621,8.3465,8.2996,8.2411,8.2293,8.2293,8.2293,8.2293,8.2293,8.2332,8.2293,8.2293,8.2528,8.3113,8.3855,8.4792,8.5651,8.6431,8.69,8.6431,8.5846,8.6041,8.5068,8.4444,8.4369,8.4411,8.4335,8.4104,8.3281,8.238,8.1438,8.042,7.9483,7.8741,7.8116,7.7609,7.7492,7.757,7.7726,7.8233,7.8741,7.917,7.999,8.0654,8.1474,8.1786,8.1903,8.1903,8.1864,8.1825,8.1981,8.2059,8.2293,8.2098,8.1669,8.1356,8.0966,8.0459,7.9951,7.9522,7.917,7.9053,7.9248,7.9405,7.9092,7.8663,7.8116,7.6828,7.5266,7.4486,7.4212,7.4408,7.4837,7.593,7.6555,7.6828,7.7179,7.6984,7.6438,7.5774,7.4993,7.4251,7.3588,7.2963,7.2417,7.1245,7.0348,6.9059,6.7344,6.66,6.6639,6.5975,6.5116,6.547,6.59,6.5516,6.5011,6.3921,6.3146,6.2721,6.2451,6.2181,6.1479,6.0776,5.9917,9.1155,8.9867,8.8344,8.7446,8.7134,8.7095,8.6939,8.6779,8.6779,8.5534,8.3816,8.3504,8.3152,8.2606,8.2528,8.2528,8.2489,8.2645,8.2371,8.245,8.2489,8.2684,8.2567,8.3347,8.4089,8.4831,8.569,8.6588,8.7056,8.6627,8.6119,8.6044,8.5387,8.508,8.5083,8.509,8.5095,8.5134,8.4663,8.3797,8.2927,8.2101,8.1278,8.0618,7.9993,7.9525,7.9486,7.9681,7.9561,7.96,8.0146,8.081,8.163,8.1864,8.2059,8.2254,8.2293,8.2293,8.2293,8.2293,8.2293,8.2293,8.2293,8.2293,8.2215,8.2059,8.1747,8.12,8.0771,8.0341,8.0068,7.999,7.9951,7.999,7.9912,7.9639,7.9326,7.7531,7.5657,7.5149,7.4759,7.4993,7.5384,7.5735,7.6203,7.6945,7.7726,7.7804,7.7179,7.6516,7.5774,7.5071,7.4564,7.4056,7.3783,7.3161,7.1993,7.0899,6.9377,6.8791,6.832,6.7896,6.739,6.7349,6.7427,6.7201,6.6738,6.5844,6.5106,6.4759,6.4644,6.4646,6.4842,6.4373,6.3007,9.1546,8.9828,8.811,8.7404,8.7404,8.7404,8.7404,8.7404,8.7404,8.6396,8.484,8.4603,8.4167,8.3465,8.3386,8.3308,8.3347,8.3426,8.3582,8.3465,8.3269,8.3504,8.366,8.3816,8.4636,8.5416,8.6236,8.6978,8.7251,8.7095,8.6666,8.6558,8.6062,8.5874,8.5878,8.5962,8.5926,8.6041,8.5926,8.5411,8.4539,8.3562,8.2782,8.2198,8.173,8.1339,8.1222,8.1339,8.1183,8.1022,8.1373,8.1602,8.2068,8.2179,8.2254,8.2293,8.2293,8.2293,8.2293,8.2293,8.2293,8.2293,8.2293,8.2293,8.2293,8.2176,8.2137,8.1708,8.1669,8.1317,8.1278,8.1239,8.1239,8.1278,8.0654,8.0068,7.9326,7.7999,7.7104,7.6945,7.6828,7.7179,7.7375,7.7101,7.7375,7.6828,7.7687,7.7963,7.7456,7.7419,7.6638,7.6128,7.5819,7.5308,7.4915,7.4218,7.321,7.2195,7.1102,6.974,6.8767,6.947,6.9742,6.9078,6.8884,6.9243,6.8661,6.7726,6.7535,6.7381,6.7304,6.7304,6.7461,6.7539,6.6601,9.1546,8.9828,8.811,8.7404,8.7404,8.7404,8.7404,8.7407,8.7407,8.699,8.6257,8.6171,8.5696,8.5071,8.4795,8.4795,8.4675,8.4362,8.4558,8.4597,8.4597,8.4405,8.4408,8.4756,8.527,8.5975,8.6795,8.7147,8.7381,8.7225,8.723,8.7392,8.7397,8.7362,8.7408,8.7372,8.718,8.7103,8.6986,8.6827,8.5888,8.4793,8.4089,8.3542,8.3192,8.2762,8.2684,8.2762,8.2762,8.229,8.2205,8.2198,8.2232,8.2302,8.2296,8.2293,8.2293,8.2293,8.2293,8.2293,8.2293,8.2293,8.2332,8.2332,8.2371,8.245,8.2411,8.245,8.2411,8.2293,8.2254,8.2215,8.2254,8.2137,8.1317,8.0732,7.9756,7.8819,7.8624,7.8546,7.8819,7.9131,7.8858,7.8588,7.8236,7.7612,7.7419,7.7419,7.7578,7.8015,7.7901,7.7666,7.751,7.6961,7.6173,7.5004,7.4035,7.3219,7.2012,7.0338,6.9364,7.026,7.0532,6.9988,6.9951,7.0461,7.0385,6.9646,6.9608,6.9414,6.9219,6.8945,6.914,6.9297,6.9765,9.1507,8.9867,8.811,8.7407,8.7407,8.7407,8.7404,8.7407,8.7423,8.7272,8.7121,8.7012,8.6387,8.4903,8.4814,8.4927,8.5236,8.511,8.4909,8.4792,8.5146,8.4996,8.5002,8.5356,8.5481,8.6186,8.6969,8.7325,8.7397,8.7399,8.7403,8.7405,8.7413,8.7415,8.7416,8.7422,8.7461,8.7461,8.7461,8.7265,8.707,8.6128,8.534,8.5067,8.5143,8.4832,8.4754,8.5067,8.444,8.362,8.2798,8.2599,8.2593,8.2625,8.2659,8.2732,8.2729,8.269,8.2732,8.2732,8.2771,8.2693,8.2693,8.2534,8.269,8.3041,8.3041,8.3158,8.3041,8.2687,8.2567,8.2567,8.2567,8.2332,8.1747,8.1747,8.1278,8.042,7.9873,7.9912,8.0029,7.9954,7.9603,7.9452,7.946,7.9033,7.8961,7.8961,7.8729,7.8926,7.9045,7.8965,7.8926,7.8141,7.7122,7.5677,7.4627,7.389,7.3036,7.1555,7.0852,7.12,7.1278,7.097,7.1128,7.1598,7.1405,7.1055,7.0664,7.039,7.039,7.039,7.0625,7.0898,7.125]}]]